[[{"header":{"parameterUnit":"m.s-1","parameterCategory":1,"la1":30.6,"la2":29.2853,"lo1":-89.7004,"lo2":-87.6739,"dy":0.0162,"dx":0.0183,"nx":112,"ny":82,"refTime":"2026-04-14T00:00:00:Z","depth":0,"parameterNumber":2,"parameterNumberName":"U-component_of_WINDS"},"data":[0.0,0.0,0.0,0.0,0.0,0.0,0.0,0.0,0.0,0.0,0.0,0.0,0.0,0.0,0.0,0.0,0.0,0.0,0.0,0.0,0.0,0.0,0.0,0.0,0.0,0.0,0.0,0.0,0.0,0.0,0.0,0.0,0.0,0.0,0.0,0.0,0.0,0.0,0.0,0.0,0.0,0.0,0.0,0.0,0.0,0.0,0.0,0.0,0.0,0.0,0.0,0.0,0.0,0.0,0.0,0.0,0.0,0.0,0.0,0.0,0.0,0.0,0.0,0.0,0.0,0.0,0.0,0.0,0.0,0.0,0.0,0.0,0.0,0.0,0.0,0.0,0.0,0.0,0.0,0.0,0.0,0.0,0.0,0.0,0.0,0.0,0.0,0.0,0.0,0.0,-1.249,-1.4882,-1.6969,-1.7924,-1.7242,-1.6967,-1.6002,-1.408,0.0,0.0,0.0,0.0,0.0,0.0,0.0,0.0,0.0,0.0,0.0,0.0,0.0,0.0,0.0,0.0,0.0,0.0,0.0,0.0,0.0,0.0,0.0,0.0,0.0,0.0,0.0,0.0,0.0,0.0,0.0,0.0,0.0,0.0,0.0,0.0,0.0,0.0,0.0,0.0,0.0,0.0,0.0,0.0,0.0,0.0,0.0,0.0,0.0,0.0,0.0,0.0,0.0,0.0,0.0,0.0,0.0,0.0,0.0,0.0,0.0,0.0,0.0,0.0,0.0,0.0,0.0,0.0,0.0,0.0,0.0,0.0,0.0,0.0,0.0,0.0,0.0,0.0,0.0,0.0,0.0,0.0,0.0,0.0,0.0,0.0,0.0,0.0,0.0,0.0,0.0,0.0,0.0,0.0,0.0,0.0,0.0,0.0,0.0,0.0,0.0,0.0,0.0,0.0,-1.3442,-1.6356,-1.7597,-1.8148,-1.8028,-1.6812,-1.5916,-1.5571,0.0,0.0,0.0,0.0,0.0,0.0,0.0,0.0,0.0,0.0,0.0,0.0,0.0,0.0,0.0,0.0,0.0,0.0,0.0,0.0,0.0,0.0,0.0,0.0,0.0,0.0,0.0,0.0,0.0,0.0,0.0,0.0,0.0,0.0,0.0,0.0,0.0,0.0,0.0,0.0,0.0,0.0,0.0,0.0,0.0,0.0,0.0,0.0,0.0,0.0,0.0,0.0,0.0,0.0,0.0,0.0,0.0,0.0,0.0,0.0,0.0,0.0,0.0,0.0,0.0,0.0,0.0,0.0,0.0,0.0,0.0,0.0,0.0,0.0,0.0,0.0,0.0,0.0,0.0,0.0,0.0,0.0,0.0,0.0,0.0,0.0,0.0,0.0,0.0,0.0,0.0,0.0,0.0,0.0,0.0,0.0,0.0,0.0,0.0,0.0,0.0,0.0,0.0,-1.3267,-1.458,-1.6777,-1.7707,-1.82,-1.82,-1.6777,-1.5899,-1.5899,-1.339,0.0,0.0,0.0,0.0,0.0,0.0,0.0,0.0,0.0,0.0,0.0,0.0,0.0,0.0,0.0,0.0,0.0,0.0,0.0,0.0,0.0,0.0,0.0,0.0,0.0,0.0,0.0,0.0,0.0,0.0,0.0,0.0,0.0,0.0,0.0,0.0,0.0,0.0,0.0,0.0,0.0,0.0,0.0,0.0,0.0,0.0,0.0,0.0,0.0,0.0,0.0,0.0,0.0,0.0,0.0,0.0,0.0,0.0,0.0,0.0,0.0,0.0,0.0,0.0,0.0,0.0,0.0,0.0,0.0,0.0,0.0,0.0,0.0,0.0,0.0,0.0,0.0,0.0,0.0,0.0,0.0,0.0,0.0,0.0,0.0,0.0,0.0,0.0,0.0,0.0,0.0,0.0,0.0,0.0,0.0,0.0,0.0,0.0,0.0,0.0,0.0,0.0,-1.4451,-1.5633,-1.7122,-1.7838,-1.82,-1.82,-1.6777,-1.5899,-1.5899,-1.3062,0.0,0.0,0.0,0.0,0.0,0.0,0.0,0.0,0.0,0.0,0.0,0.0,0.0,0.0,0.0,0.0,0.0,0.0,0.0,0.0,0.0,0.0,0.0,0.0,0.0,0.0,0.0,0.0,0.0,0.0,0.0,0.0,0.0,0.0,0.0,0.0,0.0,0.0,0.0,0.0,0.0,0.0,0.0,0.0,0.0,0.0,0.0,0.0,0.0,0.0,0.0,0.0,0.0,0.0,0.0,0.0,0.0,0.0,0.0,0.0,0.0,0.0,0.0,0.0,0.0,0.0,0.0,0.0,0.0,0.0,0.0,0.0,0.0,0.0,0.0,0.0,0.0,0.0,0.0,0.0,0.0,0.0,0.0,0.0,0.0,0.0,0.0,0.0,0.0,0.0,0.0,0.0,0.0,0.0,0.0,0.0,0.0,0.0,0.0,0.0,0.0,0.0,-1.49,-1.6398,-1.7959,-1.8166,-1.82,-1.82,-1.6777,-1.5899,-1.5899,-1.3062,0.0,0.0,0.0,0.0,0.0,0.0,0.0,0.0,0.0,0.0,0.0,0.0,0.0,0.0,0.0,0.0,0.0,0.0,0.0,0.0,0.0,0.0,0.0,0.0,0.0,0.0,0.0,0.0,0.0,0.0,0.0,0.0,0.0,0.0,0.0,0.0,0.0,0.0,0.0,0.0,0.0,0.0,0.0,0.0,0.0,0.0,0.0,0.0,0.0,0.0,0.0,0.0,0.0,0.0,0.0,0.0,0.0,0.0,0.0,0.0,0.0,0.0,0.0,0.0,0.0,0.0,0.0,0.0,0.0,0.0,0.0,0.0,0.0,0.0,0.0,0.0,0.0,0.0,0.0,0.0,0.0,0.0,0.0,0.0,0.0,0.0,0.0,0.0,0.0,0.0,0.0,0.0,0.0,0.0,0.0,0.0,0.0,0.0,0.0,0.0,0.0,0.0,-1.4865,-1.5978,-1.7993,-1.82,-1.8052,-1.7679,-1.6568,-1.5566,-1.4765,0.0,0.0,0.0,0.0,0.0,0.0,0.0,0.0,0.0,0.0,0.0,0.0,0.0,0.0,0.0,0.0,0.0,0.0,0.0,0.0,0.0,0.0,0.0,0.0,0.0,0.0,0.0,0.0,0.0,0.0,0.0,0.0,0.0,0.0,0.0,0.0,0.0,0.0,0.0,0.0,0.0,0.0,0.0,0.0,0.0,0.0,0.0,0.0,0.0,0.0,0.0,0.0,0.0,0.0,0.0,0.0,0.0,0.0,0.0,0.0,0.0,0.0,0.0,0.0,0.0,0.0,0.0,0.0,0.0,0.0,0.0,0.0,0.0,0.0,0.0,0.0,0.0,0.0,0.0,0.0,0.0,0.0,0.0,0.0,0.0,0.0,0.0,0.0,0.0,0.0,0.0,0.0,0.0,0.0,0.0,0.0,0.0,0.0,0.0,0.0,0.0,0.0,-1.4096,-1.4848,-1.584,-1.7631,-1.7821,-1.7551,-1.6915,-1.5852,-1.4845,-1.3933,0.0,0.0,0.0,0.0,0.0,0.0,0.0,0.0,0.0,0.0,0.0,0.0,0.0,0.0,0.0,0.0,0.0,0.0,0.0,0.0,0.0,0.0,0.0,0.0,0.0,0.0,0.0,0.0,0.0,0.0,0.0,0.0,0.0,0.0,0.0,0.0,0.0,0.0,0.0,0.0,0.0,0.0,0.0,0.0,0.0,0.0,0.0,0.0,0.0,0.0,0.0,0.0,0.0,0.0,0.0,0.0,0.0,0.0,0.0,0.0,0.0,0.0,0.0,0.0,0.0,0.0,0.0,0.0,0.0,0.0,0.0,0.0,0.0,0.0,0.0,0.0,0.0,0.0,0.0,0.0,0.0,0.0,0.0,0.0,0.0,0.0,0.0,0.0,0.0,0.0,0.0,0.0,0.0,0.0,0.0,0.0,0.0,0.0,0.0,0.0,0.0,0.0,-1.3415,-1.4926,-1.6157,-1.6915,-1.7001,-1.6691,-1.595,-1.4611,-1.3738,0.0,0.0,0.0,0.0,0.0,0.0,0.0,0.0,0.0,0.0,0.0,0.0,0.0,0.0,0.0,0.0,0.0,0.0,0.0,0.0,0.0,0.0,0.0,0.0,0.0,0.0,0.0,0.0,0.0,0.0,0.0,0.0,0.0,0.0,0.0,0.0,0.0,0.0,0.0,0.0,0.0,0.0,0.0,0.0,0.0,0.0,0.0,0.0,0.0,0.0,0.0,0.0,0.0,0.0,0.0,0.0,0.0,0.0,0.0,0.0,0.0,0.0,0.0,0.0,0.0,0.0,0.0,0.0,0.0,0.0,0.0,0.0,0.0,0.0,0.0,0.0,0.0,0.0,0.0,0.0,0.0,0.0,0.0,0.0,0.0,0.0,0.0,0.0,0.0,0.0,0.0,0.0,0.0,0.0,0.0,0.0,0.0,0.0,0.0,0.0,0.0,0.0,0.0,-1.3346,-1.3994,-1.4779,-1.6088,-1.6311,-1.6071,-1.5331,-1.4445,-1.3468,-1.233,0.0,0.0,0.0,0.0,0.0,0.0,0.0,0.0,0.0,0.0,0.0,0.0,0.0,0.0,0.0,0.0,0.0,0.0,0.0,0.0,0.0,0.0,0.0,0.0,0.0,0.0,0.0,0.0,0.0,0.0,0.0,0.0,0.0,0.0,0.0,0.0,0.0,0.0,0.0,0.0,0.0,0.0,0.0,0.0,0.0,0.0,0.0,0.0,0.0,0.0,0.0,0.0,0.0,0.0,0.0,0.0,0.0,0.0,0.0,0.0,0.0,0.0,0.0,0.0,0.0,0.0,0.0,0.0,0.0,0.0,0.0,0.0,0.0,0.0,0.0,0.0,0.0,0.0,0.0,0.0,0.0,0.0,0.0,0.0,0.0,0.0,0.0,0.0,0.0,0.0,0.0,0.0,0.0,0.0,0.0,0.0,0.0,0.0,0.0,0.0,0.0,0.0,-1.2914,-1.3415,-1.408,-1.5331,-1.5575,-1.5354,-1.4592,-1.3686,-1.274,-1.1764,0.0,0.0,0.0,0.0,0.0,0.0,0.0,0.0,0.0,0.0,0.0,0.0,0.0,0.0,0.0,0.0,0.0,0.0,0.0,0.0,0.0,0.0,0.0,0.0,0.0,0.0,0.0,0.0,0.0,0.0,0.0,0.0,0.0,0.0,0.0,0.0,0.0,0.0,0.0,0.0,0.0,0.0,0.0,0.0,0.0,0.0,0.0,0.0,0.0,0.0,0.0,0.0,0.0,0.0,0.0,0.0,0.0,0.0,0.0,0.0,0.0,0.0,0.0,0.0,0.0,0.0,0.0,0.0,0.0,0.0,0.0,0.0,0.0,0.0,0.0,0.0,0.0,0.0,0.0,0.0,0.0,0.0,0.0,0.0,0.0,0.0,0.0,0.0,0.0,0.0,0.0,0.0,0.0,0.0,0.0,0.0,0.0,0.0,0.0,0.0,0.0,0.0,-1.23,-1.3087,-1.3795,-1.4597,-1.4825,-1.4607,-1.3856,-1.2716,-1.1935,-1.1716,0.0,0.0,0.0,0.0,0.0,0.0,0.0,0.0,0.0,0.0,0.0,0.0,0.0,0.0,0.0,0.0,0.0,0.0,0.0,0.0,0.0,0.0,0.0,0.0,0.0,0.0,0.0,0.0,0.0,0.0,0.0,0.0,0.0,0.0,0.0,0.0,0.0,0.0,0.0,0.0,0.0,0.0,0.0,0.0,0.0,0.0,0.0,0.0,0.0,0.0,0.0,0.0,0.0,0.0,0.0,0.0,0.0,0.0,0.0,0.0,-1.3992,-1.2917,0.0,0.0,0.0,0.0,0.0,0.0,0.0,0.0,0.0,0.0,0.0,0.0,0.0,0.0,0.0,0.0,0.0,0.0,0.0,0.0,0.0,0.0,0.0,0.0,0.0,0.0,0.0,0.0,0.0,0.0,0.0,0.0,0.0,0.0,0.0,0.0,0.0,0.0,0.0,0.0,-1.23,-1.2645,-1.3018,-1.3777,-1.4129,-1.4161,-1.3836,-1.3311,-1.2628,-1.1758,-0.9683,0.0,0.0,0.0,0.0,0.0,0.0,0.0,0.0,0.0,0.0,0.0,0.0,0.0,0.0,0.0,0.0,0.0,0.0,0.0,0.0,0.0,0.0,0.0,0.0,0.0,0.0,0.0,0.0,0.0,0.0,0.0,0.0,0.0,0.0,0.0,0.0,0.0,0.0,0.0,0.0,0.0,0.0,0.0,0.0,0.0,0.0,0.0,0.0,0.0,0.0,0.0,0.0,0.0,0.0,0.0,0.0,0.0,0.0,0.0,-1.6043,-1.5026,0.0,0.0,0.0,0.0,0.0,0.0,0.0,0.0,0.0,0.0,0.0,0.0,0.0,0.0,0.0,0.0,0.0,0.0,0.0,0.0,0.0,0.0,0.0,0.0,0.0,0.0,0.0,0.0,0.0,0.0,0.0,0.0,0.0,0.0,0.0,0.0,0.0,0.0,0.0,0.0,-1.2401,-1.264,-1.2997,-1.3755,-1.4043,-1.4157,-1.4039,-1.3581,-1.2903,-1.1957,-1.0471,0.0,0.0,0.0,0.0,0.0,0.0,0.0,0.0,0.0,0.0,0.0,0.0,0.0,0.0,0.0,0.0,0.0,0.0,0.0,0.0,0.0,0.0,0.0,0.0,0.0,0.0,0.0,0.0,0.0,0.0,0.0,0.0,0.0,0.0,0.0,0.0,0.0,0.0,0.0,0.0,0.0,0.0,0.0,0.0,0.0,0.0,0.0,0.0,0.0,0.0,0.0,0.0,0.0,-1.9278,-1.9748,-1.9986,-1.9986,-2.0401,-2.1008,-1.8667,-1.792,-1.8216,-1.65,0.0,0.0,0.0,0.0,0.0,0.0,0.0,0.0,0.0,0.0,0.0,0.0,0.0,0.0,0.0,0.0,0.0,0.0,0.0,0.0,0.0,0.0,-1.4719,-1.6309,-1.6578,-1.5754,-1.3065,0.0,0.0,0.0,0.0,0.0,0.0,0.0,0.0,0.0,0.0,0.0,-1.2759,-1.3045,-1.3353,-1.4035,-1.4216,-1.43,-1.43,-1.3808,-1.317,-1.2357,-1.1558,-1.0453,0.0,0.0,0.0,0.0,0.0,0.0,0.0,0.0,0.0,0.0,0.0,0.0,0.0,0.0,0.0,0.0,0.0,0.0,0.0,0.0,0.0,0.0,0.0,0.0,0.0,0.0,0.0,0.0,0.0,0.0,0.0,0.0,-1.0795,-1.1801,0.0,0.0,0.0,0.0,0.0,0.0,0.0,0.0,0.0,0.0,0.0,0.0,0.0,-1.7577,-1.8642,-1.9535,-2.0413,-2.1291,-2.2072,-2.2823,-2.3529,-2.3529,-2.3611,-2.3657,-2.2594,0.0,-2.002,-1.8401,0.0,0.0,0.0,0.0,0.0,0.0,0.0,0.0,0.0,0.0,0.0,0.0,0.0,0.0,0.0,0.0,0.0,0.0,0.0,0.0,0.0,0.0,-1.6082,-1.6514,-1.6515,-1.6345,-1.607,-1.4731,-1.3349,-1.2611,-1.1803,-1.1183,0.0,0.0,0.0,0.0,0.0,0.0,-1.3787,-1.3939,-1.3982,-1.4089,-1.4216,-1.43,-1.43,-1.4332,-1.4004,-1.3188,-1.2393,-1.1521,-1.0618,-0.9338,0.0,0.0,0.0,0.0,0.0,0.0,0.0,0.0,0.0,0.0,0.0,0.0,0.0,0.0,0.0,0.0,0.0,0.0,0.0,0.0,0.0,0.0,0.0,0.0,0.0,0.0,0.0,0.0,0.0,-1.0729,-1.239,-1.2721,-1.267,-1.2566,0.0,0.0,0.0,0.0,0.0,0.0,0.0,0.0,0.0,-1.8626,-1.9422,-2.0299,-2.1277,-2.2529,-2.339,-2.3832,-2.4649,-2.5207,-2.5548,-2.5548,-2.5548,-2.5529,-2.5171,-2.4602,-2.3703,-2.0694,-1.9447,-1.9366,0.0,0.0,0.0,0.0,-1.8584,-1.839,-1.9326,-1.9083,-1.8412,-1.8752,0.0,0.0,0.0,0.0,0.0,0.0,0.0,-1.6785,0.0,0.0,-1.8348,-1.9119,-1.8815,-1.8431,-1.8662,-1.7188,-1.5494,-1.4403,-1.3429,-1.2644,-1.2354,-1.1918,0.0,0.0,0.0,-1.3951,-1.4788,-1.5343,-1.5499,-1.5045,-1.5042,-1.4891,-1.4447,-1.4458,-1.4169,-1.3353,-1.2968,-1.2412,-1.1613,-1.0457,-0.9848,0.0,0.0,0.0,0.0,0.0,0.0,0.0,0.0,0.0,0.0,0.0,0.0,0.0,0.0,0.0,0.0,0.0,0.0,0.0,0.0,0.0,0.0,0.0,0.0,0.0,0.0,0.0,0.0,-1.2179,-1.3445,-1.3868,-1.4073,-1.4052,0.0,0.0,0.0,0.0,0.0,0.0,-1.83,-1.8561,-1.9486,-2.1243,-2.2081,-2.2959,-2.3905,-2.5107,-2.5815,-2.6017,-2.6612,-2.7016,-2.7207,-2.6998,-2.7016,-2.7189,-2.6767,-2.6722,-2.6649,-2.318,-2.174,-2.1667,-2.0868,-2.0546,-2.0637,-2.1226,-2.0941,-2.0435,-2.1666,-2.1547,-2.0859,-2.108,-2.0611,-1.9793,-1.8959,0.0,0.0,0.0,0.0,-1.8816,-2.011,-2.0234,-2.0246,-2.1193,-2.0838,-2.0377,-2.0626,-1.9471,-1.787,-1.6155,-1.5017,-1.4231,-1.3886,-1.3311,0.0,-1.3775,0.0,-1.5198,-1.5787,-1.647,-1.667,-1.6078,-1.6004,-1.5674,-1.4879,-1.4805,-1.4462,-1.366,-1.3611,-1.3256,-1.2448,-1.1631,-1.1113,-1.0889,0.0,0.0,0.0,0.0,0.0,0.0,0.0,0.0,0.0,0.0,0.0,0.0,0.0,0.0,0.0,0.0,0.0,0.0,0.0,0.0,0.0,0.0,0.0,0.0,0.0,0.0,0.0,0.0,0.0,-1.5405,-1.6149,0.0,0.0,0.0,0.0,-1.7523,-1.8374,-1.9272,-2.0126,-2.088,-2.2145,-2.396,-2.4777,-2.5603,-2.64,-2.6502,-2.6924,-2.7688,-2.7725,-2.8136,-2.8858,-2.8099,-2.8154,-2.8785,-2.7262,-2.7034,-2.7614,-2.587,-2.5154,-2.5062,-2.4273,-2.3951,-2.3951,-2.4006,-2.3511,-2.2822,-2.2914,-2.2409,-2.1867,-2.2621,-2.2336,-2.1519,-2.0639,-2.0338,0.0,0.0,-2.0726,-2.1277,-2.1177,-2.1135,-2.1183,-2.145,-2.146,-2.1488,-2.1669,-2.1489,-2.048,-1.7727,-1.6437,-1.5852,-1.6009,0.0,-1.6097,-1.6461,-1.6548,-1.6635,-1.6808,-1.6865,-1.689,-1.6835,-1.6835,-1.6505,-1.5717,-1.5643,-1.5307,-1.4493,-1.4438,-1.4077,-1.3262,-1.2467,-1.1686,-1.0907,-0.8526,0.0,0.0,0.0,0.0,0.0,0.0,0.0,0.0,0.0,0.0,0.0,0.0,0.0,0.0,0.0,0.0,0.0,0.0,0.0,0.0,0.0,0.0,0.0,0.0,0.0,0.0,0.0,0.0,-1.705,-1.7467,0.0,-1.7809,-1.8406,-1.8971,-1.934,-2.0276,-2.1413,-2.274,-2.3573,-2.4536,-2.5713,-2.6521,-2.7082,-2.7365,-2.7886,-2.829,-2.8565,-2.8565,-2.8712,-2.8987,-2.8693,-2.873,-2.8968,-2.84,-2.8308,-2.8528,-2.7952,-2.7108,-2.6135,-2.586,-2.575,-2.575,-2.575,-2.5556,-2.5318,-2.5318,-2.4795,-2.3997,-2.3254,-2.2804,-2.2428,-2.1584,-2.1345,-2.1428,-2.1917,-2.2126,-2.2309,-2.2757,-2.2758,-2.2676,-2.2932,-2.2483,-2.2074,-2.2326,-2.1803,-2.1015,-1.9992,-1.877,-1.7787,-1.7488,-1.6997,-1.6682,-1.6807,-1.7267,-1.7617,-1.766,-1.8126,-1.8243,-1.7722,-1.7667,-1.7135,-1.5808,-1.5698,-1.5362,-1.4548,-1.4004,-1.3605,-1.3317,-1.2021,-1.1187,-1.0912,-0.903,-0.8082,0.0,0.0,0.0,0.0,0.0,0.0,0.0,0.0,0.0,0.0,0.0,0.0,0.0,0.0,0.0,0.0,0.0,0.0,0.0,0.0,0.0,0.0,0.0,0.0,0.0,0.0,-1.7014,-1.8353,-1.8996,-1.9515,-1.9973,-2.0588,-2.1238,-2.1972,-2.2896,-2.3878,-2.4942,-2.5778,-2.6458,-2.6998,-2.7787,-2.8209,-2.8209,-2.873,-2.9133,-2.939,-2.9133,-2.9133,-2.939,-2.884,-2.873,-2.8987,-2.8712,-2.8748,-2.9005,-2.9005,-2.8363,-2.7409,-2.7409,-2.7409,-2.7409,-2.7409,-2.7244,-2.6979,-2.6693,-2.6245,-2.5631,-2.4557,-2.4033,-2.3712,-2.3171,-2.2822,-2.273,-2.3254,-2.3278,-2.3262,-2.38,-2.3806,-2.3714,-2.3896,-2.3436,-2.2986,-2.3173,-2.2677,-2.2136,-2.1855,-2.0688,-1.964,-1.93,-1.8575,-1.806,-1.8111,-1.8346,-1.85,-1.85,-1.8967,-1.9095,-1.8555,-1.85,-1.7858,-1.6243,-1.6096,-1.5655,-1.4578,-1.4009,-1.3702,-1.3708,-1.2412,-1.1705,-1.1705,-1.0125,-0.9041,-0.8454,0.0,0.0,0.0,0.0,0.0,0.0,0.0,0.0,0.0,0.0,0.0,0.0,0.0,0.0,0.0,0.0,0.0,0.0,0.0,0.0,0.0,0.0,0.0,-1.5674,-1.7137,-1.8463,-1.9315,-2.0876,-2.1886,-2.1904,-2.3355,-2.4603,-2.5374,-2.6172,-2.6649,-2.6649,-2.7402,-2.7842,-2.7842,-2.8583,-2.9005,-2.9005,-2.9005,-2.939,-3.0155,-2.9372,-2.9409,-3.0118,-2.8539,-2.8264,-2.8968,-2.8172,-2.8282,-2.9005,-2.9005,-2.9005,-2.9005,-2.9005,-2.9005,-2.9005,-2.9005,-2.8521,-2.7714,-2.6924,-2.6649,-2.662,-2.6602,-2.6062,-2.5429,-2.5429,-2.4897,-2.4263,-2.4245,-2.4245,-2.4226,-2.4208,-2.419,-2.419,-2.419,-2.419,-2.419,-2.419,-2.419,-2.3969,-2.3189,-2.2086,-2.1341,-2.1487,-2.0871,-2.0397,-2.0523,-1.9858,0.0,-1.9334,-1.9315,-1.9297,-1.9297,-1.9297,-1.8665,-1.7073,-1.6927,-1.6224,-1.4632,-1.4487,-1.4468,-1.4467,-1.3689,-1.3248,-1.323,-1.1695,-1.0108,-0.8487,0.0,0.0,0.0,0.0,0.0,0.0,0.0,0.0,0.0,0.0,0.0,0.0,0.0,0.0,0.0,0.0,0.0,0.0,0.0,0.0,0.0,-1.5919,-1.7239,-1.7413,-1.8324,-1.9711,-2.1749,-2.2905,-2.3777,-2.4346,-2.5328,-2.6025,-2.6245,-2.7016,-2.7475,-2.7475,-2.8227,-2.8675,-2.8675,-2.8877,-2.9005,-2.9005,-2.9005,-2.9115,-2.9335,-2.9115,-2.9115,-2.9317,-2.8877,-2.8785,-2.8987,-2.8767,-2.8803,-2.9005,-2.9005,-2.9005,-2.9005,-2.9005,-2.9005,-2.9005,-2.9005,-2.8858,-2.8565,-2.775,-2.7475,-2.7365,-2.6796,-2.6447,-2.6264,-2.6264,-2.6117,-2.5823,-2.5227,-2.5062,-2.4934,-2.4355,-2.419,-2.419,-2.419,-2.419,-2.419,-2.419,-2.419,-2.4135,-2.3914,-2.3609,-2.3022,-2.1917,-2.1523,-2.1394,-2.1437,-2.0721,0.0,-2.0162,-1.9656,-1.9297,-1.9297,-1.9297,-1.8886,-1.7851,-1.7273,-1.6539,-1.5514,-1.4353,-1.3671,-1.3619,-1.2859,-1.2155,-1.1562,-1.1164,-1.0741,0.0,0.0,0.0,0.0,0.0,0.0,0.0,0.0,0.0,0.0,0.0,0.0,0.0,0.0,0.0,0.0,0.0,0.0,0.0,0.0,0.0,0.0,-1.7764,-1.9004,-2.0005,-2.0556,-2.151,-2.329,-2.4208,-2.5154,-2.6292,-2.6833,-2.7236,-2.7574,-2.8044,-2.8301,-2.8301,-2.8748,-2.9005,-2.9005,-2.9005,-2.9005,-2.9005,-2.9005,-2.917,-2.95,-2.9152,-2.9189,-2.9482,-2.9152,-2.9005,-2.9005,-2.9005,-2.9005,-2.9005,-2.9005,-2.9005,0.0,0.0,0.0,0.0,0.0,-2.9005,-2.8932,-2.8455,-2.8301,-2.8227,-2.7758,-2.7383,-2.7108,-2.7108,-2.6869,-2.6429,-2.5631,-2.5393,-2.5209,-2.441,-2.419,-2.419,-2.419,-2.419,-2.419,-2.419,-2.419,-2.419,-2.419,-2.419,0.0,-2.2969,-2.2528,-2.229,-2.2298,-2.1262,-2.0511,-2.0535,-1.9819,-1.9297,-1.9297,-1.9331,-1.9026,-1.8217,-1.7748,0.0,0.0,0.0,-1.4238,-1.3853,-1.3405,0.0,0.0,0.0,0.0,0.0,0.0,0.0,0.0,-0.9755,-0.9712,0.0,0.0,0.0,0.0,0.0,0.0,0.0,0.0,0.0,0.0,0.0,0.0,0.0,0.0,0.0,0.0,-1.9589,-2.049,-2.2694,-2.3162,-2.3547,-2.4245,-2.5136,-2.6237,-2.7669,-2.789,-2.8227,-2.895,-2.9005,-2.9005,-2.9005,0.0,0.0,0.0,0.0,-2.9005,-2.9005,-2.9005,-2.9354,-3.0063,-2.9335,-2.9372,-3.0044,-2.9335,-2.9005,-2.9005,-2.9005,-2.9005,-2.9005,-2.9005,-2.9005,-2.9005,-2.9005,-2.9005,-2.9005,-2.9005,-2.9005,-2.9005,-2.9005,0.0,0.0,-2.9005,-2.851,-2.7934,-2.7934,-2.7438,-2.6704,-2.5907,-2.5613,-2.5356,-2.4538,-2.4263,-2.419,-2.419,-2.419,-2.419,-2.419,-2.419,-2.419,-2.4199,-2.4199,-2.4199,-2.4209,-2.3612,-2.3144,-2.3143,-2.181,-2.0782,-2.0741,-1.9982,-1.9415,-1.9323,0.0,0.0,-1.8414,-1.8269,-1.7631,-1.6268,-1.6022,-1.5585,-1.4785,-1.4748,-1.4666,-1.446,-1.4466,-1.4114,-1.341,-1.341,-1.3052,-1.2372,-1.2009,-1.1861,0.0,0.0,0.0,0.0,0.0,0.0,0.0,0.0,0.0,0.0,0.0,0.0,0.0,0.0,0.0,-1.9317,-2.1015,-2.2471,-2.3003,-2.4145,-2.4989,-2.5154,-2.6458,-2.7467,-2.778,-2.8393,-2.8822,-2.8987,-2.9005,-2.9005,-2.9005,-2.9005,-2.9005,-2.9005,-2.9005,-2.9005,-2.9005,-2.9005,-2.9078,-2.9225,0.0,0.0,-2.9225,-2.9078,-2.9005,-2.9005,-2.9005,-2.9005,-2.9005,-2.9005,-2.9005,-2.9005,-2.9005,-2.9005,-2.9005,-2.9005,-2.9005,-2.9005,-2.9005,-2.9005,-2.9005,-2.9005,-2.8895,-2.8767,-2.8767,-2.8656,0.0,-2.7548,-2.6869,-2.6172,-2.5374,-2.4695,-2.419,-2.419,-2.419,-2.419,-2.419,-2.419,-2.4199,-2.4201,-2.421,-2.4219,-2.4275,-2.41,-2.3971,-2.3962,-2.3188,-2.2357,-2.166,-2.0852,-2.0089,-1.9445,-1.939,-1.9357,-1.9254,-1.8643,-1.8151,-1.7843,-1.7207,-1.6484,-1.5688,-1.5651,-1.5016,-1.3664,-1.3684,-1.3643,-1.3476,-1.3476,-1.3693,-1.4085,-1.2684,-1.1991,0.0,0.0,0.0,0.0,0.0,0.0,0.0,0.0,0.0,0.0,0.0,-1.6565,-1.6972,0.0,-2.0302,-2.1078,-2.2212,-2.3299,-2.4183,-2.5305,-2.6048,-2.6048,-2.7093,-2.7963,-2.8401,-2.8433,-2.8587,-2.9014,-2.8643,-2.8583,-2.8987,-2.9005,-2.9005,-2.9005,-2.9005,-2.9005,-2.9005,-2.9005,-2.9005,-2.9005,-2.9005,-2.9005,-2.9005,-2.9005,-2.9005,-2.9005,-2.9005,-2.9028,-2.9051,-2.9051,-2.9074,-2.9108,-2.9055,-2.9051,-2.9051,-2.9051,-2.9051,-2.9051,-2.9051,-2.9028,-2.9005,-2.9005,-2.9005,-2.9005,-2.9005,-2.9005,-2.8822,-2.8026,-2.7512,-2.6924,-2.5705,-2.5099,-2.4695,-2.4292,-2.4209,-2.4209,-2.4238,-2.4247,-2.4247,-2.4257,-2.4257,-2.4266,-2.4284,-2.4294,-2.4294,-2.4294,-2.3628,-2.2953,-2.2547,-2.1765,-2.0936,-2.0136,-2.0048,-1.9897,-1.9538,-1.877,-1.8301,-1.8301,-1.7541,-1.691,-1.6527,-1.6508,-1.6113,-1.5279,-1.5271,-1.5295,-1.5295,-1.5295,-1.5483,-1.5819,-1.4994,-1.4305,0.0,0.0,0.0,0.0,0.0,0.0,0.0,0.0,-1.5372,-1.5583,-1.7176,-1.8631,-1.8939,-2.0136,-2.1506,-2.2784,-2.3271,-2.3953,-2.5335,-2.6209,-2.6696,-2.6716,-2.7511,-2.8327,-2.9034,-2.8338,-2.8191,-2.9056,-2.8301,-2.8176,-2.8991,-2.9005,-2.9005,-2.9005,-2.9017,-2.9028,-2.9028,-2.9187,-2.9272,-2.9272,-2.9272,-2.9272,-2.9272,-2.9113,-2.904,-2.9028,-2.9193,-2.918,-2.9108,-2.9277,-2.9293,-2.9189,-2.9134,-2.913,-2.9141,-2.9112,-2.9112,-2.9112,-2.9112,-2.9078,-2.904,-2.9028,-2.9028,-2.9017,-2.9005,-2.9017,-2.8881,-2.8231,-2.7949,-2.75,-2.6029,-2.5533,-2.5212,-2.4413,-2.422,-2.4229,-2.4284,-2.4294,-2.4294,-2.4321,-2.4321,-2.433,-2.4339,-2.4375,-2.4421,-2.4403,-2.382,-2.3321,-2.3206,-2.258,-2.1834,-2.1039,-2.0811,-2.0382,-1.9592,-1.892,-1.8544,-1.8544,-1.795,-1.7504,-1.7337,-1.7337,-1.7263,-1.7096,-1.7096,-1.7096,-1.7096,-1.7096,-1.7102,-1.7102,-1.7269,-1.683,-1.5173,-1.4412,-1.4057,-1.4741,-1.4985,-1.5379,0.0,0.0,-1.7452,-1.8712,-1.9177,-1.9793,-2.1243,-2.2226,-2.2865,-2.2976,-2.4257,-2.5317,-2.5541,-2.6222,-2.6718,-2.678,-2.8075,-2.8997,-2.9089,-2.8422,-2.8307,-2.9123,-2.8375,-2.825,-2.9041,-2.904,-2.9005,-2.9005,-2.9062,-2.9096,-2.9096,-2.9864,-3.0249,-3.0249,-3.0249,-3.0249,-3.0212,-2.9499,-2.9163,-2.9133,-2.9833,-2.9752,-2.9156,-2.9942,-2.9836,-2.92,-2.9189,-2.9229,-2.928,-2.9218,-2.9189,-2.9189,-2.9189,-2.9178,-2.9156,-2.9119,-2.9096,-2.9085,-2.9017,-2.9051,-2.9078,-2.8986,-2.8478,-2.7764,-2.6794,-2.6019,-2.5299,-2.4487,-2.4284,-2.4284,-2.4294,-2.4294,-2.4321,-2.4385,-2.4394,-2.4412,-2.4474,-2.4482,-2.4474,-2.4412,-2.4373,-2.4065,-2.3307,-2.3114,-2.2753,-2.1938,-2.116,-2.0389,-1.9657,-1.9509,-1.9453,-1.9453,-1.9367,-1.897,-1.8209,-1.8172,-1.7838,-1.7114,-1.7096,-1.7096,-1.7096,-1.7096,-1.7102,-1.712,-1.7825,-1.7693,-1.7507,-1.6788,-1.6208,-1.6561,-1.7035,-1.7692,-1.8735,-1.8915,-1.9286,-2.0761,-2.1373,-2.1858,-2.2483,-2.326,-2.3777,0.0,-2.4736,-2.5725,-2.6226,-2.6558,-2.6937,-2.7439,-2.7658,-2.7756,-2.7756,-2.7904,-2.8136,-2.8492,-2.813,-2.8272,-2.9108,-2.9078,-2.9085,-2.913,-2.9595,-2.9857,-2.9857,-3.0685,-3.1103,-3.1103,-3.1103,-3.1103,-3.1085,-3.0752,-3.0593,-3.0577,-3.0944,-3.0919,-3.0641,-3.1009,-3.0709,-3.0009,-2.9976,-2.972,-2.9355,-2.9272,-2.9251,-2.9251,-2.9251,-2.924,-2.9189,-2.9156,-2.9123,-2.9089,-2.91,-2.91,-2.9119,-2.9163,-2.8927,-2.8505,-2.7674,-2.6833,-2.6002,-2.5236,-2.4709,-2.4367,-2.4402,-2.4411,-2.442,-2.4456,-2.4456,-2.4465,-2.45,-2.45,-2.4491,-2.4465,-2.4482,-2.4361,-2.3991,-2.3954,-2.363,-2.2786,-2.1535,-2.0634,-2.0325,-1.9868,-1.9609,-1.9609,-1.9609,-1.9441,-1.9063,-1.9063,-1.8896,-1.8562,-1.8544,-1.8544,-1.8544,-1.8544,-1.8544,-1.8549,-1.8901,-1.8844,-1.8434,-1.8003,-1.7827,-1.8292,-1.8881,-1.9584,-2.0575,-2.0702,-2.0947,-2.2022,-2.2648,-2.2952,-2.2836,-2.3486,-2.3996,-2.3943,-2.5042,-2.606,-2.645,-2.6672,-2.6949,-2.7321,-2.6838,-2.6486,-2.6487,-2.7217,-2.7884,-2.8359,-2.8099,-2.8307,-2.9174,-2.9156,-2.9145,-2.92,-3.0006,-3.0442,-3.0442,-3.1453,-3.1982,-3.1982,-3.1982,-3.1982,-3.1982,-3.1749,-3.1626,-3.1644,-3.192,-3.1913,-3.1709,-3.1955,-3.16,-3.0939,-3.0884,-3.0394,-2.9731,-2.9678,-2.9519,-2.9334,-2.9334,-2.9312,-2.9262,-2.924,-2.9178,-2.9163,-2.9189,-2.9186,-2.9175,-2.9218,-2.9251,-2.9077,-2.8244,-2.7382,-2.655,-2.581,-2.5004,-2.4438,-2.4491,-2.45,-2.45,-2.45,-2.45,-2.45,-2.45,-2.45,-2.45,-2.45,-2.45,-2.45,-2.45,-2.45,-2.4175,-2.3295,-2.1959,-2.1031,-2.0808,-2.0073,-1.9609,-1.9609,-1.9609,-1.9609,-1.9609,-1.9609,-1.9609,-1.9609,-1.9609,-1.9609,-1.9609,-1.9609,-1.9609,-1.9609,-1.9609,-1.9557,-1.7026,-1.7125,-1.8113,-1.9804,-2.0184,-2.0578,-2.2158,-2.2521,-2.2484,-2.2405,-2.2407,-2.2363,-2.2158,-2.2787,-2.33,-2.3235,-2.5218,-2.6515,-2.582,-2.6348,-2.6533,-2.5838,-2.5681,-2.5672,0.0,-2.6461,-2.7613,-2.9229,-2.8518,-2.8384,-2.9246,-2.924,-2.9189,-2.92,-3.0039,-3.0506,-3.0506,-3.2119,-3.2953,-3.2953,-3.2953,-3.2953,-3.2934,-3.2066,-3.1709,-3.1747,-3.2524,-3.2413,-3.1777,-3.2614,-3.2488,-3.1756,-3.1756,-3.1273,-3.0567,-3.0567,-3.0065,-2.9396,-2.9396,-2.9396,-2.9386,-2.9323,-2.9302,-2.9272,-2.9229,-2.924,-2.9302,-2.9302,-2.9344,-2.9192,-2.8309,-2.7501,-2.6684,-2.5885,-2.5067,-2.45,-2.45,-2.45,-2.45,-2.45,-2.45,-2.45,-2.45,-2.45,-2.45,-2.45,-2.45,-2.45,-2.45,-2.45,-2.4175,-2.3295,-2.246,-2.1643,-2.0864,-2.0073,-1.9609,-1.9609,-1.9609,-1.9609,-1.9609,-1.9609,-1.9609,-1.9609,-1.9609,-1.9609,-1.9609,-1.9609,-1.9609,-1.9609,-1.9609,-1.9557,-1.9504,-1.9631,-1.9838,-2.1523,-2.1942,-2.2222,-2.3338,-2.3078,-2.2737,-2.3233,-2.2841,-2.2533,-2.3001,-2.2811,-2.2936,-2.4084,-2.5283,-2.62,-2.6569,-2.7242,-2.737,-2.6591,-2.6015,0.0,0.0,0.0,0.0,-2.8505,-2.874,-2.9008,-2.9347,-2.9294,-2.9283,-2.9326,-3.0654,-3.137,-3.137,-3.299,-3.3788,-3.3788,-3.3788,-3.3788,-3.3788,-3.3498,-3.3356,-3.3375,-3.3653,-3.3616,-3.3375,-3.3677,-3.3324,-3.2611,-3.2611,-3.2109,-3.1403,-3.1403,-3.1218,-3.0846,-2.9768,-2.9396,-2.9396,-2.9376,-2.9344,-2.9312,-2.9334,-2.9323,-2.9312,-2.9355,-2.9386,-2.9322,-2.9043,-2.8337,-2.7483,-2.6684,-2.5875,-2.515,-2.4611,-2.45,-2.45,-2.45,-2.45,-2.45,-2.45,-2.45,-2.45,-2.45,-2.45,-2.45,-2.45,-2.45,-2.4388,-2.4101,-2.3304,-2.2479,-2.1662,-2.0864,-2.0166,-1.9627,-1.9609,-1.9609,-1.9609,-1.9609,-1.9609,-1.9609,-1.9609,-1.9609,-1.9609,-1.9609,-1.9609,-1.9609,-1.9609,-1.9583,-2.0639,-2.0904,-2.1139,-2.2836,-2.3259,-2.3413,-2.3975,-2.3592,-2.3111,-2.2996,-2.2503,-2.2135,-2.2329,-2.2086,-2.2318,-2.3651,-2.4978,-2.6014,-2.653,-2.7522,-2.7774,-2.66,-2.6275,-2.633,0.0,0.0,0.0,-2.8542,-2.905,-2.9355,-2.9396,-2.9365,-2.9485,-2.9824,-3.1106,-3.1942,-3.224,-3.3528,-3.4197,-3.4197,-3.4197,-3.4197,-3.4197,-3.4197,-3.4197,-3.4197,-3.4197,-3.4197,-3.4197,-3.4197,-3.39,-3.3429,-3.3429,-3.2946,-3.224,-3.224,-3.2054,-3.1608,-3.0288,-2.9824,-2.9768,-2.9489,-2.9376,-2.9344,-2.9386,-2.9376,-2.9344,-2.9386,-2.9396,-2.9396,-2.9396,-2.8746,-2.7891,-2.7092,-2.6293,-2.5485,-2.4667,-2.45,-2.45,-2.45,-2.45,-2.45,-2.45,-2.45,-2.45,-2.45,-2.45,-2.45,-2.45,-2.45,-2.45,-2.45,-2.3721,-2.2998,-2.2479,-2.1421,-2.0585,-2.0073,-1.9757,-1.9609,-1.9609,-1.9609,-1.9609,-1.9609,-1.9609,-1.9609,-1.9609,-1.9609,-1.9609,-1.9609,-1.9609,-1.9757,-2.0462,-2.1038,-2.2043,-2.374,-2.4129,-2.411,-2.411,-2.4033,-2.349,-2.1793,-2.1408,-2.1095,-2.0216,-2.0652,-2.1407,-2.212,-2.4363,-2.5959,-2.5742,-2.7305,-2.779,0.0,0.0,0.0,0.0,0.0,0.0,-2.9351,0.0,-2.9396,-2.9396,-2.9434,-2.9805,-3.0586,-3.1422,-3.224,-3.299,-3.3788,-3.4197,-3.4197,-3.4197,-3.4197,-3.4197,-3.4197,-3.4197,-3.4197,-3.4197,-3.4197,-3.4197,-3.4197,-3.4197,-3.4197,-3.4197,-3.3733,-3.3057,-3.3057,-3.2593,-3.1812,-3.0995,-3.0697,-3.053,-2.9712,-2.9452,-2.9452,-2.9396,-2.9396,-2.9396,-2.9396,-2.9396,-2.9396,-2.9396,-2.8783,-2.7966,-2.7148,-2.6349,-2.554,-2.4741,-2.4537,-2.45,-2.45,-2.45,-2.45,-2.45,-2.4462,-2.4444,-2.4481,-2.4462,-2.4444,-2.4481,-2.45,-2.45,-2.45,-2.3766,-2.3256,-2.3219,-2.1826,-2.0916,-2.086,-2.0147,-1.9701,-1.9664,-1.9664,-1.9646,-1.9609,-1.9609,-1.9609,-1.9609,-1.9646,-1.9646,-1.9609,-1.9683,-2.011,-2.2778,-2.3278,-2.3682,-2.4736,-2.4548,-2.411,-2.411,-2.3105,-2.187,-2.0827,-2.0081,-1.9561,-1.9327,-1.9377,0.0,-2.2306,-2.4093,0.0,-2.5914,-2.7905,0.0,-2.6805,0.0,-2.7951,-2.7818,-2.8129,0.0,0.0,-2.9396,-2.9396,-2.9396,-2.9973,-3.0381,-3.0586,-3.1961,-3.2797,-3.3001,-3.3788,-3.4197,-3.4197,-3.4197,-3.4197,-3.4197,-3.4197,-3.4197,-3.4197,-3.4197,-3.4197,-3.4197,-3.4197,-3.4197,-3.4197,-3.4197,-3.4067,-3.3881,-3.3881,-3.3751,-3.3473,-3.2667,-3.1998,-3.1366,-3.0549,-3.0288,-3.0177,-2.9582,-2.9396,-2.9396,-2.9396,-2.9396,-2.9396,-2.9396,-2.9229,-2.8839,-2.8003,-2.7185,-2.6368,-2.5578,-2.4927,-2.45,-2.45,-2.45,-2.45,-2.45,-2.3962,-2.3758,-2.4407,-2.3944,-2.3776,-2.4425,-2.45,-2.45,-2.45,-2.4385,-2.4075,-2.3465,-2.306,-2.2536,-2.1887,-2.1552,-2.1124,-2.0511,-2.0493,-2.0214,-1.9609,-1.9609,-1.9609,-1.9609,-2.0196,-2.0184,-1.9627,-2.0827,-2.1179,-2.3841,-2.4356,-2.4736,-2.5192,-2.4697,-2.3898,-2.3124,-2.1927,-2.0639,-1.9408,-1.8776,-1.8434,-1.8434,-1.8682,-1.959,0.0,0.0,0.0,-2.6463,-2.7803,-2.8399,0.0,-2.8106,0.0,-2.8241,-2.8652,-2.9064,0.0,-2.9396,-2.9396,-2.9396,-3.0158,-3.0753,-3.1125,-3.2351,-3.3157,-3.3522,-3.3956,-3.4197,-3.4197,-3.4197,-3.4197,-3.4197,-3.4197,-3.4197,-3.4197,-3.4197,-3.4197,-3.4197,-3.4197,-3.4197,-3.4197,-3.4197,-3.4197,-3.4197,-3.4197,-3.4197,-3.4141,-3.3677,-3.3231,-3.2667,-3.1496,-3.1125,-3.0976,-3.0158,-2.9935,-2.9842,-2.9489,-2.9396,-2.9396,-2.9396,-2.9396,-2.9174,-2.8319,-2.7761,-2.7111,-2.5949,-2.5355,-2.4927,-2.4574,-2.45,-2.45,-2.45,-2.4101,-2.3814,-2.3906,-2.3832,-2.3814,-2.3925,-2.4317,-2.459,-2.459,-2.4715,-2.4605,-2.4141,-2.3745,-2.3295,-2.2807,-2.229,-2.1792,-2.1346,-2.1328,-2.1105,-2.066,-2.0641,-2.0641,-2.0641,-2.1105,-2.1087,-2.0678,-2.1588,-2.194,-2.4259,-2.4774,-2.5269,-2.5173,-2.4524,-2.3471,-2.1735,-2.0716,-1.9638,-1.7891,0.0,-1.7507,-1.7391,-1.8164,-1.9342,-2.0905,0.0,-2.4839,-2.6963,-2.7364,-2.7736,-2.8594,-2.855,-2.8495,-2.859,-2.9239,-2.9608,-2.949,-2.944,-2.9465,-2.9556,-3.0326,-3.118,-3.2091,-3.2797,-3.3503,-3.4179,-3.4197,-3.4197,-3.4197,-3.4197,-3.4197,-3.4197,-3.4197,-3.4197,-3.4197,-3.4197,-3.4197,-3.4197,-3.4197,-3.4197,-3.4197,-3.4197,-3.4197,-3.4197,-3.4197,-3.4197,-3.4197,-3.4197,-3.4197,-3.3956,-3.2462,-3.1961,-3.1794,-3.0883,-3.0604,-3.0437,-2.9619,-2.9396,-2.9396,-2.9396,-2.9396,-2.9211,-2.8449,-2.8189,-2.7687,-2.6182,-2.5689,-2.5336,-2.4648,-2.45,-2.45,-2.45,-2.4407,-2.4119,-2.3471,-2.383,-2.3996,-2.3467,-2.4164,-2.47,-2.47,-2.4832,-2.4935,-2.4935,-2.4162,-2.37,-2.37,-2.282,-2.229,-2.2202,-2.2202,-2.2162,-2.2073,-2.2073,-2.2073,-2.2073,-2.2166,-2.2166,-2.2073,-2.2297,-2.2699,-2.5096,-2.5192,-2.5135,-2.4471,-2.3663,-2.2586,-2.0885,-1.9831,0.0,0.0,-1.6718,-1.6484,-1.5769,-1.6888,-1.8481,-2.0207,-2.2515,-2.4677,-2.6333,-2.716,-2.7856,0.0,-2.8764,-2.9019,-2.9585,-2.9878,0.0,0.0,-2.9653,-2.9802,-3.0355,-3.1143,-3.2277,-3.3733,-3.3918,-3.4048,-3.4197,-3.4197,-3.4197,-3.4197,-3.4197,-3.4197,-3.4197,-3.4197,-3.4197,-3.4197,-3.4197,0.0,-3.4197,-3.4197,-3.4197,-3.4197,-3.4197,-3.4197,-3.4197,-3.4197,-3.4197,-3.4197,-3.4197,-3.4197,-3.403,-3.3113,-3.2797,-3.2518,-3.105,-3.0604,-3.0437,-2.9619,-2.9396,-2.9396,-2.9396,-2.9396,-2.9359,-2.9211,-2.8616,-2.7836,-2.6907,-2.5652,-2.4667,-2.4537,-2.45,-2.45,-2.45,-2.3906,-2.3619,-2.4194,-2.3324,-2.3045,-2.4286,-2.459,-2.47,-2.47,-2.4922,-2.508,-2.508,-2.4803,-2.4659,-2.4659,-2.4281,-2.3814,-2.3262,-2.3251,-2.2978,-2.2426,-2.2407,-2.2407,-2.2407,-2.3076,-2.3057,-2.2445,-2.3781,-2.4114,-2.5192,-2.5308,-2.5115,-2.4298,-2.3432,-2.2239,-2.0104,0.0,0.0,0.0,-1.583,-1.5695,-1.5288,-1.6234,0.0,-1.9354,-2.1027,-2.2987,-2.5485,-2.5706,-2.6434,-2.8651,-2.8491,-2.8687,-2.9893,-3.0066,-3.0044,-2.991,-2.9811,-2.985,-3.0073,-3.116,-3.2537,-3.4141,-3.4197,-3.4197,-3.4197,-3.4197,-3.4197,-3.4197,-3.4197,-3.4197,-3.4197,-3.4197,-3.4197,-3.4197,-3.4197,-3.4197,-3.4197,-3.4197,-3.4197,-3.4197,-3.4197,-3.4197,-3.4197,-3.4197,-3.4197,-3.4197,-3.4197,-3.4197,-3.4141,-3.3751,-3.3621,-3.3324,-3.1719,-3.1218,-3.0976,-2.9731,-2.9396,-2.9396,-2.9396,-2.9396,-2.9396,-2.9396,-2.8728,-2.7873,-2.7074,-2.5959,-2.5001,-2.4574,-2.45,-2.45,-2.45,-2.4156,-2.3903,-2.3964,-2.3708,-2.3502,-2.3512,-2.4331,-2.4915,-2.4915,-2.5091,-2.5198,-2.5198,-2.5086,-2.4993,-2.4993,-2.4818,-2.4554,-2.4231,-2.4238,-2.4083,-2.3771,-2.3752,-2.3752,-2.3752,-2.4144,-2.4125,-2.3771,-2.4529,-2.47,-2.4875,-2.5173,-2.5058,-2.4067,-2.3317,-2.2085,-1.9338,-1.8184,0.0,-1.5558,-1.5192,-1.5192,-1.5192,-1.5907,-1.7045,0.0,-1.9873,-2.1673,-2.4846,-2.4617,-2.5349,0.0,-2.8259,0.0,-3.0003,-3.0157,0.0,-3.0011,-3.0144,-3.0202,-3.0143,-3.1439,-3.2829,-3.4244,-3.4281,-3.4281,-3.4281,-3.4233,-3.4197,-3.4197,-3.4197,-3.4197,-3.4197,-3.4197,-3.4197,-3.4197,-3.4197,-3.4197,-3.4197,-3.4197,-3.4197,-3.4197,-3.4197,-3.4197,-3.4197,-3.4197,-3.4197,-3.4197,-3.4197,-3.4197,-3.4197,-3.4197,-3.4197,-3.39,-3.2295,-3.1794,-3.1459,-2.9842,-2.9396,-2.9396,-2.9396,-2.9396,-2.9396,-2.9396,-2.8728,-2.7929,-2.7297,-2.6386,-2.5522,-2.489,-2.4611,-2.45,-2.45,-2.4507,-2.4358,-2.3829,-2.4185,-2.415,-2.3113,-2.4081,-2.4881,-2.4881,-2.5128,-2.5308,-2.5308,-2.5176,-2.509,-2.509,-2.4962,-2.4915,-2.4948,-2.4929,-2.4961,-2.4994,-2.4994,-2.4994,-2.4994,-2.4994,-2.4994,-2.4994,-2.4994,-2.4994,-2.4186,-2.4736,-2.4923,-2.3312,-2.2855,-2.1932,-1.8584,0.0,-1.7218,-1.5558,-1.5192,-1.5192,-1.5192,-1.5907,-1.7045,-1.8722,0.0,-2.2308,-2.4923,-2.5221,-2.6144,-2.88,0.0,0.0,-3.0213,-3.0367,-3.0361,-3.0349,-3.0917,-3.1445,-3.1842,-3.2864,-3.3779,-3.4542,-3.4561,-3.4561,-3.4561,-3.4316,-3.4197,-3.4197,-3.4197,-3.4197,-3.4197,-3.4197,-3.4197,-3.4197,-3.4197,-3.4197,0.0,-3.4197,-3.4197,-3.4197,-3.4197,-3.4197,-3.4197,-3.4197,-3.4197,-3.4197,-3.4197,-3.4197,-3.4197,-3.4197,-3.4197,-3.39,-3.2295,-3.1794,-3.1459,-2.9842,-2.9396,-2.9396,-2.9396,-2.9396,-2.9396,-2.9396,-2.8728,-2.8077,-2.8003,-2.6776,-2.5689,-2.5596,-2.5001,-2.45,-2.45,-2.4607,-2.4665,-2.4606,-2.4194,-2.4114,-2.4767,-2.4469,-2.4192,-2.4192,-2.4865,-2.5308,-2.5308,-2.5176,-2.509,-2.509,-2.4962,-2.4942,-2.5086,-2.5072,-2.5143,-2.5259,-2.5259,-2.5259,-2.5259,-2.5259,-2.5259,-2.5259,-2.5259,-2.5259,-2.3242,-2.3583,-2.3505,-2.2312,-2.2023,-2.1254,-1.8353,0.0,-1.7218,-1.5558,-1.5192,-1.5192,-1.5192,-1.5481,-1.6272,-1.7949,-1.8776,-2.01,-2.2654,-2.3466,-2.4736,-2.7294,-2.7775,0.0,0.0,0.0,-3.0404,-3.0404,-3.065,-3.1271,-3.2345,-3.3154,-3.3961,-3.4753,-3.4781,-3.4781,-3.4781,-3.4662,-3.462,-3.462,-3.4498,-3.4498,-3.4609,-3.4487,-3.445,-3.445,-3.445,-3.434,0.0,-3.4197,-3.4197,-3.4197,-3.4197,-3.4197,-3.4221,-3.4374,-3.445,-3.4461,-3.4586,-3.462,-3.462,-3.462,-3.4271,-3.3588,-3.2206,-3.1459,-3.0846,-2.9712,-2.9396,-2.9396,-2.9396,-2.9396,-2.9396,-2.9396,-2.9118,-2.8746,-2.8207,-2.7222,-2.6312,-2.5906,-2.5165,-2.4645,-2.4727,-2.4794,-2.4847,-2.4935,-2.4732,-2.4558,-2.4518,-2.4692,-2.4639,-2.4149,-2.4812,-2.5096,-2.462,-2.4965,-2.5228,-2.5228,-2.5165,-2.516,-2.5228,-2.5228,-2.5248,-2.5303,-2.5308,-2.5308,-2.5308,-2.5308,-2.5308,-2.5308,-2.5308,-2.5308,-2.2304,-2.2674,-2.2619,-2.1752,-2.1501,-2.0831,0.0,-1.7699,-1.7218,-1.5558,-1.5192,-1.5192,-1.5192,-1.5192,-1.5673,-1.7103,-1.7757,-1.8873,-2.1177,-2.2466,-2.4028,0.0,0.0,-2.8179,0.0,-3.025,-3.0404,-3.0404,-3.0635,-3.1341,-3.262,-3.3382,-3.415,-3.4963,-3.4992,-3.4992,-3.4992,-3.4936,-3.4908,-3.4908,-3.4761,-3.4771,-3.4908,-3.4761,-3.4689,-3.4689,-3.4689,-3.4575,0.0,-3.4401,-3.4401,-3.4401,-3.4401,-3.4401,-3.4424,-3.4626,-3.4689,-3.471,-3.486,-3.4908,-3.4851,-3.4595,-3.3942,-3.3034,-3.1933,-3.1204,-3.0569,-2.9774,-2.9511,-2.9441,-2.9417,-2.9396,-2.9396,-2.9396,-2.9396,-2.9229,-2.8616,-2.7884,-2.713,-2.6412,-2.564,-2.5084,-2.4926,-2.4923,-2.4981,-2.5097,-2.5138,-2.4995,-2.4519,-2.4947,-2.4981,-2.4187,-2.4812,-2.5077,-2.4509,-2.4755,-2.5058,-2.5288,-2.5308,-2.5308,-2.5308,-2.5308,-2.5308,-2.5308,-2.5308,-2.5308,-2.5308,-2.5308,-2.5308,-2.5308,-2.5308,-2.5308,-2.1483,-2.2298,-2.2696,-2.1826,-2.154,-2.0831,-1.8276,-1.7699,-1.7218,-1.5558,-1.5192,-1.5192,-1.5192,-1.5192,-1.5481,-1.6369,-1.7895,-1.9569,-2.1254,-2.299,-2.4702,0.0,0.0,-2.7274,-2.8953,-2.989,-3.0404,-3.0404,-3.1192,0.0,-3.2852,-3.3718,-3.4496,-3.5171,-3.5201,-3.5201,-3.5201,-3.5001,-3.4908,-3.4908,-3.4908,-3.4908,-3.4908,-3.4908,-3.4908,-3.4908,-3.4908,-3.4908,0.0,-3.4879,-3.4879,-3.4879,-3.4879,-3.4879,-3.4879,-3.4908,-3.4908,-3.4908,-3.4908,-3.4908,-3.4756,-3.3885,-3.307,-3.2246,-3.1366,-3.1101,-3.093,-3.0113,-2.976,-2.958,-2.944,-2.9396,-2.9396,-2.9396,-2.9396,-2.9407,-2.9388,-2.8858,-2.8124,-2.7254,-2.659,-2.5908,-2.506,-2.5,-2.5109,-2.509,-2.5203,-2.5303,-2.5288,-2.5288,-2.4981,-2.4187,-2.4812,-2.5308,-2.5288,-2.4567,-2.4452,-2.525,-2.5308,-2.5308,-2.5308,-2.5308,-2.5308,-2.5308,-2.5308,-2.5308,-2.5308,-2.5308,-2.5308,-2.5308,-2.5308,-2.5308,-1.9209,-1.9698,-2.0084,-1.9223,-1.8993,-1.8603,-1.7203,-1.6888,-1.6568,-1.5432,-1.5192,-1.5192,-1.5192,-1.5192,-1.5673,-1.7083,-1.7776,0.0,0.0,0.0,0.0,-2.6409,-2.8135,-2.9404,0.0,0.0,-3.0404,-3.0404,-3.0654,-3.1173,-3.2025,-3.2852,-3.3948,-3.5352,-3.541,-3.541,-3.541,-3.5339,-3.5316,-3.5316,-3.5157,-3.5185,-3.5316,-3.5176,-3.5107,-3.5107,-3.5107,-3.5028,-3.4908,-3.4908,-3.4908,-3.4908,-3.4908,-3.4908,-3.4927,-3.5054,-3.5107,-3.5124,-3.5258,-3.5316,-3.5163,-3.4282,-3.342,-3.2584,-3.1754,-3.0929,-3.021,-2.9818,-2.9653,-2.9561,-2.944,-2.9471,-2.9522,-2.9419,-2.9471,-2.9512,-2.9409,-2.8876,-2.8356,-2.8156,-2.7163,-2.6282,-2.6098,-2.5601,-2.5238,-2.5238,-2.5269,-2.5308,-2.5308,-2.5308,-2.5192,-2.4947,-2.4653,-2.4235,-2.3639,-2.4409,-2.4779,-2.4489,-2.499,-2.5317,-2.5361,-2.5317,-2.5308,-2.5308,-2.5308,-2.5308,-2.5308,-2.5308,-2.5308,-2.5308,-2.5308,-2.5308,-1.7822,-1.8285,-1.8526,-1.7977,-1.7823,-1.7587,-1.6735,-1.6522,-1.6267,-1.5411,-1.5229,-1.5192,-1.5192,-1.5192,-1.5538,-1.658,-1.7295,-1.8488,0.0,0.0,0.0,-2.6851,0.0,0.0,0.0,-3.0212,-3.0404,-3.0404,-3.0404,-3.0788,-3.166,-3.2179,-3.3237,-3.4968,-3.5327,-3.55,-3.55,-3.55,-3.55,-3.55,-3.5369,-3.5369,-3.55,-3.5361,-3.5316,-3.5316,-3.5316,-3.5242,0.0,-3.5124,-3.5124,-3.5124,-3.5124,-3.5124,-3.5132,-3.5266,-3.5316,-3.5331,-3.5465,-3.55,-3.5308,-3.4103,-3.291,-3.1872,-3.1365,-3.0623,-2.9931,-2.9758,-2.9697,-2.9681,-2.9512,-2.9598,-2.9689,-2.9617,-2.9654,-2.9689,-2.9608,-2.9303,-2.899,-2.8753,-2.7771,-2.6885,-2.6643,-2.5885,-2.5308,-2.5308,-2.5308,-2.5313,-2.5322,-2.5346,-2.5351,-2.5337,-2.4893,-2.4246,-2.3362,-2.4244,-2.4629,-2.4137,-2.4874,-2.5216,-2.4922,-2.5168,-2.5,-2.4365,-2.4678,-2.4851,-2.4851,-2.5154,-2.5308,-2.5288,-2.4981,-2.4851,0.0,-1.7672,-1.7612,-1.7555,-1.7543,-1.7314,-1.6507,-1.6379,0.0,-1.5381,-1.5204,-1.5217,-1.5288,-1.5231,-1.5269,-1.5442,-1.6772,-1.843,0.0,-2.272,0.0,0.0,-2.8703,0.0,-2.9184,-2.9929,-3.0404,-3.0404,-3.0404,-3.075,-3.1564,-3.1679,-3.241,-3.3975,-3.4872,-3.5365,-3.55,-3.55,-3.55,-3.55,-3.55,-3.55,-3.55,-3.55,-3.55,0.0,-3.55,-3.55,-3.55,-3.55,-3.55,-3.55,-3.55,-3.55,-3.55,-3.55,-3.55,-3.55,-3.55,-3.55,-3.5212,-3.3468,-3.1775,-3.0404,-3.0404,-3.026,-3.0095,-2.9939,-2.9918,-2.9878,-2.9662,-2.9777,-2.991,-2.9902,-2.991,-2.991,-2.9902,-3.0007,-2.9879,-2.9127,-2.8439,-2.7717,-2.6832,-2.5962,-2.5365,-2.5327,-2.5313,-2.5322,-2.5394,-2.5398,-2.5407,-2.5406,-2.5391,-2.5044,-2.4175,-2.4098,-2.4086,-2.4017,-2.4777,-2.485,-2.4061,-2.4736,-2.4389,-2.284,-2.359,-2.4014,-2.4014,-2.4755,-2.5115,-2.5096,-2.4356,-2.4033,-1.4679,0.0,-1.4848,-1.4225,-1.4532,-1.4756,0.0,-1.4708,-1.5393,-1.4491,0.0,-1.5465,-1.607,-1.5654,-1.5849,-1.7795,-1.8434,-1.953,-2.1874,0.0,0.0,-2.8665,-2.9563,-3.0096,-3.0096,-3.0288,-3.0404,-3.0404,-3.0404,-3.05,-3.0692,-3.1346,-3.1891,-3.2275,-3.3083,-3.4154,-3.5481,-3.55,-3.55,-3.55,-3.55,-3.55,-3.55,-3.55,-3.55,-3.55,-3.55,-3.55,-3.55,-3.55,-3.55,-3.55,-3.55,-3.55,-3.55,-3.55,-3.55,-3.55,-3.55,-3.55,-3.5212,-3.3468,-3.1775,-3.0404,-3.0404,-3.0361,-3.0292,-3.0121,-3.0059,-3.0022,-2.9878,-2.9939,-3.003,-2.9926,-2.9969,-3.0022,-2.9926,-3.0007,-3.0032,-2.986,-2.9282,-2.8569,-2.7736,-2.6867,-2.6087,-2.5461,-2.5379,-2.5373,-2.5402,-2.5402,-2.5406,-2.541,-2.5404,-2.5065,-2.4258,-2.4126,-2.3832,-2.3223,-2.333,-2.3345,-2.3199,-2.3304,-2.3229,-2.2874,-2.3039,-2.3103,-2.3105,-2.3297,-2.3389,-2.337,-2.3182,-2.3451,-1.3313,-1.4405,-1.5186,-1.4757,-1.4971,-1.5164,-1.4706,0.0,0.0,0.0,0.0,-1.5435,-1.5868,-1.5871,-1.638,-1.8129,-1.9065,0.0,0.0,0.0,-2.8607,-2.905,-2.9871,-3.0404,0.0,-3.0404,-3.0404,-3.0404,-3.0404,-3.0404,-3.0404,-3.0846,-3.1288,-3.1698,-3.2122,-3.3179,-3.4891,-3.4911,-3.5096,-3.55,-3.5084,-3.4911,-3.4891,-3.4487,-3.4308,-3.4308,-3.4308,-3.4308,-3.4308,-3.4308,-3.4545,-3.4911,-3.4911,-3.5154,-3.55,-3.55,-3.55,-3.55,-3.55,-3.4981,-3.4154,-3.3218,-3.1775,-3.0404,-3.0404,-3.0404,-3.0361,-3.0169,-3.0109,-3.0068,-3.0007,-3.0121,-3.0221,-3.0147,-3.0188,-3.0221,-3.0147,-3.0188,-3.0241,-3.0241,-2.9613,-2.8978,-2.8566,-2.7435,-2.6468,-2.6063,-2.5652,-2.5395,-2.5404,-2.5404,-2.5408,-2.5436,-2.5448,-2.5259,-2.4838,-2.4401,-2.3953,-2.3512,-2.3809,-2.3839,-2.3477,-2.3426,-2.3047,-2.2316,-2.2269,-2.2242,-2.2249,-2.265,-2.3035,-2.3386,-2.302,-2.3289,-1.3042,-1.5051,-1.6767,-1.626,-1.62,-1.6278,-1.6142,0.0,0.0,0.0,0.0,0.0,0.0,-1.6341,0.0,0.0,0.0,0.0,-2.5058,-2.7467,-2.8953,-2.9088,-2.9871,0.0,-3.0404,-3.0404,-3.0404,-3.0404,-3.0404,-3.0404,-3.0404,-3.0404,-3.0731,-3.1487,-3.1506,-3.2256,-3.3801,-3.3936,-3.4372,-3.5096,-3.4353,-3.3994,-3.3975,-3.3237,-3.2891,-3.2891,-3.2891,0.0,-3.2891,-3.2891,-3.3333,-3.3994,-3.3994,-3.4526,-3.5308,-3.5308,-3.5385,-3.5481,-3.5346,-3.4257,-3.2872,-3.2756,-3.1679,-3.0404,-3.0404,-3.0404,-3.0361,-3.0196,-3.0143,-3.0143,-3.0143,-3.0267,-3.0404,-3.0404,-3.0404,-3.0404,-3.0404,-3.0404,-3.0404,-3.039,-2.98,-2.9272,-2.9203,-2.7975,-2.6983,-2.6915,-2.6152,-2.5597,-2.5595,-2.5483,-2.5433,-2.5488,-2.5507,-2.5507,-2.5507,-2.4811,-2.4397,-2.4405,-2.479,-2.4701,-2.3944,-2.3929,-2.3195,-2.1629,-2.1729,-2.1729,-2.1609,-2.247,-2.3241,-2.3905,-2.3211,-2.3327,-1.4783,-1.6382,-1.7102,-1.4212,-1.3996,-1.4327,-1.3645,0.0,0.0,0.0,0.0,0.0,0.0,-1.8123,-1.9188,0.0,0.0,-2.4182,0.0,0.0,-2.8338,-2.9011,0.0,-3.0404,-3.0404,-3.0404,-3.0404,-3.0404,-3.0404,-3.0404,-3.0404,-3.0404,-3.0462,-3.0596,-3.0596,-3.1077,-3.2064,-3.2756,-3.316,-3.3295,-3.316,-3.3103,-3.3103,-3.2968,-3.2891,-3.2891,0.0,-3.2891,-3.2891,-3.2891,-3.2987,-3.3103,-3.3103,-3.3622,-3.4398,-3.4398,-3.4872,-3.5385,-3.4661,-3.3737,-3.2795,-3.2102,-3.1212,-3.0404,-3.0404,-3.0404,-3.0398,-3.0361,-3.0355,-3.0355,-3.0355,-3.0386,-3.0404,-3.0404,-3.0404,-3.0404,-3.0404,-3.0404,-3.039,-3.04,-3.029,-2.9993,-2.9312,-2.9023,-2.8632,-2.7903,-2.7052,-2.6504,-2.6504,-2.5909,-2.5488,-2.5507,-2.5507,-2.5507,-2.5507,-2.534,-2.524,-2.529,-2.4038,-2.323,-2.3095,-2.3087,-2.2627,-2.1629,-2.2319,-2.2342,-2.1609,-2.2478,-2.296,-2.3076,-2.296,-2.3327,-1.5154,-1.5973,-1.6323,-1.5229,-1.5949,-1.6689,-1.5851,0.0,0.0,0.0,0.0,0.0,0.0,0.0,-1.9781,-2.1852,0.0,-2.5717,-2.6486,-2.7717,-2.8684,0.0,0.0,-3.0404,-3.0404,-3.0404,-3.0404,-3.0404,-3.0404,-3.0404,-3.0404,-3.0404,-3.0404,-3.0404,-3.0404,-3.0596,-3.0981,-3.1365,-3.2006,-3.2891,-3.2468,-3.2256,-3.2237,-3.1756,-3.1538,-3.1538,0.0,-3.1538,-3.1538,-3.1538,-3.1833,-3.2256,-3.2256,-3.2756,-3.3545,-3.4032,-3.4757,-3.5442,-3.5045,-3.4026,-3.2833,-3.2468,-3.1462,-3.0404,-3.0404,-3.0404,-3.0404,-3.0404,-3.0404,-3.0404,-3.0404,-3.0404,-3.041,-3.0408,-3.0394,-3.0419,-3.0455,-3.0461,-3.0442,-3.0458,-3.0444,-3.0334,-2.9974,-2.9564,-2.9149,-2.8762,-2.7959,-2.7232,-2.6764,-2.6377,-2.5971,-2.5546,-2.5507,-2.5507,-2.5507,-2.546,-2.5456,-2.5452,-2.4722,-2.4084,-2.3609,-2.3608,-2.3183,-2.2318,-2.2692,-2.2692,-2.2299,-2.2704,-2.3145,-2.3589,-2.3589,-2.4053,-1.5467,-1.5701,-1.5857,-1.652,-1.7552,-1.8368,-1.8329,-1.7997,0.0,0.0,0.0,0.0,0.0,-1.9949,0.0,-2.3068,-2.5042,-2.6376,-2.6563,-2.7871,-2.8896,-2.9088,-2.9871,-3.0404,-3.0404,-3.0404,-3.0404,-3.0404,-3.0404,-3.0404,-3.0404,-3.0404,-3.0404,-3.0404,-3.0404,-3.0404,-3.0404,-3.0404,-3.1038,-3.2314,-3.1698,-3.141,-3.1365,-3.0692,-3.0404,-3.0404,-3.0404,-3.0404,-3.0404,-3.0404,-3.0788,-3.141,-3.141,-3.191,-3.2756,-3.3821,-3.4622,-3.5173,-3.4962,-3.4026,-3.2833,-3.2449,-3.1442,-3.0404,-3.0404,-3.0404,-3.0404,-3.0404,-3.0404,-3.0404,-3.0404,-3.0404,-3.039,-3.0406,-3.0398,-3.0422,-3.0499,-3.0504,-3.0504,-3.049,-3.049,-3.05,-3.052,-3.0004,-2.9607,-2.9592,-2.8861,-2.8064,-2.7383,-2.7131,-2.6687,-2.5874,-2.5778,-2.57,-2.5526,-2.5507,-2.5484,-2.5429,-2.546,-2.5201,-2.4525,-2.4505,-2.4099,-2.3213,-2.3403,-2.3403,-2.3194,-2.3403,-2.3848,-2.4505,-2.4505,-2.4853,-1.6367,-1.6601,-1.662,-1.6679,-1.6189,0.0,-1.866,-1.7957,0.0,-1.888,0.0,0.0,0.0,-2.2321,-2.4211,-2.5077,-2.5376,-2.576,-2.6496,0.0,-2.8261,-2.9011,-2.9871,-3.0404,-3.0404,-3.0404,-3.0404,-3.0404,-3.0404,-3.0404,-3.0404,-3.0404,-3.0404,-3.0404,-3.0404,-3.0404,-3.0404,-3.0404,-3.0462,-3.0577,-3.0519,-3.05,-3.05,-3.0423,-3.0404,-3.0404,-3.0404,-3.0404,-3.0404,-3.0404,-3.0442,-3.05,-3.05,-3.1019,-3.1987,-3.3609,-3.4244,-3.4186,-3.3372,-3.3006,-3.2641,-3.1096,-3.05,-3.0404,-3.0404,-3.0404,-3.0404,-3.0404,-3.0404,-3.0404,-3.0404,-3.0404,-3.039,-3.0406,-3.0398,-3.0422,-3.0499,-3.0504,-3.0509,-3.051,-3.0491,-3.052,-3.0569,-3.0535,-3.052,-3.0501,-2.9766,-2.919,-2.9128,-2.8416,-2.7561,-2.6706,-2.6605,-2.6319,-2.5565,-2.5507,-2.5507,-2.5488,-2.5507,-2.5468,-2.541,-2.541,-2.5008,-2.4118,-2.4892,-2.4911,-2.4118,-2.4931,-2.5356,-2.541,-2.541,-2.543,-1.5644,-1.5898,-1.6015,-1.6562,-1.6854,0.0,0.0,-1.8821,-1.9466,-2.0678,-2.0756,0.0,0.0,0.0,-2.5029,-2.4752,-2.5104,-2.5708,-2.6543,-2.6944,-2.7658,-2.8994,-2.9453,-2.9872,-3.0418,-3.0431,-3.0404,-3.0404,-3.0404,-3.0404,-3.0404,-3.0404,-3.0404,-3.0404,-3.0404,-3.0404,-3.0404,-3.0404,-3.0404,-3.0404,-3.0404,-3.0404,-3.0404,-3.0404,-3.0404,-3.0404,-3.0404,-3.0404,-3.0404,-3.0404,-3.0404,-3.0404,-3.0404,-3.0923,-3.1775,-3.241,-3.2968,-3.3333,-3.3006,-3.2564,-3.2045,-3.1404,-3.0846,-3.0404,-3.0404,-3.0396,-3.0394,-3.0394,-3.0431,-3.0455,-3.0416,-3.0404,-3.0416,-3.0453,-3.0463,-3.0479,-3.054,-3.055,-3.0554,-3.0559,-3.0564,-3.0564,-3.0598,-3.0598,-3.0598,-3.0598,-3.0327,-2.9901,-2.9364,-2.9016,-2.8474,-2.76,-2.7015,-2.659,-2.6281,-2.5797,-2.5507,-2.5507,-2.5507,-2.5507,-2.5507,-2.5507,-2.5333,-2.5008,-2.5333,-2.5337,-2.5008,-2.5337,-2.5507,-2.5507,-2.5507,-2.5507,-1.4824,-1.5195,-1.5605,-1.6484,0.0,0.0,-1.8356,-1.9547,-2.0915,-2.2047,-2.2029,-2.2048,-2.288,0.0,0.0,0.0,-2.5128,-2.5664,-2.6237,-2.6556,-2.7156,-2.8314,-2.8693,-2.91,-2.9685,-2.9931,-3.005,-3.0018,-3.0287,-3.0425,-3.0404,-3.0404,-3.0404,-3.0404,-3.0404,-3.0404,-3.0404,-3.0404,-3.041,-3.0402,-3.0402,-3.0396,-3.0404,-3.0404,-3.0404,-3.0404,-3.0404,-3.0404,-3.0404,-3.0404,-3.041,-3.0402,-3.0402,-3.0768,-3.1326,-3.1607,-3.2057,-3.2526,-3.2519,-3.2153,-3.1653,-3.1383,-3.0908,-3.0439,-3.0439,-3.0431,-3.0433,-3.0433,-3.0469,-3.0493,-3.045,-3.0439,-3.045,-3.0485,-3.0495,-3.0525,-3.0588,-3.0598,-3.0598,-3.0598,-3.0598,-3.0598,-3.0598,-3.0598,-3.0598,-3.0598,-3.0598,-3.0385,-2.9785,-2.9708,-2.9384,-2.8494,-2.7638,-2.6996,-2.6721,-2.6203,-2.5778,-2.5526,-2.5507,-2.5507,-2.5507,-2.5507,-2.5507,-2.5507,-2.5507,-2.5507,-2.5507,-2.5507,-2.5507,-2.5507,-2.5507,-2.5507,-1.4101,-1.4746,-1.5605,0.0,0.0,0.0,-1.9101,-1.9999,-2.1092,-2.2753,-2.3808,-2.4668,-2.5527,-2.5683,0.0,-2.5605,-2.5597,-2.5577,-2.5515,-2.6237,-2.6795,-2.6799,-2.755,-2.8094,-2.8094,-2.8812,-2.9268,-2.9181,-2.9993,-3.0452,-3.0396,-3.0385,-3.0385,-3.0404,-3.0404,-3.0404,-3.0404,-3.0404,-3.0402,-3.0398,-3.0398,-3.04,-3.0404,-3.0404,-3.0404,-3.0404,-3.0404,-3.0404,-3.0404,-3.0404,-3.0402,-3.0398,-3.0398,-3.0398,-3.0513,-3.1364,-3.1688,-3.1685,-3.1696,-3.1688,-3.1553,-3.0687,-3.0458,-3.0504,-3.0504,-3.0504,-3.0504,-3.0504,-3.0504,-3.0504,-3.0504,-3.0504,-3.0509,-3.0491,-3.0496,-3.052,-3.0593,-3.0598,-3.0598,-3.0598,-3.0598,-3.0598,-3.0598,-3.0598,-3.0598,-3.0598,-3.0598,-3.0598,-3.0598,-3.0598,-3.0269,-2.9399,-2.8533,-2.7658,-2.6803,-2.6702,-2.6358,-2.5565,-2.5507,-2.5507,-2.5507,-2.5507,-2.5507,-2.5507,-2.5507,-2.5507,-2.5507,-2.5507,-2.5507,-2.5507,-2.5507,-2.5507,-1.4101,-1.4746,0.0,-1.7246,0.0,0.0,0.0,-2.0898,0.0,0.0,-2.4316,-2.5215,-2.4844,-2.5293,0.0,-2.5661,-2.563,-2.5593,-2.5574,-2.5784,-2.6172,-2.6792,-2.7098,-2.7502,-2.8108,-2.8343,-2.8443,-2.842,-2.8673,-2.9054,-2.9598,-2.9634,-2.9911,-3.052,-3.0495,-3.0477,-3.0477,-3.0477,-3.0458,-3.0469,-3.0469,-3.0463,-3.0477,-3.0477,-3.0477,-3.0477,-3.0477,-3.0477,-3.0477,-3.0477,-3.0463,-3.0469,-3.0469,-3.0469,-3.0507,-3.0769,-3.0854,-3.0863,-3.0854,-3.0854,-3.0816,-3.0546,-3.0474,-3.0504,-3.0504,-3.0495,-3.0505,-3.0505,-3.052,-3.0579,-3.0579,-3.0579,-3.0554,-3.052,-3.0496,-3.052,-3.0593,-3.0598,-3.0598,-3.0598,-3.0598,-3.0598,-3.0598,-3.0598,-3.0598,-3.0598,-3.0598,-3.0598,-3.0598,-3.0598,-3.0501,-3.023,-2.9437,-2.8799,-2.8548,-2.7402,-2.6605,-2.6358,-2.5816,-2.5507,-2.5507,-2.5507,-2.5507,-2.5507,-2.5507,-2.5507,-2.5507,-2.5507,-2.5507,-2.5507,-2.5507,-2.5507,-1.4003,-1.498,0.0,-1.7656,-1.8652,-1.9629,-2.084,0.0,0.0,0.0,-2.5,-2.5547,-2.5019,-2.5352,0.0,-2.5703,-2.5661,-2.5635,-2.5631,-2.5649,-2.5824,-2.6369,-2.6424,-2.6636,-2.7164,-2.7475,-2.7647,-2.7625,-2.7936,-2.8337,-2.8801,-2.913,-2.954,-3.0074,-3.0375,-3.0525,-3.0504,-3.0504,-3.0509,-3.0495,-3.0495,-3.05,-3.0535,-3.0514,-3.0504,-3.0504,-3.0504,-3.0504,-3.0504,-3.0504,-3.0509,-3.0495,-3.0495,-3.0495,-3.05,-3.053,-3.0519,-3.0504,-3.0495,-3.0495,-3.0495,-3.0495,-3.0525,-3.0535,-3.0535,-3.0545,-3.053,-3.053,-3.0564,-3.0598,-3.0598,-3.0598,-3.0593,-3.0554,-3.053,-3.0554,-3.0593,-3.0598,-3.0598,-3.0598,-3.0598,-3.0598,-3.0598,-3.0598,-3.0598,-3.0598,-3.0598,-3.0598,-3.0598,-3.0598,-3.0598,-3.0598,-3.0133,-2.9669,-2.9326,-2.8335,-2.7596,-2.7232,-2.6768,-2.6497,-2.6497,-2.5859,-2.5507,-2.5507,-2.5507,-2.5507,-2.5507,-2.5507,-2.5507,-2.5507,-2.5507,-2.5507,-1.3983,0.0,0.0,-1.7988,-1.8887,0.0,-2.1543,-2.2578,-2.3652,-2.5254,0.0,-2.5703,-2.5703,-2.5703,-2.5703,-2.5703,-2.5703,-2.5703,-2.5703,-2.5703,-2.5702,-2.5701,-2.57,-2.57,-2.57,-2.6422,-2.6865,-2.6799,-2.7521,-2.7973,-2.8001,-2.8699,-2.9117,-2.9202,-3.0036,-3.0464,-3.0409,-3.0477,-3.052,-3.052,-3.0511,-3.054,-3.0598,-3.053,-3.0509,-3.0509,-3.0509,-3.0509,-3.0509,-3.0509,-3.05,-3.052,-3.052,-3.052,-3.052,-3.0588,-3.055,-3.0514,-3.051,-3.052,-3.052,-3.052,-3.0554,-3.0598,-3.0598,-3.0598,-3.0598,-3.0598,-3.0598,-3.0598,-3.0598,-3.0598,-3.0598,-3.0598,-3.0598,-3.0598,-3.0598,-3.0598,-3.0598,-3.0598,-3.0598,-3.0598,-3.0598,-3.0598,-3.0598,-3.0598,-3.0598,-3.0598,-3.0598,-3.0598,-3.0598,-3.0598,-3.0598,-3.0288,-2.9495,-2.9345,-2.8958,-2.8165,-2.8049,-2.7991,-2.7991,-2.6459,-2.5604,-2.5604,-2.5546,-2.5507,-2.5507,-2.5507,-2.5507,-2.5507,-2.5507,-2.5507,-1.4875,-1.5897,0.0,0.0,-2.0703,-2.1445,-2.1816,-2.2539,-2.3418,-2.4453,-2.5215,-2.5703,-2.5703,-2.5703,-2.5703,-2.5703,-2.5703,-2.5703,-2.5703,-2.5703,-2.5703,-2.5703,-2.5703,-2.5703,-2.5703,-2.5879,-2.5976,-2.5955,-2.6131,-2.654,-2.7201,-2.7359,-2.7732,-2.8408,-2.9233,-2.9651,-2.9633,-3.0322,-3.0628,-3.0588,-3.0586,-3.0586,-3.0598,-3.0588,-3.0583,-3.0583,-3.0583,-3.0583,-3.0583,-3.0583,-3.0583,-3.0588,-3.0588,-3.0588,-3.0588,-3.0598,-3.0593,-3.0583,-3.0588,-3.0588,-3.0588,-3.0588,-3.0593,-3.0598,-3.0598,-3.0598,-3.0598,-3.0598,-3.0598,-3.0598,-3.0598,-3.0598,-3.0598,-3.0598,-3.0598,-3.0598,-3.0598,-3.0598,-3.0598,-3.0598,-3.0598,-3.0598,-3.0598,-3.0598,-3.0598,-3.0598,-3.0598,-3.0598,-3.0598,-3.0598,-3.0598,-3.0598,-3.0598,-3.052,-3.0346,-2.9689,-2.9229,-2.9035,-2.8378,-2.7991,-2.7991,-2.7,-2.6435,-2.6435,-2.5816,-2.5507,-2.5507,-2.5507,-2.5507,-2.5507,-2.5507,-2.5507,0.0,0.0,0.0,-2.0058,0.0,-2.1289,-2.1289,-2.1914,-2.2656,-2.3105,-2.4531,-2.5703,-2.5703,-2.5703,-2.5703,-2.5703,-2.5703,-2.5703,-2.5703,-2.5703,-2.5703,-2.5703,-2.5703,-2.5703,-2.5703,-2.5703,-2.5703,-2.5703,-2.5703,-2.5898,-2.6348,-2.6736,-2.7138,-2.7557,-2.8382,-2.9015,-2.9391,-2.9854,-3.0269,-3.0648,-3.0649,-3.0646,-3.0648,-3.0604,-3.0598,-3.0598,-3.0598,-3.0598,-3.0598,-3.0598,-3.0598,-3.0598,-3.0598,-3.0598,-3.0598,-3.0598,-3.0598,-3.0598,-3.0598,-3.0598,-3.0598,-3.0598,-3.0598,-3.0598,-3.0598,-3.0598,-3.0598,-3.0598,-3.0598,-3.0598,-3.0598,-3.0598,-3.0598,-3.0598,-3.0598,-3.0598,-3.0598,-3.0598,-3.0598,-3.0598,-3.0598,-3.0598,-3.0598,-3.0598,-3.0598,-3.0598,-3.0598,-3.0598,-3.0598,-3.0598,-3.0598,-3.0598,-3.0598,-3.0598,-3.0598,-3.0172,-2.9921,-2.9921,-2.9495,-2.9248,-2.9248,-2.8412,-2.7755,-2.7329,-2.6904,-2.6691,-2.6691,-2.6281,-2.6068,-2.6068,-2.5681,-2.5507,0.0,0.0,-1.8371,-1.9959,-2.0468,0.0,-2.0586,-2.1269,-2.1894,-2.1894,-2.3809,-2.5488,-2.5488,-2.5605,-2.5703,-2.5703,-2.5703,-2.5703,-2.5703,-2.5703,-2.5703,-2.5703,-2.5703,-2.5703,-2.5703,-2.5703,-2.5703,-2.5703,-2.5703,-2.5703,-2.5703,-2.6387,-2.6756,-2.6684,-2.7544,-2.8313,-2.8959,-2.9123,-2.955,-3.0258,-3.0397,-3.0553,-3.0706,-3.0622,-3.0606,-3.0601,-3.0607,-3.0598,-3.0598,-3.0598,-3.0598,-3.0598,-3.0598,-3.0598,-3.0598,-3.0598,-3.0598,-3.0598,-3.0598,-3.0598,-3.0598,-3.0598,-3.0598,-3.0598,-3.0598,-3.0598,-3.0598,-3.0598,-3.0598,-3.0598,-3.0598,-3.0598,-3.0598,-3.0598,-3.0598,-3.0598,-3.0598,-3.0598,-3.0598,-3.0598,-3.0598,-3.0598,-3.0598,-3.0598,-3.0598,-3.0598,-3.0598,-3.0598,-3.0598,-3.0598,-3.0598,-3.0598,-3.0598,-3.0598,-3.0598,-3.0598,-3.0598,-3.0598,-3.0598,-3.0598,-3.0598,-2.9901,-2.919,-2.8455,-2.8146,-2.7991,-2.7991,-2.729,-2.6919,-2.6919,-2.6242,-2.5936,0.0,0.0,-1.8154,0.0,-1.9942,-2.0518,0.0,0.0,-2.1894,0.0,-2.332,-2.457,-2.457,-2.5195,-2.5703,-2.5703,-2.5703,-2.5703,-2.5703,-2.5703,-2.5703,-2.5703,-2.5703,-2.5703,-2.5703,-2.5703,-2.5703,-2.5703,-2.5703,-2.5703,-2.5703,-2.5801,-2.5879,-2.5859,-2.6718,-2.7183,-2.7238,-2.804,-2.8443,-2.8457,-2.9201,-2.9966,-3.0709,-3.0639,-3.0598,-3.0595,-3.0595,-3.0598,-3.0598,-3.0598,-3.0598,-3.0598,-3.0598,-3.0598,-3.0598,-3.0598,-3.0598,-3.0598,-3.0598,-3.0598,-3.0598,-3.0598,-3.0598,-3.0598,-3.0598,-3.0598,-3.0598,-3.0598,-3.0598,-3.0598,-3.0598,-3.0598,-3.0598,-3.0598,-3.0598,-3.0598,-3.0598,-3.0598,-3.0598,-3.0598,-3.0598,-3.0598,-3.0598,-3.0598,-3.0598,-3.0598,-3.0598,-3.0598,-3.0598,-3.0598,-3.0598,-3.0598,-3.0598,-3.0598,-3.0598,-3.0598,-3.0598,-3.0598,-3.0598,-3.0598,-3.0598,-3.0482,-3.0366,-3.025,-2.8765,-2.7991,-2.7991,-2.7875,-2.7836,-2.7817,-2.772,-2.7662,-1.4289,-1.562,-1.6921,0.0,-1.9496,-1.9898,-2.0396,0.0,-2.113,-2.1152,-2.2148,-2.3281,-2.4238,-2.4707,-2.5137,-2.5625,-2.5703,-2.5703,-2.5703,-2.5703,-2.5703,-2.5703,-2.5703,-2.5703,-2.5703,-2.5703,-2.5703,-2.5703,-2.5703,-2.5703,-2.5703,-2.5703,-2.5703,-2.5703,-2.6074,-2.6484,-2.6949,-2.7363,-2.7791,-2.8227,-2.8562,-2.9208,-3.0083,-2.9988,-3.0163,-3.059,-3.06,-3.0598,-3.0598,-3.0598,-3.0598,-3.0598,-3.0598,-3.0598,-3.0598,-3.0598,-3.0598,-3.0598,-3.0598,-3.0598,-3.0598,-3.0598,-3.0598,-3.0598,-3.0598,-3.0598,-3.0598,-3.0598,-3.0598,-3.0598,-3.0598,-3.0598,-3.0598,-3.0598,-3.0598,-3.0598,-3.0598,-3.0598,-3.0598,-3.0598,-3.0598,-3.0598,-3.0598,-3.0598,-3.0598,-3.0598,-3.0598,-3.0598,-3.0598,-3.0598,-3.0598,-3.0598,-3.0598,-3.0598,-3.0598,-3.0598,-3.0598,-3.0598,-3.0598,-3.0598,-3.0598,-3.0598,-3.0598,-3.0598,-2.9843,-2.9457,-2.9457,-2.8977,-2.8726,-2.8726,-2.8223,-2.7991,0.0,0.0,-1.5653,-1.8217,-1.902,-1.9422,0.0,0.0,-2.0514,0.0,-2.1093,-2.1992,-2.3496,-2.4102,-2.4609,-2.5254,-2.5566,-2.5703,-2.5703,-2.5703,-2.5703,-2.5703,-2.5703,-2.5703,-2.5703,-2.5703,-2.5703,-2.5703,-2.5703,-2.5703,-2.5703,-2.5703,-2.5703,-2.5703,-2.5703,-2.6016,-2.666,-2.668,-2.7109,-2.7969,-2.7924,-2.8374,-2.9277,-2.9386,-2.963,-3.0013,-3.0428,-3.0595,-3.0595,-3.0607,-3.0592,-3.0595,-3.0607,-3.0598,-3.0598,-3.0598,-3.0598,-3.0598,-3.0598,-3.0598,-3.0598,-3.0598,-3.0598,-3.0598,-3.0598,-3.0598,-3.0598,-3.0598,-3.0598,-3.0598,-3.0598,-3.0598,-3.0598,-3.0598,-3.0598,-3.0598,-3.0598,-3.0598,-3.0598,-3.0598,-3.0598,-3.0598,-3.0598,-3.0598,-3.0598,-3.0598,-3.0598,-3.0598,-3.0598,-3.0598,-3.0598,-3.0598,-3.0598,-3.0598,-3.0598,-3.0598,-3.0598,-3.0598,-3.0598,-3.0598,-3.0598,-3.0598,-3.0598,-3.0598,-3.0598,-3.0598,-3.0598,-2.994,-2.9631,-2.9611,-2.8958,-2.8668,0.0,-1.4063,0.0,-1.7243,0.0,0.0,0.0,0.0,-2.049,-2.0494,-2.0536,-2.0872,-2.1855,-2.332,-2.4414,-2.4453,-2.5156,-2.5703,-2.5703,-2.5703,-2.5703,-2.5703,-2.5703,-2.5703,-2.5703,-2.5703,-2.5703,-2.5703,-2.5703,-2.5703,-2.5703,-2.5703,-2.5703,-2.5703,-2.5703,-2.5723,-2.5762,-2.5762,-2.6211,-2.707,-2.7051,-2.7519,-2.8398,-2.9149,-2.9078,-2.8409,-2.9941,-3.0609,-3.0602,-3.0595,-3.0593,-3.0602,-3.0595,-3.0598,-3.0598,-3.0598,-3.0598,-3.0598,-3.0598,-3.0598,-3.0598,-3.0598,-3.0598,-3.0598,-3.0598,-3.0598,-3.0598,-3.0598,-3.0598,-3.0598,-3.0598,-3.0598,-3.0598,-3.0598,-3.0598,-3.0598,-3.0598,-3.0598,-3.0598,-3.0598,-3.0598,-3.0598,-3.0598,-3.0598,-3.0598,-3.0598,-3.0598,-3.0598,-3.0598,-3.0598,-3.0598,-3.0598,-3.0598,-3.0598,-3.0598,-3.0598,-3.0598,-3.0598,-3.0598,-3.0598,-3.0598,-3.0598,-3.0598,-3.0598,-3.0598,-3.0598,-3.0598,-3.0559,-3.052,-3.052,-3.0482,-3.0462,0.0,0.0,0.0,-1.5823,-1.7251,-1.8533,-1.942,-2.0044,-2.0455,-2.0489,-2.0496,-2.0595,-2.0936,-2.1988,-2.2969,-2.3477,-2.4297,-2.4863,-2.4863,-2.5352,-2.5703,-2.5703,-2.5703,-2.5703,-2.5703,-2.5703,-2.5703,-2.5703,-2.5703,-2.5703,-2.5703,-2.5703,-2.5703,-2.5703,-2.5703,-2.5703,-2.5703,-2.5703,-2.5859,-2.6172,-2.6172,-2.6621,-2.748,-2.7753,-2.802,-2.8239,-2.8801,-2.936,-2.9875,-3.0422,-3.0661,-3.0653,-3.0621,-3.0621,-3.0659,-3.061,-3.0625,-3.0665,-3.0665,-3.0665,-3.0665,-3.0665,-3.0665,-3.0665,-3.0665,-3.0665,-3.0665,-3.0665,-3.0665,-3.0665,-3.0665,-3.0628,-3.0595,-3.0592,-3.0598,-3.0598,-3.0598,-3.0598,-3.0598,-3.0598,-3.0598,-3.0598,-3.0598,-3.0598,-3.0598,-3.0598,-3.0598,-3.0598,-3.0598,-3.0598,-3.0598,-3.0598,-3.0598,-3.0598,-3.0598,-3.0598,-3.0598,-3.0598,-3.0598,-3.0598,-3.0598,-3.0598,-3.0598,-3.0598,-3.0598,-3.0598,-3.0598,-3.0598,-3.0598,-3.0598,-3.0598,-3.0598,-1.1468,0.0,0.0,0.0,0.0,-1.7357,-1.8823,0.0,-1.9981,-2.0046,-2.0287,-2.0466,-2.0497,-2.1016,-2.1695,-2.2537,-2.3397,-2.3964,-2.3984,-2.4473,-2.4941,-2.5234,-2.5254,-2.5371,-2.5664,-2.5703,-2.5703,-2.5703,-2.5703,-2.5703,-2.5703,-2.5703,-2.5703,-2.5703,-2.5703,-2.5703,-2.5703,-2.5703,-2.5703,-2.5703,-2.5703,-2.5996,-2.6562,-2.6875,-2.7128,-2.7393,-2.7979,-2.8689,-2.9478,-3.0031,-3.0445,-3.0726,-3.0656,-3.0656,-3.0687,-3.0647,-3.0659,-3.0709,-3.0709,-3.0709,-3.0709,-3.0709,-3.0709,-3.0709,-3.0709,-3.0709,-3.0709,-3.0709,-3.0709,-3.0709,-3.0709,-3.0664,-3.0639,-3.0626,-3.0634,-3.0634,-3.0634,-3.0623,-3.0598,-3.0598,-3.0598,-3.0598,-3.0598,-3.0598,-3.0598,-3.0598,-3.0598,-3.0598,-3.0598,-3.0598,-3.0598,-3.0598,-3.0598,-3.0598,-3.0598,-3.0598,-3.0598,-3.0598,-3.0598,-3.0598,-3.0598,-3.0598,-3.0598,-3.0598,-3.0598,-3.0598,-3.0598,-3.0598,-3.0598,-3.0598,-3.0598,-3.0598,0.0,0.0,0.0,0.0,0.0,0.0,-1.8425,0.0,-1.9065,-1.916,-1.9813,-2.0392,-2.0471,-2.0497,-2.0761,-2.1625,-2.2488,-2.3079,-2.3144,-2.3125,-2.3418,-2.4258,-2.4355,-2.4687,-2.5547,-2.5644,-2.5664,-2.5664,-2.5684,-2.5703,-2.5703,-2.5703,-2.5703,-2.5703,-2.5703,-2.5703,-2.5703,-2.5703,-2.5703,-2.5703,-2.5703,-2.5703,-2.5723,-2.6582,-2.6504,-2.5781,-2.748,-2.8688,-2.9432,-2.942,-2.9934,-3.076,-3.0728,-3.0694,-3.0713,-3.0694,-3.0694,-3.0713,-3.0713,-3.0713,-3.0713,-3.0713,-3.0713,-3.0713,-3.0713,-3.0713,-3.0713,-3.0713,-3.0713,-3.0713,-3.0691,-3.0691,-3.0691,-3.0691,-3.0709,-3.0709,-3.0709,-3.0651,-3.0607,-3.0607,-3.0607,-3.0607,-3.0607,-3.0602,-3.0602,-3.0602,-3.0598,-3.0598,-3.0598,-3.0598,-3.0598,-3.0598,-3.0598,-3.0598,-3.0598,-3.0598,-3.0598,-3.0598,-3.0598,-3.0598,-3.0598,-3.0598,-3.0598,-3.0598,-3.0598,-3.0598,-3.0598,-3.0598,-3.0598,-3.0598,-3.0598,-3.0598,-1.158,0.0,0.0,0.0,0.0,0.0,0.0,0.0,-1.7587,-1.8869,-1.93,-1.9655,-2.0316,-2.0435,-2.0514,-2.0743,-2.1554,-2.2177,-2.2183,-2.2703,-2.3198,-2.3432,-2.3456,-2.3574,-2.3867,-2.4414,-2.4766,0.0,-2.5332,-2.5703,-2.5703,-2.5703,-2.5703,-2.5703,-2.5703,-2.5703,-2.5703,-2.5703,-2.5703,-2.5703,-2.5703,-2.5703,-2.5703,-2.5957,-2.5937,-2.5723,-2.6211,-2.6894,-2.7791,-2.9038,-2.9703,-2.9998,-3.0547,-3.0803,-3.0833,-3.0798,-3.0803,-3.0834,-3.0834,-3.0834,-3.0834,-3.0834,-3.0834,-3.0834,-3.0834,-3.0834,-3.0834,-3.0834,-3.0834,-3.0832,-3.0776,-3.077,-3.0764,-3.0717,-3.0709,-3.0709,-3.0709,-3.0686,-3.0661,-3.0661,-3.0661,-3.0661,-3.0661,-3.0639,-3.0599,-3.0599,-3.0604,-3.0598,-3.0598,-3.0598,-3.0598,-3.0598,-3.0598,-3.0598,-3.0598,-3.0598,-3.0598,-3.0598,-3.0598,-3.0598,-3.0598,-3.0598,-3.0598,-3.0598,-3.0598,-3.0598,-3.0598,-3.0598,-3.0598,-3.0598,-3.0598,-3.0598,-1.2265,-1.3287,0.0,0.0,0.0,0.0,-1.5587,-1.6133,-1.68,0.0,-1.8614,-1.9133,-1.9299,-1.9918,-2.0279,-1.9914,-2.0629,-2.1225,-2.1258,-2.1688,-2.2146,-2.2518,-2.2551,-2.2713,-2.3123,-2.3574,-2.3867,-2.3867,-2.4668,-2.5312,-2.5684,-2.5703,-2.5703,-2.5703,-2.5703,-2.5703,-2.5703,-2.5703,-2.5703,-2.5703,-2.5703,-2.5703,-2.5703,-2.5703,-2.5703,-2.5703,-2.5703,-2.5996,-2.6562,-2.7949,-2.8945,-2.9687,-3.0524,-3.0877,-3.0898,-3.0856,-3.0877,-3.0898,-3.0898,-3.0898,-3.0898,-3.0898,-3.0898,-3.0898,-3.0898,-3.0898,-3.0898,-3.0898,-3.0898,-3.0898,-3.0855,-3.0833,-3.0831,-3.0799,-3.0777,-3.0777,-3.0777,-3.0777,-3.0768,-3.0717,-3.0709,-3.0709,-3.0709,-3.0664,-3.0639,-3.0639,-3.0642,-3.0633,-3.0633,-3.0622,-3.0602,-3.0602,-3.0601,-3.0598,-3.0598,-3.0598,-3.0598,-3.0598,-3.0598,-3.0598,-3.0598,-3.0598,-3.0598,-3.0598,-3.0598,-3.0598,-3.0598,-3.0598,-3.0598,-3.0598,-3.0598,-3.0598,-1.3525,-1.3757,0.0,-1.5063,-1.4745,0.0,-1.5929,-1.6298,-1.6403,0.0,-1.7763,-1.8608,-1.7924,-1.9064,-1.9854,-1.9084,-1.9683,-2.0305,-2.0476,-2.049,-2.0787,-2.1551,-2.1654,-2.1959,-2.2743,-2.2908,-2.2969,-2.2969,-2.3769,-2.459,-2.5371,-2.5508,-2.5566,-2.5566,-2.5644,-2.5703,-2.5703,-2.5703,-2.5703,-2.5703,-2.5703,-2.5703,-2.5703,-2.5703,-2.5703,-2.5703,-2.5703,-2.5703,-2.5762,-2.6641,-2.7969,-2.9531,-3.043,-3.0801,-3.0898,-3.0898,-3.0898,-3.0898,-3.0898,-3.0898,-3.0898,-3.0898,-3.0898,-3.0898,-3.0898,-3.0898,-3.0898,-3.0898,-3.0898,-3.0898,-3.0898,-3.0898,-3.0898,-3.0898,-3.0898,-3.0898,-3.0898,-3.0898,-3.0857,-3.0758,-3.0724,-3.0724,-3.0724,-3.072,-3.0717,-3.0717,-3.0694,-3.0709,-3.0709,-3.0645,-3.0607,-3.0607,-3.0603,-3.0606,-3.0597,-3.0597,-3.0592,-3.0598,-3.0598,-3.0598,-3.0598,-3.0598,-3.0598,-3.0598,-3.0598,-3.0598,-3.0598,-3.0598,-3.0598,-3.0598,-3.0598,-3.0598,-1.5855,-1.6356,-1.6683,-1.5503,-1.5602,0.0,-1.464,-1.4951,-1.5652,0.0,-1.678,-1.7169,-1.7699,-1.8088,-1.8242,-1.8088,-1.8776,-1.959,-2.0319,-2.0425,-2.0472,-2.0649,-2.0724,-2.083,-2.0983,-2.1632,-2.2086,-2.2129,-2.2891,-2.3437,-2.3594,-2.4277,-2.4648,-2.4648,-2.5332,-2.5703,-2.5703,-2.5703,-2.5703,-2.5703,-2.5703,-2.5703,-2.5703,-2.5703,-2.5703,-2.5703,-2.5703,-2.5703,-2.5762,-2.6641,-2.7617,-2.8633,-2.9512,-3.0273,-3.0898,-3.0898,-3.0898,-3.0898,-3.0898,-3.0898,-3.0898,-3.0898,-3.0898,-3.0898,-3.0898,-3.0898,-3.0898,-3.0898,-3.0898,-3.0898,-3.0898,-3.0898,-3.0898,-3.0898,-3.0898,-3.0898,-3.0898,-3.0898,-3.0898,-3.0877,-3.0857,-3.0857,-3.0857,-3.0826,-3.0773,-3.0773,-3.0732,-3.0709,-3.0709,-3.0682,-3.0675,-3.0675,-3.0684,-3.0655,-3.0598,-3.0591,-3.0603,-3.0602,-3.0598,-3.0598,-3.0598,-3.0598,-3.0598,-3.0598,-3.0598,-3.0598,-3.0598,-3.0598,-3.0598,-3.0598,-3.0598,-3.0598,-1.7215,-1.7391,-1.7507,-1.6657,-1.6465,0.0,0.0,-1.5195,-1.5451,-1.6328,-1.6504,-1.6636,-1.7072,-1.7519,-1.7808,-1.7808,-1.8174,-1.8763,-1.9626,-2.0133,-2.0394,-2.0394,-2.0424,-2.0441,-2.0458,-2.0884,-2.135,-2.1813,-2.2224,-2.2635,-2.3086,-2.3555,-2.3984,-2.4394,-2.4824,-2.5254,-2.5703,-2.5703,-2.5703,-2.5703,-2.5703,-2.5703,-2.5703,-2.5703,-2.5703,-2.5703,-2.5703,-2.5703,-2.5723,-2.6172,-2.6875,-2.7773,-2.9082,-2.9863,-3.0293,-3.0742,-3.0898,-3.0898,-3.0898,-3.0898,-3.0898,-3.0898,-3.0898,-3.0898,-3.0898,-3.0898,-3.0898,-3.0898,-3.0898,-3.0898,-3.0898,-3.0898,-3.0898,-3.0898,-3.0898,-3.0898,-3.0898,-3.0898,-3.0898,-3.0898,-3.0898,-3.0898,-3.0898,-3.0877,-3.0855,-3.0855,-3.0828,-3.0803,-3.0803,-3.077,-3.0758,-3.0758,-3.0722,-3.0699,-3.065,-3.0647,-3.0652,-3.0655,-3.0655,-3.0637,-3.0595,-3.0591,-3.0608,-3.0598,-3.0598,-3.0598,-3.0598,-3.0598,-3.0598,-3.0598,-3.0598,-3.0598,-1.8869,-1.868,-1.8565,-1.8065,0.0,-1.7064,0.0,0.0,0.0,-1.6135,-1.6248,-1.6245,0.0,0.0,0.0,-1.7298,0.0,0.0,0.0,-1.9352,0.0,-1.9896,-2.0045,-2.0155,-2.0165,-2.0225,-2.0549,-2.1253,-2.1316,-2.1693,-2.2558,-2.2812,-2.3242,-2.3906,-2.4238,-2.4746,-2.5449,-2.5625,-2.5703,-2.5703,-2.5703,-2.5703,-2.5703,-2.5703,-2.5703,-2.5703,-2.5703,-2.5703,-2.5703,-2.5703,-2.6113,-2.6914,-2.8476,-2.9297,-2.9687,-3.0391,-3.0762,-3.0898,-3.0898,-3.0898,-3.0898,-3.0898,-3.0898,-3.0898,-3.0898,-3.0898,-3.0898,-3.0898,-3.0898,-3.0898,-3.0898,-3.0898,-3.0898,-3.0898,-3.0898,-3.0898,-3.0898,-3.0898,-3.0898,-3.0898,-3.0898,-3.0898,-3.0898,-3.0898,-3.0898,-3.0898,-3.0898,-3.0898,-3.0898,-3.0855,-3.0827,-3.0827,-3.077,-3.0732,-3.0724,-3.0722,-3.0717,-3.0691,-3.0709,-3.0669,-3.062,-3.0617,-3.0628,-3.0617,-3.0617,-3.0617,-3.0617,-3.0617,-3.0615,-3.0598,-3.0598,-3.0602,0.0,0.0,0.0,0.0,-1.9354,-1.9077,-1.6042,0.0,-1.6157,-1.5487,0.0,0.0,0.0,0.0,0.0,0.0,0.0,0.0,-1.6771,-1.7555,-1.8091,-1.8108,-1.878,-1.9275,-1.9325,-1.9349,-1.9391,-1.9492,-1.9554,-1.9934,-2.0753,-2.1581,-2.209,-2.2187,-2.3633,-2.4453,-2.4551,-2.5312,-2.5703,-2.5703,-2.5703,-2.5703,-2.5703,-2.5703,-2.5703,-2.5703,-2.5703,-2.5703,-2.5703,-2.5703,-2.5762,-2.5937,-2.6914,-2.8242,-2.9609,-2.9707,-3.0234,-3.0898,-3.0898,-3.0898,-3.0898,-3.0898,-3.0898,-3.0898,-3.0898,-3.0898,-3.0898,-3.0898,-3.0898,-3.0898,-3.0898,-3.0898,-3.0898,-3.0898,-3.0898,-3.0898,-3.0898,-3.0898,-3.0898,-3.0898,-3.0898,-3.0898,-3.0898,-3.0898,-3.0898,-3.0898,-3.0898,-3.0898,-3.0898,-3.0898,-3.0898,-3.0898,-3.0878,-3.0855,-3.0799,-3.0796,-3.0765,-3.0694,-3.0709,-3.0706,-3.0682,-3.0682,-3.0697,-3.0691,-3.0691,-3.0691,-3.0691,-3.0691,-3.0652,-3.0598,-3.0598,-3.0592,0.0,0.0,0.0,0.0,0.0,-1.8911,-1.6503,-1.5849,-1.5792,-1.5926,0.0,0.0,0.0,0.0,0.0,0.0,-1.5848,0.0,0.0,0.0,-1.6673,-1.7685,0.0,0.0,-1.9084,-1.9149,-1.9154,-1.92,-1.9239,-1.9419,-1.9776,-2.062,-2.1346,-2.1875,-2.2578,-2.3418,-2.4394,-2.4766,-2.5195,-2.5703,-2.5703,-2.5703,-2.5703,-2.5703,-2.5703,-2.5703,-2.5703,-2.5703,-2.5703,-2.5703,-2.5703,-2.5742,-2.6094,-2.7305,-2.8906,-2.9414,-3.0156,-3.0898,-3.0898,-3.0898,-3.0898,-3.0898,-3.0898,-3.0898,-3.0898,-3.0898,-3.0898,-3.0898,-3.0898,-3.0898,-3.0898,-3.0898,-3.0898,-3.0898,-3.0898,-3.0898,-3.0898,-3.0898,-3.0898,-3.0898,-3.0898,-3.0898,-3.0898,-3.0898,-3.0898,-3.0898,-3.0898,-3.0898,-3.0898,-3.0898,-3.0898,-3.0898,-3.0898,-3.0898,-3.0856,-3.0856,-3.0854,-3.0827,-3.0774,-3.0764,-3.0764,-3.0724,-3.0709,-3.0709,-3.0709,-3.0709,-3.0709,-3.0709,-3.0686,-3.0652,-3.0652,-3.0656,-2.2574,0.0,0.0,0.0,-1.9584,-1.8724,-1.6612,-1.6003,-1.6003,-1.6426,0.0,0.0,0.0,0.0,0.0,0.0,0.0,-1.5463,0.0,-1.5193,0.0,0.0,0.0,0.0,0.0,-1.8385,-1.8405,-1.8467,-1.8488,-1.8721,-1.9235,-1.985,-2.0579,-2.1483,-2.1777,-2.2598,-2.4023,-2.4277,-2.4844,-2.5703,-2.5703,-2.5703,-2.5703,-2.5703,-2.5703,-2.5703,-2.5703,-2.5703,-2.5703,-2.5703,-2.5703,-2.5703,-2.5703,-2.6777,-2.8379,-2.9004,-2.9941,-3.0898,-3.0898,-3.0898,-3.0898,-3.0898,-3.0898,-3.0898,-3.0898,-3.0898,-3.0898,-3.0898,-3.0898,-3.0898,-3.0898,-3.0898,-3.0898,-3.0898,-3.0898,-3.0898,-3.0898,-3.0898,-3.0898,-3.0898,-3.0898,-3.0898,-3.0898,-3.0898,-3.0898,-3.0898,-3.0898,-3.0898,-3.0898,-3.0898,-3.0898,-3.0898,-3.0898,-3.0898,-3.0898,-3.0898,-3.0898,-3.0898,-3.0855,-3.0829,-3.0829,-3.0774,-3.0744,-3.0744,-3.0744,-3.0744,-3.0744,-3.0744,-3.0744,-3.0742,-3.0722,-3.0691,0.0,-2.3165,-2.2983,-1.9663,-1.942,-1.9143,-1.5959,-1.6484,-1.7411,-1.666,-1.7779,-1.8626,0.0,0.0,0.0,0.0,0.0,0.0,0.0,0.0,0.0,0.0,0.0,0.0,0.0,-1.6582,-1.6571,-1.6593,-1.6646,-1.7416,-1.91,-1.9289,-1.9719,-2.0516,-2.1424,-2.2305,-2.3125,-2.3984,-2.4844,-2.5703,-2.5703,-2.5703,-2.5703,-2.5703,-2.5703,-2.5703,-2.5703,-2.5703,-2.5703,-2.5703,-2.5703,-2.5703,-2.5703,-2.6777,-2.8301,-2.832,-2.9434,-3.0898,-3.0898,-3.0898,-3.0898,-3.0898,-3.0898,-3.0898,-3.0898,-3.0898,-3.0898,-3.0898,-3.0898,-3.0898,-3.0898,-3.0898,-3.0898,-3.0898,-3.0898,-3.0898,-3.0898,-3.0898,-3.0898,-3.0898,-3.0898,-3.0898,-3.0898,-3.0898,-3.0898,-3.0898,-3.0898,-3.0898,-3.0898,-3.0898,-3.0898,-3.0898,-3.0898,-3.0898,-3.0898,-3.0898,-3.0898,-3.0898,-3.0898,-3.0898,-3.0898,-3.0898,-3.0898,-3.0898,-3.0898,-3.0898,-3.0898,-3.0898,-3.0898,-3.0898,-3.0765,-3.0694,-2.2478,-2.3214,-2.3307,-2.0912,-2.0251,-1.9594,-1.7244,-1.722,-1.7314,-1.5926,-1.743,-1.8568,0.0,0.0,0.0,0.0,0.0,0.0,0.0,0.0,0.0,0.0,0.0,0.0,0.0,0.0,-1.6734,-1.7313,-1.7371,-1.7893,-1.9068,-1.9708,-2.0164,-2.0494,-2.0816,-2.1636,-2.3017,-2.3329,-2.4194,-2.563,-2.563,-2.5656,-2.5702,-2.5702,-2.5702,-2.5702,-2.5702,-2.5702,-2.5702,-2.5703,-2.5703,-2.5703,-2.5703,-2.6777,-2.8301,-2.8301,-2.9394,-3.0898,-3.0898,-3.0898,-3.0898,-3.0898,-3.0898,-3.0898,-3.0898,-3.0898,-3.0898,-3.0898,-3.0898,-3.0898,-3.0898,-3.0898,-3.0898,-3.0898,-3.0898,-3.0898,-3.0898,-3.0898,-3.0898,-3.0898,-3.0898,-3.0898,-3.0898,-3.0898,-3.0898,-3.0898,-3.0898,-3.0898,-3.0898,-3.0898,-3.0898,-3.0898,-3.0898,-3.0898,-3.0898,-3.0898,-3.0898,-3.0898,-3.0898,-3.0898,-3.0898,-3.0898,-3.0898,-3.0898,-3.0898,-3.0898,-3.0898,-3.0898,-3.0898,-3.0898,-3.0855,-3.0832,-2.1437,-2.242,-2.2866,-2.1041,-2.0826,-2.0423,-1.8013,-1.802,-1.8087,-1.6394,-1.7837,-1.9154,-1.8423,0.0,0.0,0.0,0.0,0.0,0.0,-1.3582,0.0,0.0,0.0,0.0,0.0,0.0,-1.6083,-1.7256,-1.7045,-1.7518,0.0,-1.9617,-2.0091,-2.0449,-2.0462,-2.1284,-2.2972,-2.2991,-2.3867,-2.5591,-2.5591,-2.5645,-2.57,-2.57,-2.57,-2.57,-2.57,-2.57,-2.57,-2.5701,-2.5702,-2.5702,-2.5702,-2.6776,-2.83,-2.8301,-2.9394,-3.0898,-3.0877,-3.0878,-3.0898,-3.0898,-3.0898,-3.0898,-3.0877,-3.0878,-3.0898,-3.0877,-3.0878,-3.0898,-3.0898,-3.0898,-3.0898,-3.0898,-3.0898,-3.0898,-3.0898,-3.1133,-3.1367,-3.1367,-3.1367,-3.1367,-3.1367,-3.1113,-3.0898,-3.0898,-3.0898,-3.0898,-3.0898,-3.0898,-3.0898,-3.0898,-3.0898,-3.0898,-3.0898,-3.0898,-3.0898,-3.0898,-3.0898,-3.0898,-3.0898,-3.0898,-3.0898,-3.0898,-3.0898,-3.0898,-3.0898,-3.0898,-3.0898,-3.0898,-3.0898,-3.0898]},{"header":{"parameterUnit":"m.s-1","parameterCategory":1,"la1":30.6,"la2":29.2853,"lo1":-89.7004,"lo2":-87.6739,"dy":0.0162,"dx":0.0183,"nx":112,"ny":82,"refTime":"2026-04-14T00:00:00:Z","depth":0,"parameterNumber":3,"parameterNumberName":"V-component_of_WINDS"},"data":[0.0,0.0,0.0,0.0,0.0,0.0,0.0,0.0,0.0,0.0,0.0,0.0,0.0,0.0,0.0,0.0,0.0,0.0,0.0,0.0,0.0,0.0,0.0,0.0,0.0,0.0,0.0,0.0,0.0,0.0,0.0,0.0,0.0,0.0,0.0,0.0,0.0,0.0,0.0,0.0,0.0,0.0,0.0,0.0,0.0,0.0,0.0,0.0,0.0,0.0,0.0,0.0,0.0,0.0,0.0,0.0,0.0,0.0,0.0,0.0,0.0,0.0,0.0,0.0,0.0,0.0,0.0,0.0,0.0,0.0,0.0,0.0,0.0,0.0,0.0,0.0,0.0,0.0,0.0,0.0,0.0,0.0,0.0,0.0,0.0,0.0,0.0,0.0,0.0,0.0,-0.6589,-0.7872,-0.9023,-0.9556,-0.9216,-0.9069,-0.8553,-0.7467,0.0,0.0,0.0,0.0,0.0,0.0,0.0,0.0,0.0,0.0,0.0,0.0,0.0,0.0,0.0,0.0,0.0,0.0,0.0,0.0,0.0,0.0,0.0,0.0,0.0,0.0,0.0,0.0,0.0,0.0,0.0,0.0,0.0,0.0,0.0,0.0,0.0,0.0,0.0,0.0,0.0,0.0,0.0,0.0,0.0,0.0,0.0,0.0,0.0,0.0,0.0,0.0,0.0,0.0,0.0,0.0,0.0,0.0,0.0,0.0,0.0,0.0,0.0,0.0,0.0,0.0,0.0,0.0,0.0,0.0,0.0,0.0,0.0,0.0,0.0,0.0,0.0,0.0,0.0,0.0,0.0,0.0,0.0,0.0,0.0,0.0,0.0,0.0,0.0,0.0,0.0,0.0,0.0,0.0,0.0,0.0,0.0,0.0,0.0,0.0,0.0,0.0,0.0,0.0,-0.7128,-0.872,-0.9381,-0.9675,-0.9611,-0.8986,-0.8507,-0.8323,0.0,0.0,0.0,0.0,0.0,0.0,0.0,0.0,0.0,0.0,0.0,0.0,0.0,0.0,0.0,0.0,0.0,0.0,0.0,0.0,0.0,0.0,0.0,0.0,0.0,0.0,0.0,0.0,0.0,0.0,0.0,0.0,0.0,0.0,0.0,0.0,0.0,0.0,0.0,0.0,0.0,0.0,0.0,0.0,0.0,0.0,0.0,0.0,0.0,0.0,0.0,0.0,0.0,0.0,0.0,0.0,0.0,0.0,0.0,0.0,0.0,0.0,0.0,0.0,0.0,0.0,0.0,0.0,0.0,0.0,0.0,0.0,0.0,0.0,0.0,0.0,0.0,0.0,0.0,0.0,0.0,0.0,0.0,0.0,0.0,0.0,0.0,0.0,0.0,0.0,0.0,0.0,0.0,0.0,0.0,0.0,0.0,0.0,0.0,0.0,0.0,0.0,0.0,-0.6999,-0.7732,-0.8968,-0.9465,-0.9703,-0.9703,-0.8968,-0.8498,-0.8498,-0.7101,0.0,0.0,0.0,0.0,0.0,0.0,0.0,0.0,0.0,0.0,0.0,0.0,0.0,0.0,0.0,0.0,0.0,0.0,0.0,0.0,0.0,0.0,0.0,0.0,0.0,0.0,0.0,0.0,0.0,0.0,0.0,0.0,0.0,0.0,0.0,0.0,0.0,0.0,0.0,0.0,0.0,0.0,0.0,0.0,0.0,0.0,0.0,0.0,0.0,0.0,0.0,0.0,0.0,0.0,0.0,0.0,0.0,0.0,0.0,0.0,0.0,0.0,0.0,0.0,0.0,0.0,0.0,0.0,0.0,0.0,0.0,0.0,0.0,0.0,0.0,0.0,0.0,0.0,0.0,0.0,0.0,0.0,0.0,0.0,0.0,0.0,0.0,0.0,0.0,0.0,0.0,0.0,0.0,0.0,0.0,0.0,0.0,0.0,0.0,0.0,0.0,0.0,-0.7643,-0.829,-0.9152,-0.951,-0.9703,-0.9703,-0.8968,-0.8498,-0.8498,-0.6927,0.0,0.0,0.0,0.0,0.0,0.0,0.0,0.0,0.0,0.0,0.0,0.0,0.0,0.0,0.0,0.0,0.0,0.0,0.0,0.0,0.0,0.0,0.0,0.0,0.0,0.0,0.0,0.0,0.0,0.0,0.0,0.0,0.0,0.0,0.0,0.0,0.0,0.0,0.0,0.0,0.0,0.0,0.0,0.0,0.0,0.0,0.0,0.0,0.0,0.0,0.0,0.0,0.0,0.0,0.0,0.0,0.0,0.0,0.0,0.0,0.0,0.0,0.0,0.0,0.0,0.0,0.0,0.0,0.0,0.0,0.0,0.0,0.0,0.0,0.0,0.0,0.0,0.0,0.0,0.0,0.0,0.0,0.0,0.0,0.0,0.0,0.0,0.0,0.0,0.0,0.0,0.0,0.0,0.0,0.0,0.0,0.0,0.0,0.0,0.0,0.0,0.0,-0.7922,-0.8765,-0.9574,-0.9684,-0.9703,-0.9703,-0.8968,-0.8498,-0.8498,-0.6927,0.0,0.0,0.0,0.0,0.0,0.0,0.0,0.0,0.0,0.0,0.0,0.0,0.0,0.0,0.0,0.0,0.0,0.0,0.0,0.0,0.0,0.0,0.0,0.0,0.0,0.0,0.0,0.0,0.0,0.0,0.0,0.0,0.0,0.0,0.0,0.0,0.0,0.0,0.0,0.0,0.0,0.0,0.0,0.0,0.0,0.0,0.0,0.0,0.0,0.0,0.0,0.0,0.0,0.0,0.0,0.0,0.0,0.0,0.0,0.0,0.0,0.0,0.0,0.0,0.0,0.0,0.0,0.0,0.0,0.0,0.0,0.0,0.0,0.0,0.0,0.0,0.0,0.0,0.0,0.0,0.0,0.0,0.0,0.0,0.0,0.0,0.0,0.0,0.0,0.0,0.0,0.0,0.0,0.0,0.0,0.0,0.0,0.0,0.0,0.0,0.0,0.0,-0.7862,-0.8473,-0.9592,-0.9703,-0.9523,-0.9056,-0.8694,-0.8125,-0.7241,0.0,0.0,0.0,0.0,0.0,0.0,0.0,0.0,0.0,0.0,0.0,0.0,0.0,0.0,0.0,0.0,0.0,0.0,0.0,0.0,0.0,0.0,0.0,0.0,0.0,0.0,0.0,0.0,0.0,0.0,0.0,0.0,0.0,0.0,0.0,0.0,0.0,0.0,0.0,0.0,0.0,0.0,0.0,0.0,0.0,0.0,0.0,0.0,0.0,0.0,0.0,0.0,0.0,0.0,0.0,0.0,0.0,0.0,0.0,0.0,0.0,0.0,0.0,0.0,0.0,0.0,0.0,0.0,0.0,0.0,0.0,0.0,0.0,0.0,0.0,0.0,0.0,0.0,0.0,0.0,0.0,0.0,0.0,0.0,0.0,0.0,0.0,0.0,0.0,0.0,0.0,0.0,0.0,0.0,0.0,0.0,0.0,0.0,0.0,0.0,0.0,0.0,-0.7436,-0.7853,-0.84,-0.9399,-0.9501,-0.9259,-0.8619,-0.8208,-0.7605,-0.672,0.0,0.0,0.0,0.0,0.0,0.0,0.0,0.0,0.0,0.0,0.0,0.0,0.0,0.0,0.0,0.0,0.0,0.0,0.0,0.0,0.0,0.0,0.0,0.0,0.0,0.0,0.0,0.0,0.0,0.0,0.0,0.0,0.0,0.0,0.0,0.0,0.0,0.0,0.0,0.0,0.0,0.0,0.0,0.0,0.0,0.0,0.0,0.0,0.0,0.0,0.0,0.0,0.0,0.0,0.0,0.0,0.0,0.0,0.0,0.0,0.0,0.0,0.0,0.0,0.0,0.0,0.0,0.0,0.0,0.0,0.0,0.0,0.0,0.0,0.0,0.0,0.0,0.0,0.0,0.0,0.0,0.0,0.0,0.0,0.0,0.0,0.0,0.0,0.0,0.0,0.0,0.0,0.0,0.0,0.0,0.0,0.0,0.0,0.0,0.0,0.0,0.0,-0.7095,-0.7957,-0.8636,-0.9041,-0.9087,-0.8922,-0.8526,-0.7505,-0.6981,0.0,0.0,0.0,0.0,0.0,0.0,0.0,0.0,0.0,0.0,0.0,0.0,0.0,0.0,0.0,0.0,0.0,0.0,0.0,0.0,0.0,0.0,0.0,0.0,0.0,0.0,0.0,0.0,0.0,0.0,0.0,0.0,0.0,0.0,0.0,0.0,0.0,0.0,0.0,0.0,0.0,0.0,0.0,0.0,0.0,0.0,0.0,0.0,0.0,0.0,0.0,0.0,0.0,0.0,0.0,0.0,0.0,0.0,0.0,0.0,0.0,0.0,0.0,0.0,0.0,0.0,0.0,0.0,0.0,0.0,0.0,0.0,0.0,0.0,0.0,0.0,0.0,0.0,0.0,0.0,0.0,0.0,0.0,0.0,0.0,0.0,0.0,0.0,0.0,0.0,0.0,0.0,0.0,0.0,0.0,0.0,0.0,0.0,0.0,0.0,0.0,0.0,0.0,-0.7059,-0.7421,-0.7858,-0.8599,-0.8469,-0.8167,-0.777,-0.7006,-0.6334,-0.5815,0.0,0.0,0.0,0.0,0.0,0.0,0.0,0.0,0.0,0.0,0.0,0.0,0.0,0.0,0.0,0.0,0.0,0.0,0.0,0.0,0.0,0.0,0.0,0.0,0.0,0.0,0.0,0.0,0.0,0.0,0.0,0.0,0.0,0.0,0.0,0.0,0.0,0.0,0.0,0.0,0.0,0.0,0.0,0.0,0.0,0.0,0.0,0.0,0.0,0.0,0.0,0.0,0.0,0.0,0.0,0.0,0.0,0.0,0.0,0.0,0.0,0.0,0.0,0.0,0.0,0.0,0.0,0.0,0.0,0.0,0.0,0.0,0.0,0.0,0.0,0.0,0.0,0.0,0.0,0.0,0.0,0.0,0.0,0.0,0.0,0.0,0.0,0.0,0.0,0.0,0.0,0.0,0.0,0.0,0.0,0.0,0.0,0.0,0.0,0.0,0.0,0.0,-0.6831,-0.7095,-0.7467,-0.8152,-0.7936,-0.7593,-0.7196,-0.6328,-0.5622,-0.5222,0.0,0.0,0.0,0.0,0.0,0.0,0.0,0.0,0.0,0.0,0.0,0.0,0.0,0.0,0.0,0.0,0.0,0.0,0.0,0.0,0.0,0.0,0.0,0.0,0.0,0.0,0.0,0.0,0.0,0.0,0.0,0.0,0.0,0.0,0.0,0.0,0.0,0.0,0.0,0.0,0.0,0.0,0.0,0.0,0.0,0.0,0.0,0.0,0.0,0.0,0.0,0.0,0.0,0.0,0.0,0.0,0.0,0.0,0.0,0.0,0.0,0.0,0.0,0.0,0.0,0.0,0.0,0.0,0.0,0.0,0.0,0.0,0.0,0.0,0.0,0.0,0.0,0.0,0.0,0.0,0.0,0.0,0.0,0.0,0.0,0.0,0.0,0.0,0.0,0.0,0.0,0.0,0.0,0.0,0.0,0.0,0.0,0.0,0.0,0.0,0.0,0.0,-0.6488,-0.6922,-0.7296,-0.77,-0.7472,-0.7164,-0.6833,-0.5628,-0.4974,-0.5186,0.0,0.0,0.0,0.0,0.0,0.0,0.0,0.0,0.0,0.0,0.0,0.0,0.0,0.0,0.0,0.0,0.0,0.0,0.0,0.0,0.0,0.0,0.0,0.0,0.0,0.0,0.0,0.0,0.0,0.0,0.0,0.0,0.0,0.0,0.0,0.0,0.0,0.0,0.0,0.0,0.0,0.0,0.0,0.0,0.0,0.0,0.0,0.0,0.0,0.0,0.0,0.0,0.0,0.0,0.0,0.0,0.0,0.0,0.0,0.0,-0.5618,-0.5203,0.0,0.0,0.0,0.0,0.0,0.0,0.0,0.0,0.0,0.0,0.0,0.0,0.0,0.0,0.0,0.0,0.0,0.0,0.0,0.0,0.0,0.0,0.0,0.0,0.0,0.0,0.0,0.0,0.0,0.0,0.0,0.0,0.0,0.0,0.0,0.0,0.0,0.0,0.0,0.0,-0.6488,-0.6671,-0.6885,-0.7287,-0.6853,-0.6603,-0.6786,-0.5582,-0.4927,-0.5189,-0.3875,0.0,0.0,0.0,0.0,0.0,0.0,0.0,0.0,0.0,0.0,0.0,0.0,0.0,0.0,0.0,0.0,0.0,0.0,0.0,0.0,0.0,0.0,0.0,0.0,0.0,0.0,0.0,0.0,0.0,0.0,0.0,0.0,0.0,0.0,0.0,0.0,0.0,0.0,0.0,0.0,0.0,0.0,0.0,0.0,0.0,0.0,0.0,0.0,0.0,0.0,0.0,0.0,0.0,0.0,0.0,0.0,0.0,0.0,0.0,-0.638,-0.6033,0.0,0.0,0.0,0.0,0.0,0.0,0.0,0.0,0.0,0.0,0.0,0.0,0.0,0.0,0.0,0.0,0.0,0.0,0.0,0.0,0.0,0.0,0.0,0.0,0.0,0.0,0.0,0.0,0.0,0.0,0.0,0.0,0.0,0.0,0.0,0.0,0.0,0.0,0.0,0.0,-0.625,-0.6251,-0.6322,-0.6728,-0.6345,-0.6137,-0.6306,-0.5384,-0.4808,-0.4816,-0.4006,0.0,0.0,0.0,0.0,0.0,0.0,0.0,0.0,0.0,0.0,0.0,0.0,0.0,0.0,0.0,0.0,0.0,0.0,0.0,0.0,0.0,0.0,0.0,0.0,0.0,0.0,0.0,0.0,0.0,0.0,0.0,0.0,0.0,0.0,0.0,0.0,0.0,0.0,0.0,0.0,0.0,0.0,0.0,0.0,0.0,0.0,0.0,0.0,0.0,0.0,0.0,0.0,0.0,-0.7813,-0.7953,-0.7722,-0.7722,-0.7729,-0.7724,-0.7447,-0.7263,-0.7153,-0.6813,0.0,0.0,0.0,0.0,0.0,0.0,0.0,0.0,0.0,0.0,0.0,0.0,0.0,0.0,0.0,0.0,0.0,0.0,0.0,0.0,0.0,0.0,-0.6747,-0.6714,-0.6931,-0.6871,-0.5902,0.0,0.0,0.0,0.0,0.0,0.0,0.0,0.0,0.0,0.0,0.0,-0.6051,-0.5945,-0.5928,-0.6267,-0.5998,-0.5796,-0.5796,-0.5231,-0.4761,-0.4482,-0.4221,-0.383,0.0,0.0,0.0,0.0,0.0,0.0,0.0,0.0,0.0,0.0,0.0,0.0,0.0,0.0,0.0,0.0,0.0,0.0,0.0,0.0,0.0,0.0,0.0,0.0,0.0,0.0,0.0,0.0,0.0,0.0,0.0,0.0,-0.3862,-0.4237,0.0,0.0,0.0,0.0,0.0,0.0,0.0,0.0,0.0,0.0,0.0,0.0,0.0,-0.7326,-0.7297,-0.7695,-0.7862,-0.7802,-0.817,-0.8448,-0.8622,-0.8622,-0.8623,-0.8611,-0.8335,0.0,-0.7411,-0.6834,0.0,0.0,0.0,0.0,0.0,0.0,0.0,0.0,0.0,0.0,0.0,0.0,0.0,0.0,0.0,0.0,0.0,0.0,0.0,0.0,0.0,0.0,-0.7287,-0.6882,-0.7031,-0.7128,-0.6575,-0.6482,-0.6403,-0.5998,-0.5917,-0.5884,0.0,0.0,0.0,0.0,0.0,0.0,-0.6247,-0.6243,-0.6243,-0.6291,-0.5998,-0.5796,-0.5796,-0.5448,-0.5097,-0.4768,-0.4496,-0.4208,-0.3891,-0.341,0.0,0.0,0.0,0.0,0.0,0.0,0.0,0.0,0.0,0.0,0.0,0.0,0.0,0.0,0.0,0.0,0.0,0.0,0.0,0.0,0.0,0.0,0.0,0.0,0.0,0.0,0.0,0.0,0.0,-0.3813,-0.4448,-0.4567,-0.4816,-0.5029,0.0,0.0,0.0,0.0,0.0,0.0,0.0,0.0,0.0,-0.7549,-0.7872,-0.8047,-0.8008,-0.8451,-0.8658,-0.8645,-0.8971,-0.9206,-0.9299,-0.9299,-0.9299,-0.9292,-0.9193,-0.8985,-0.8657,-0.7558,-0.7102,-0.7096,0.0,0.0,0.0,0.0,-0.6902,-0.6693,-0.7034,-0.7016,-0.6861,-0.7011,0.0,0.0,0.0,0.0,0.0,0.0,0.0,-0.7342,0.0,0.0,-0.8531,-0.7993,-0.8059,-0.811,-0.7564,-0.7541,-0.7349,-0.645,-0.637,-0.6287,-0.581,-0.5589,0.0,0.0,0.0,-0.5922,-0.6201,-0.6238,-0.6164,-0.5983,-0.5831,-0.5679,-0.5528,-0.5388,-0.5157,-0.4827,-0.4688,-0.4502,-0.4241,-0.3819,-0.3609,0.0,0.0,0.0,0.0,0.0,0.0,0.0,0.0,0.0,0.0,0.0,0.0,0.0,0.0,0.0,0.0,0.0,0.0,0.0,0.0,0.0,0.0,0.0,0.0,0.0,0.0,0.0,0.0,-0.4343,-0.486,-0.5013,-0.5192,-0.5359,0.0,0.0,0.0,0.0,0.0,0.0,-0.7674,-0.7759,-0.7922,-0.8208,-0.8476,-0.8641,-0.873,-0.9138,-0.9364,-0.9437,-0.9686,-0.9833,-0.9936,-0.9826,-0.9833,-0.993,-0.9775,-0.9726,-0.9699,-0.8437,-0.794,-0.7913,-0.7595,-0.7453,-0.7486,-0.7752,-0.7622,-0.7413,-0.7859,-0.7842,-0.7618,-0.7698,-0.7502,-0.718,-0.6901,0.0,0.0,0.0,0.0,-0.8157,-0.8459,-0.9009,-0.936,-0.8805,-0.8792,-0.8728,-0.8177,-0.8265,-0.8168,-0.7172,-0.7123,-0.6999,-0.6219,-0.5926,0.0,-0.5936,0.0,-0.5968,-0.6179,-0.6199,-0.6109,-0.5852,-0.5825,-0.5705,-0.5434,-0.5407,-0.5264,-0.4955,-0.492,-0.4809,-0.4516,-0.4248,-0.4072,-0.4004,0.0,0.0,0.0,0.0,0.0,0.0,0.0,0.0,0.0,0.0,0.0,0.0,0.0,0.0,0.0,0.0,0.0,0.0,0.0,0.0,0.0,0.0,0.0,0.0,0.0,0.0,0.0,0.0,0.0,-0.5588,-0.6219,0.0,0.0,0.0,0.0,-0.7506,-0.7494,-0.7616,-0.7953,-0.8225,-0.8473,-0.875,-0.9018,-0.9319,-0.9641,-0.9646,-0.98,-1.0043,-1.0057,-1.0241,-1.0539,-1.0227,-1.0247,-1.0512,-0.9956,-0.984,-1.0017,-0.9384,-0.9124,-0.9091,-0.8805,-0.8717,-0.8717,-0.8738,-0.8557,-0.8335,-0.8368,-0.8156,-0.7932,-0.8261,-0.813,-0.7806,-0.7538,-0.7453,0.0,0.0,-0.8295,-0.8651,-0.9044,-0.919,-0.9128,-0.8693,-0.8616,-0.8492,-0.8021,-0.8276,-0.8535,-0.8337,-0.8353,-0.8252,-0.7765,0.0,-0.7442,-0.6755,-0.6644,-0.6532,-0.6242,-0.6201,-0.6189,-0.6169,-0.6169,-0.6048,-0.5701,-0.5674,-0.5571,-0.5293,-0.5273,-0.5124,-0.4794,-0.4522,-0.4268,-0.401,-0.3072,0.0,0.0,0.0,0.0,0.0,0.0,0.0,0.0,0.0,0.0,0.0,0.0,0.0,0.0,0.0,0.0,0.0,0.0,0.0,0.0,0.0,0.0,0.0,0.0,0.0,0.0,0.0,0.0,-0.6206,-0.6487,0.0,-0.7015,-0.7042,-0.7259,-0.7814,-0.7783,-0.7979,-0.8502,-0.8784,-0.9052,-0.9359,-0.9653,-0.9824,-0.996,-1.0184,-1.0332,-1.0432,-1.0432,-1.0486,-1.0586,-1.0479,-1.0492,-1.0579,-1.0372,-1.0338,-1.0419,-1.0174,-0.9866,-0.9512,-0.9412,-0.9372,-0.9372,-0.9372,-0.9333,-0.9246,-0.9246,-0.9025,-0.8705,-0.8464,-0.8328,-0.8163,-0.7856,-0.7769,-0.7826,-0.8194,-0.8632,-0.907,-0.9368,-0.9719,-0.986,-0.9352,-0.9313,-0.9228,-0.871,-0.8809,-0.8975,-0.8927,-0.8406,-0.778,-0.7132,-0.6889,-0.6677,-0.641,-0.652,-0.6587,-0.6471,-0.662,-0.664,-0.6472,-0.6452,-0.6258,-0.5734,-0.5694,-0.5591,-0.5313,-0.5097,-0.4935,-0.4814,-0.4375,-0.4099,-0.3998,-0.3287,-0.2922,0.0,0.0,0.0,0.0,0.0,0.0,0.0,0.0,0.0,0.0,0.0,0.0,0.0,0.0,0.0,0.0,0.0,0.0,0.0,0.0,0.0,0.0,0.0,0.0,0.0,0.0,-0.6192,-0.668,-0.6914,-0.7199,-0.7592,-0.7621,-0.7835,-0.8379,-0.8475,-0.8691,-0.9078,-0.9351,-0.9597,-0.9826,-1.0114,-1.0267,-1.0267,-1.0492,-1.064,-1.0734,-1.064,-1.064,-1.0734,-1.0533,-1.0492,-1.0586,-1.0486,-1.0499,-1.0593,-1.0593,-1.0358,-1.001,-1.001,-1.001,-1.001,-1.001,-0.995,-0.982,-0.9749,-0.9552,-0.9297,-0.8938,-0.8777,-0.8631,-0.8405,-0.8278,-0.8245,-0.8464,-0.879,-0.9105,-0.9285,-0.9588,-0.9762,-0.9413,-0.9409,-0.9375,-0.9011,-0.899,-0.9028,-0.8941,-0.8543,-0.801,-0.7384,-0.7037,-0.6797,-0.6659,-0.67,-0.6734,-0.6734,-0.688,-0.6926,-0.6754,-0.6734,-0.65,-0.5912,-0.5858,-0.5698,-0.5288,-0.5082,-0.4953,-0.4938,-0.4502,-0.4275,-0.4275,-0.3648,-0.3257,-0.3098,0.0,0.0,0.0,0.0,0.0,0.0,0.0,0.0,0.0,0.0,0.0,0.0,0.0,0.0,0.0,0.0,0.0,0.0,0.0,0.0,0.0,0.0,0.0,-0.5589,-0.6195,-0.672,-0.7006,-0.7572,-0.7939,-0.7945,-0.8472,-0.8924,-0.9204,-0.9526,-0.9699,-0.9699,-0.9973,-1.0134,-1.0134,-1.0439,-1.0593,-1.0593,-1.0593,-1.0734,-1.0975,-1.0727,-1.074,-1.0962,-1.0388,-1.0287,-1.0579,-1.0254,-1.0294,-1.0593,-1.0593,-1.0593,-1.0593,-1.0593,-1.0593,-1.0593,-1.0593,-1.0381,-1.0087,-0.98,-0.9699,-0.9722,-0.9715,-0.9486,-0.9224,-0.9224,-0.9031,-0.8831,-0.8824,-0.8824,-0.8818,-0.8811,-0.8804,-0.8804,-0.8804,-0.8804,-0.8804,-0.8804,-0.8804,-0.8724,-0.8469,-0.8839,-0.9059,-0.8654,-0.83,-0.7958,-0.7571,-0.7228,0.0,-0.7013,-0.7006,-0.7,-0.7,-0.7,-0.6794,-0.6256,-0.6203,-0.5905,-0.5254,-0.5255,-0.5248,-0.5194,-0.4932,-0.4773,-0.4766,-0.4127,-0.3579,-0.3121,0.0,0.0,0.0,0.0,0.0,0.0,0.0,0.0,0.0,0.0,0.0,0.0,0.0,0.0,0.0,0.0,0.0,0.0,0.0,0.0,0.0,-0.5481,-0.6084,-0.6295,-0.6647,-0.7174,-0.7916,-0.8337,-0.8625,-0.8831,-0.9218,-0.9472,-0.9552,-0.9833,-1.0,-1.0,-1.0274,-1.0472,-1.0472,-1.0546,-1.0593,-1.0593,-1.0593,-1.0633,-1.0713,-1.0633,-1.0633,-1.0707,-1.0546,-1.0512,-1.0586,-1.0506,-1.0519,-1.0593,-1.0593,-1.0593,-1.0593,-1.0593,-1.0593,-1.0593,-1.0593,-1.0539,-1.0432,-1.01,-1.0,-0.996,-0.9753,-0.9626,-0.9559,-0.9559,-0.9506,-0.9399,-0.9151,-0.9091,-0.9044,-0.8864,-0.8804,-0.8804,-0.8804,-0.8804,-0.8804,-0.8804,-0.8804,-0.8784,-0.8704,-0.8798,-0.8751,-0.8194,-0.802,-0.7919,-0.7802,-0.7542,0.0,-0.7363,-0.7154,-0.7,-0.7,-0.7,-0.6874,-0.6519,-0.6223,-0.5897,-0.5513,-0.5048,-0.4808,-0.4839,-0.4585,-0.4349,-0.4151,-0.3871,-0.3659,0.0,0.0,0.0,0.0,0.0,0.0,0.0,0.0,0.0,0.0,0.0,0.0,0.0,0.0,0.0,0.0,0.0,0.0,0.0,0.0,0.0,0.0,-0.6182,-0.6776,-0.7281,-0.7482,-0.7829,-0.8477,-0.8811,-0.9124,-0.9537,-0.9766,-0.9913,-1.007,-1.0207,-1.0301,-1.0301,-1.0499,-1.0593,-1.0593,-1.0593,-1.0593,-1.0593,-1.0593,-1.0653,-1.0774,-1.0646,-1.066,-1.0767,-1.0646,-1.0593,-1.0593,-1.0593,-1.0593,-1.0593,-1.0593,-1.0593,0.0,0.0,0.0,0.0,0.0,-1.0593,-1.0566,-1.0392,-1.0301,-1.0274,-1.0137,-0.9967,-0.9866,-0.9866,-0.978,-0.9619,-0.9297,-0.9211,-0.9144,-0.8884,-0.8804,-0.8804,-0.8804,-0.8804,-0.8804,-0.8804,-0.8804,-0.8804,-0.8804,-0.8804,0.0,-0.8332,-0.8172,-0.8085,-0.8006,-0.7712,-0.7491,-0.7424,-0.7165,-0.7,-0.7,-0.6964,-0.6831,-0.6541,-0.6285,0.0,0.0,0.0,-0.4903,-0.4821,-0.4681,0.0,0.0,0.0,0.0,0.0,0.0,0.0,0.0,-0.3904,-0.3961,0.0,0.0,0.0,0.0,0.0,0.0,0.0,0.0,0.0,0.0,0.0,0.0,0.0,0.0,0.0,0.0,-0.6937,-0.7433,-0.8232,-0.843,-0.8571,-0.8824,-0.9118,-0.9517,-1.0037,-1.0117,-1.0274,-1.0573,-1.0593,-1.0593,-1.0593,0.0,0.0,0.0,0.0,-1.0593,-1.0593,-1.0593,-1.072,-1.0942,-1.0713,-1.0727,-1.0935,-1.0713,-1.0593,-1.0593,-1.0593,-1.0593,-1.0593,-1.0593,-1.0593,-1.0593,-1.0593,-1.0593,-1.0593,-1.0593,-1.0593,-1.0593,-1.0593,0.0,0.0,-1.0593,-1.0412,-1.0167,-1.0167,-0.9987,-0.9719,-0.9397,-0.9291,-0.9198,-0.8931,-0.8831,-0.8804,-0.8804,-0.8804,-0.8804,-0.8804,-0.8804,-0.8804,-0.8778,-0.8778,-0.8778,-0.8752,-0.8565,-0.8366,-0.8195,-0.7804,-0.7487,-0.737,-0.7174,-0.7018,-0.6985,0.0,0.0,-0.6453,-0.6335,-0.6028,-0.5424,-0.5419,-0.5309,-0.5055,-0.5042,-0.4979,-0.4856,-0.484,-0.4722,-0.4487,-0.4487,-0.4447,-0.4381,-0.4685,-0.4792,0.0,0.0,0.0,0.0,0.0,0.0,0.0,0.0,0.0,0.0,0.0,0.0,0.0,0.0,0.0,-0.6651,-0.7416,-0.7985,-0.8061,-0.8639,-0.9064,-0.9124,-0.9597,-0.9963,-1.0077,-1.0334,-1.0526,-1.0586,-1.0593,-1.0593,-1.0593,-1.0593,-1.0593,-1.0593,-1.0593,-1.0593,-1.0593,-1.0593,-1.062,-1.0673,0.0,0.0,-1.0673,-1.062,-1.0593,-1.0593,-1.0593,-1.0593,-1.0593,-1.0593,-1.0593,-1.0593,-1.0593,-1.0593,-1.0593,-1.0593,-1.0593,-1.0593,-1.0593,-1.0593,-1.0593,-1.0593,-1.0553,-1.0506,-1.0506,-1.0466,0.0,-1.0027,-0.978,-0.9526,-0.9204,-0.8958,-0.8804,-0.8804,-0.8804,-0.8804,-0.8804,-0.8804,-0.8778,-0.8659,-0.8633,-0.8606,-0.8507,-0.8534,-0.8547,-0.8515,-0.8126,-0.778,-0.7643,-0.741,-0.7163,-0.6934,-0.6914,-0.6831,-0.6653,-0.6328,-0.6073,-0.5949,-0.5757,-0.5516,-0.5249,-0.5237,-0.5042,-0.4589,-0.4529,-0.4466,-0.4411,-0.4411,-0.4565,-0.4867,-0.4554,-0.4513,0.0,0.0,0.0,0.0,0.0,0.0,0.0,0.0,0.0,0.0,0.0,-0.5583,-0.572,0.0,-0.709,-0.7413,-0.7838,-0.8222,-0.8475,-0.8992,-0.9352,-0.9352,-0.9794,-1.0143,-1.0197,-1.0279,-1.037,-1.0453,-1.039,-1.0439,-1.0586,-1.0593,-1.0593,-1.0593,-1.0593,-1.0593,-1.0593,-1.0593,-1.0593,-1.0593,-1.0593,-1.0593,-1.0593,-1.0593,-1.0593,-1.0593,-1.0593,-1.053,-1.0466,-1.0466,-1.0403,-1.0308,-1.0396,-1.0466,-1.0466,-1.0466,-1.0466,-1.0466,-1.0466,-1.053,-1.0593,-1.0593,-1.0593,-1.0593,-1.0593,-1.0593,-1.0526,-1.02,-1.0013,-0.98,-0.9324,-0.9104,-0.8958,-0.8752,-0.8692,-0.8692,-0.8613,-0.8586,-0.8586,-0.8501,-0.8501,-0.8474,-0.8421,-0.8395,-0.8395,-0.8395,-0.8107,-0.7847,-0.7708,-0.7521,-0.7286,-0.7032,-0.6927,-0.6827,-0.6608,-0.6257,-0.6057,-0.6057,-0.5805,-0.5597,-0.545,-0.5444,-0.5333,-0.5057,-0.5017,-0.5007,-0.5007,-0.5007,-0.5124,-0.5351,-0.5108,-0.5066,0.0,0.0,0.0,0.0,0.0,0.0,0.0,0.0,-0.4426,-0.5007,-0.5726,-0.6302,-0.6429,-0.7032,-0.7668,-0.8096,-0.8241,-0.8423,-0.8848,-0.9249,-0.9453,-0.9395,-0.9843,-1.017,-1.0281,-1.014,-1.0087,-1.0218,-1.0126,-1.0186,-1.0516,-1.0593,-1.0593,-1.0593,-1.0561,-1.053,-1.053,-1.0551,-1.0546,-1.0546,-1.0546,-1.0546,-1.0546,-1.0524,-1.0498,-1.053,-1.0589,-1.0513,-1.0308,-1.0296,-1.0194,-1.0015,-1.0174,-1.0244,-1.0212,-1.0238,-1.0238,-1.0238,-1.0238,-1.0333,-1.0498,-1.053,-1.053,-1.0561,-1.0593,-1.0561,-1.0476,-1.0206,-1.0069,-0.9873,-0.9345,-0.9167,-0.9021,-0.8645,-0.8547,-0.8521,-0.8421,-0.8395,-0.8395,-0.8374,-0.8374,-0.8348,-0.8321,-0.8215,-0.8141,-0.8195,-0.8028,-0.786,-0.7708,-0.761,-0.7438,-0.7167,-0.6989,-0.6795,-0.6508,-0.6239,-0.607,-0.607,-0.5875,-0.573,-0.5675,-0.5675,-0.5651,-0.5596,-0.5596,-0.5596,-0.5596,-0.5596,-0.5639,-0.5701,-0.5757,-0.5774,-0.2692,-0.2622,-0.2605,-0.2666,-0.2744,-0.3076,0.0,0.0,-0.4819,-0.6057,-0.6393,-0.6647,-0.7237,-0.768,-0.7985,-0.808,-0.856,-0.8841,-0.867,-0.9093,-0.933,-0.9091,-0.977,-1.0268,-1.0301,-0.996,-0.9816,-1.0028,-0.9978,-1.0038,-1.032,-1.0498,-1.0593,-1.0593,-1.0434,-1.0339,-1.0339,-1.0393,-1.0416,-1.0416,-1.0416,-1.0416,-1.0403,-1.0193,-1.0149,-1.0352,-1.0601,-1.0536,-1.0289,-1.0347,-1.0237,-0.9983,-1.0015,-0.9958,-0.9868,-0.9989,-1.0015,-1.0015,-1.0015,-1.0047,-1.011,-1.0276,-1.0339,-1.0371,-1.0561,-1.0466,-1.0333,-1.03,-0.998,-0.9594,-0.9291,-0.9023,-0.8773,-0.8491,-0.8421,-0.8421,-0.8395,-0.8395,-0.8374,-0.8248,-0.8221,-0.8168,-0.7981,-0.7955,-0.7981,-0.8168,-0.8037,-0.7848,-0.7714,-0.7678,-0.7586,-0.7314,-0.7054,-0.6773,-0.6434,-0.6386,-0.6368,-0.6368,-0.6316,-0.621,-0.5961,-0.5948,-0.5839,-0.5602,-0.5596,-0.5596,-0.5596,-0.5596,-0.5639,-0.5708,-0.5942,-0.6027,-0.3067,-0.2979,-0.2894,-0.292,-0.3042,-0.3359,-0.4196,-0.4628,-0.5145,-0.6174,-0.6842,-0.7367,-0.7714,-0.8037,-0.8274,0.0,-0.8608,-0.8795,-0.8839,-0.9015,-0.9177,-0.9214,-0.9422,-0.9557,-0.9557,-0.9608,-0.9654,-0.9637,-0.9789,-0.9977,-1.0129,-1.0333,-1.0371,-1.0244,-1.0335,-1.0354,-1.0354,-1.0528,-1.0634,-1.0634,-1.0634,-1.0634,-1.0628,-1.0514,-1.0497,-1.0603,-1.0617,-1.0571,-1.0476,-1.0488,-1.0275,-0.9968,-1.0066,-0.9908,-0.9644,-0.983,-0.9894,-0.9894,-0.9894,-0.9926,-1.0015,-1.011,-1.0206,-1.0301,-1.0269,-1.0269,-1.0276,-1.0149,-0.9996,-0.978,-0.9495,-0.9239,-0.8953,-0.8597,-0.8388,-0.8242,-0.8135,-0.8109,-0.8082,-0.8035,-0.8035,-0.8008,-0.7901,-0.7901,-0.7928,-0.8008,-0.7955,-0.7886,-0.7824,-0.7812,-0.7735,-0.7486,-0.7101,-0.6779,-0.6653,-0.648,-0.6395,-0.6395,-0.6395,-0.634,-0.624,-0.624,-0.6185,-0.6076,-0.607,-0.607,-0.607,-0.607,-0.607,-0.6116,-0.6233,-0.6282,-0.3209,-0.3174,-0.3163,-0.3225,-0.3372,-0.3652,-0.428,-0.4708,-0.5198,-0.5952,-0.6682,-0.7292,-0.7585,-0.7858,-0.8117,-0.8332,-0.8561,-0.872,-0.8786,-0.8924,-0.9017,-0.9075,-0.898,-0.8862,-0.8798,-0.914,-0.9364,-0.942,-0.9641,-0.9816,-0.9939,-1.011,-1.0142,-0.9983,-1.0222,-1.0334,-1.0334,-1.0638,-1.0779,-1.0779,-1.0779,-1.0779,-1.0779,-1.0739,-1.0736,-1.0742,-1.0719,-1.0678,-1.061,-1.0615,-1.0382,-1.0015,-1.0184,-0.9986,-0.9624,-0.9786,-0.977,-0.9708,-0.9708,-0.9772,-0.9862,-0.9926,-1.0047,-1.0149,-1.0015,-1.0085,-1.0117,-0.9989,-0.9894,-0.9799,-0.9519,-0.9262,-0.898,-0.8605,-0.8306,-0.8088,-0.7928,-0.7901,-0.7901,-0.7901,-0.7901,-0.7901,-0.7901,-0.7901,-0.7901,-0.7901,-0.7901,-0.7901,-0.7901,-0.7901,-0.7826,-0.7625,-0.7188,-0.6884,-0.6811,-0.6546,-0.6395,-0.6395,-0.6395,-0.6395,-0.6395,-0.6395,-0.6395,-0.6395,-0.6395,-0.6395,-0.6395,-0.6395,-0.6395,-0.6395,-0.6395,-0.6425,-0.2983,-0.3097,-0.3337,-0.3537,-0.3627,-0.386,-0.4533,-0.471,-0.4882,-0.5483,-0.5639,-0.5888,-0.6616,-0.6967,-0.7291,-0.7746,-0.8468,-0.8839,-0.8389,-0.872,-0.8846,-0.8395,-0.8499,-0.8527,0.0,-0.8566,-0.8939,-0.9462,-0.9438,-0.9531,-0.9786,-0.9926,-1.0015,-0.9983,-1.0124,-1.0207,-1.0207,-1.0553,-1.0707,-1.0707,-1.0707,-1.0707,-1.0701,-1.0651,-1.061,-1.0622,-1.0883,-1.0845,-1.0594,-1.0676,-1.0556,-1.028,-1.028,-1.0124,-0.9895,-0.9895,-0.9733,-0.9516,-0.9516,-0.9516,-0.9548,-0.974,-0.9804,-0.983,-0.9958,-0.9926,-0.9804,-0.9804,-0.9676,-0.945,-0.9198,-0.8903,-0.8638,-0.8379,-0.8115,-0.7901,-0.7901,-0.7901,-0.7901,-0.7901,-0.7901,-0.7901,-0.7901,-0.7901,-0.7901,-0.7901,-0.7901,-0.7901,-0.7901,-0.7901,-0.7826,-0.7625,-0.7352,-0.7085,-0.6829,-0.6546,-0.6395,-0.6395,-0.6395,-0.6395,-0.6395,-0.6395,-0.6395,-0.6395,-0.6395,-0.6395,-0.6395,-0.6395,-0.6395,-0.6395,-0.6395,-0.6425,-0.3439,-0.3506,-0.3565,-0.3795,-0.3894,-0.3993,-0.4299,-0.4617,-0.4911,-0.5204,-0.551,-0.5854,-0.6298,-0.6541,-0.674,-0.6849,-0.782,-0.8418,-0.8091,-0.8622,-0.8926,-0.8608,-0.8484,0.0,0.0,0.0,0.0,-0.9227,-0.9512,-0.9636,-0.9606,-0.9766,-0.9798,-0.967,-1.0071,-1.0268,-1.0268,-1.0719,-1.0979,-1.0979,-1.0979,-1.0979,-1.0979,-1.0925,-1.0919,-1.0925,-1.1016,-1.1004,-1.0925,-1.0942,-1.0828,-1.0557,-1.0557,-1.0394,-1.0166,-1.0166,-1.0106,-0.9985,-0.9636,-0.9516,-0.9516,-0.958,-0.9676,-0.9772,-0.9708,-0.974,-0.9772,-0.9644,-0.9548,-0.9492,-0.9402,-0.9173,-0.8896,-0.8638,-0.8345,-0.8111,-0.7937,-0.7901,-0.7901,-0.7901,-0.7901,-0.7901,-0.7901,-0.7901,-0.7901,-0.7901,-0.7901,-0.7901,-0.7901,-0.7901,-0.7865,-0.7802,-0.76,-0.7358,-0.7091,-0.6829,-0.6577,-0.6401,-0.6395,-0.6395,-0.6395,-0.6395,-0.6395,-0.6395,-0.6395,-0.6395,-0.6395,-0.6395,-0.6395,-0.6395,-0.6395,-0.641,-0.3639,-0.3709,-0.3727,-0.4001,-0.4075,-0.4102,-0.4174,-0.4426,-0.465,-0.4626,-0.4886,-0.5187,-0.5464,-0.5712,-0.598,-0.6365,-0.7133,-0.7767,-0.8016,-0.8447,-0.869,-0.8579,-0.8506,-0.8524,0.0,0.0,0.0,-0.9239,-0.9509,-0.9644,-0.9516,-0.9612,-0.9687,-0.9654,-1.0069,-1.034,-1.0436,-1.0894,-1.1111,-1.1111,-1.1111,-1.1111,-1.1111,-1.1111,-1.1111,-1.1111,-1.1111,-1.1111,-1.1111,-1.1111,-1.1015,-1.0821,-1.0821,-1.0665,-1.0436,-1.0436,-1.0376,-1.0232,-0.9805,-0.9654,-0.9636,-0.9546,-0.958,-0.9676,-0.9548,-0.958,-0.9676,-0.9548,-0.9516,-0.9516,-0.9516,-0.9306,-0.9029,-0.877,-0.8512,-0.8219,-0.7955,-0.7901,-0.7901,-0.7901,-0.7901,-0.7901,-0.7901,-0.7901,-0.7901,-0.7901,-0.7901,-0.7901,-0.7901,-0.7901,-0.7901,-0.7901,-0.7707,-0.7528,-0.7358,-0.7012,-0.6738,-0.6546,-0.6443,-0.6395,-0.6395,-0.6395,-0.6395,-0.6395,-0.6395,-0.6395,-0.6395,-0.6395,-0.6395,-0.6395,-0.6395,-0.6443,-0.3631,-0.3733,-0.3887,-0.4159,-0.42,-0.4197,-0.4197,-0.4184,-0.4115,-0.3843,-0.3775,-0.3862,-0.4182,-0.4484,-0.5041,-0.6186,-0.6499,-0.6956,-0.8055,-0.8153,-0.8166,0.0,0.0,0.0,0.0,0.0,0.0,-0.9466,0.0,-0.9516,-0.9516,-0.9528,-0.9648,-0.9901,-1.0172,-1.0436,-1.0719,-1.0979,-1.1111,-1.1111,-1.1111,-1.1111,-1.1111,-1.1111,-1.1111,-1.1111,-1.1111,-1.1111,-1.1111,-1.1111,-1.1111,-1.1111,-1.1111,-1.096,-1.0701,-1.0701,-1.0551,-1.0298,-1.0033,-0.9937,-0.9883,-0.9618,-0.9534,-0.9534,-0.9516,-0.9516,-0.9516,-0.9516,-0.9516,-0.9516,-0.9516,-0.9318,-0.9053,-0.8788,-0.853,-0.8237,-0.7979,-0.7913,-0.7901,-0.7901,-0.7901,-0.7901,-0.7901,-0.7889,-0.7883,-0.7895,-0.7889,-0.7883,-0.7895,-0.7901,-0.7901,-0.7901,-0.7693,-0.7556,-0.7544,-0.7092,-0.6796,-0.6778,-0.657,-0.6425,-0.6413,-0.6413,-0.6407,-0.6395,-0.6395,-0.6395,-0.6395,-0.6407,-0.6407,-0.6395,-0.6419,-0.6558,-0.3991,-0.4078,-0.4149,-0.4362,-0.4301,-0.4197,-0.4197,-0.4048,-0.3856,-0.3696,-0.3541,-0.3449,-0.3538,-0.3898,0.0,-0.4589,-0.5562,0.0,-0.6974,-0.7837,0.0,-0.858,0.0,-0.8446,-0.8938,-0.86,0.0,0.0,-0.9516,-0.9516,-0.9516,-0.9703,-0.9835,-0.9901,-1.0346,-1.0617,-1.0683,-1.0979,-1.1111,-1.1111,-1.1111,-1.1111,-1.1111,-1.1111,-1.1111,-1.1111,-1.1111,-1.1111,-1.1111,-1.1111,-1.1111,-1.1111,-1.1111,-1.1069,-1.1009,-1.1009,-1.0966,-1.0876,-1.0575,-1.0358,-1.0154,-0.9889,-0.9805,-0.9769,-0.9576,-0.9516,-0.9516,-0.9516,-0.9516,-0.9516,-0.9516,-0.9462,-0.9336,-0.9065,-0.88,-0.8536,-0.8249,-0.8039,-0.7901,-0.7901,-0.7901,-0.7901,-0.7901,-0.7786,-0.7719,-0.7871,-0.778,-0.7725,-0.7877,-0.7901,-0.7901,-0.7901,-0.7484,-0.716,-0.6951,-0.6803,-0.6649,-0.6431,-0.6795,-0.6914,-0.6714,-0.6708,-0.6617,-0.6395,-0.6395,-0.6395,-0.6395,-0.6611,-0.6583,-0.6401,-0.6817,-0.6933,-0.415,-0.4267,-0.4362,-0.447,-0.4355,-0.416,-0.4051,-0.3866,-0.3639,-0.3422,-0.329,-0.3209,-0.3209,-0.3484,-0.383,0.0,0.0,0.0,-0.6567,-0.732,-0.7809,0.0,-0.8059,0.0,-0.8634,-0.8419,-0.8609,0.0,-0.9516,-0.9516,-0.9516,-0.9763,-0.9955,-1.0075,-1.0472,-1.0773,-1.0851,-1.1033,-1.1111,-1.1111,-1.1111,-1.1111,-1.1111,-1.1111,-1.1111,-1.1111,-1.1111,-1.1111,-1.1111,-1.1111,-1.1111,-1.1111,-1.1111,-1.1111,-1.1111,-1.1111,-1.1111,-1.1093,-1.0942,-1.0797,-1.0575,-1.0196,-1.0075,-1.0027,-0.9763,-0.969,-0.966,-0.9546,-0.9516,-0.9516,-0.9516,-0.9516,-0.9444,-0.9167,-0.8987,-0.8776,-0.8369,-0.8177,-0.8039,-0.7925,-0.7901,-0.7901,-0.7901,-0.7802,-0.7737,-0.7768,-0.7744,-0.7737,-0.7774,-0.7638,-0.7547,-0.7547,-0.7058,-0.6651,-0.6497,-0.6613,-0.6625,-0.6486,-0.6921,-0.7133,-0.6987,-0.6981,-0.6908,-0.6763,-0.6756,-0.6756,-0.6756,-0.6908,-0.6902,-0.6769,-0.7066,-0.7182,-0.425,-0.4368,-0.4484,-0.4467,-0.4324,-0.4112,-0.3832,-0.3653,-0.3463,-0.3135,0.0,-0.3067,-0.3047,-0.3162,-0.3563,-0.442,0.0,-0.4772,-0.6411,-0.6664,-0.6787,-0.7063,-0.755,-0.7902,-0.7996,-0.8143,-0.849,-0.9157,-0.9318,-0.9432,-0.9532,-0.9817,-1.0094,-1.0388,-1.0617,-1.0845,-1.1105,-1.1111,-1.1111,-1.1111,-1.1111,-1.1111,-1.1111,-1.1111,-1.1111,-1.1111,-1.1111,-1.1111,-1.1111,-1.1111,-1.1111,-1.1111,-1.1111,-1.1111,-1.1111,-1.1111,-1.1111,-1.1111,-1.1111,-1.1111,-1.1033,-1.0509,-1.0346,-1.0292,-0.9997,-0.9907,-0.9853,-0.9588,-0.9516,-0.9516,-0.9516,-0.9516,-0.9456,-0.9209,-0.9125,-0.8963,-0.8475,-0.8285,-0.8171,-0.7949,-0.7901,-0.7901,-0.7901,-0.7871,-0.7808,-0.7654,-0.7686,-0.7681,-0.754,-0.7272,-0.7112,-0.7112,-0.648,-0.6073,-0.6073,-0.6418,-0.6628,-0.6628,-0.7059,-0.7243,-0.7134,-0.7134,-0.7067,-0.696,-0.696,-0.696,-0.696,-0.6989,-0.6989,-0.696,-0.703,-0.7184,-0.4453,-0.447,-0.446,-0.4287,-0.4146,-0.3957,-0.3706,-0.3497,0.0,0.0,-0.2929,-0.2907,-0.2798,-0.2978,-0.3279,-0.3722,-0.4021,-0.4574,-0.5657,-0.599,-0.6367,0.0,-0.6773,-0.68,-0.7445,-0.707,0.0,0.0,-0.8328,-0.9005,-0.979,-1.0081,-1.0448,-1.096,-1.1021,-1.1063,-1.1111,-1.1111,-1.1111,-1.1111,-1.1111,-1.1111,-1.1111,-1.1111,-1.1111,-1.1111,-1.1111,0.0,-1.1111,-1.1111,-1.1111,-1.1111,-1.1111,-1.1111,-1.1111,-1.1111,-1.1111,-1.1111,-1.1111,-1.1111,-1.1057,-1.0719,-1.0617,-1.0527,-1.0051,-0.9907,-0.9853,-0.9588,-0.9516,-0.9516,-0.9516,-0.9516,-0.9504,-0.9456,-0.9263,-0.9011,-0.871,-0.8273,-0.7955,-0.7913,-0.7901,-0.7901,-0.7901,-0.7768,-0.7703,-0.7832,-0.7214,-0.6854,-0.7136,-0.7138,-0.7112,-0.7112,-0.6127,-0.5445,-0.5445,-0.5955,-0.6291,-0.6291,-0.7221,-0.748,-0.6808,-0.6777,-0.6453,-0.5722,-0.5717,-0.5717,-0.5717,-0.5941,-0.5936,-0.5726,-0.6178,-0.6293,-0.447,-0.4491,-0.4457,-0.4257,-0.4105,-0.3896,-0.3522,0.0,0.0,0.0,-0.2791,-0.2768,-0.2713,-0.2862,0.0,-0.3391,-0.3684,-0.4157,-0.4925,-0.5318,-0.5649,-0.6025,-0.6024,-0.6229,-0.6833,-0.6597,-0.6695,-0.7354,-0.7744,-0.8278,-0.9122,-0.99,-1.0533,-1.1093,-1.1111,-1.1111,-1.1111,-1.1111,-1.1111,-1.1111,-1.1111,-1.1111,-1.1111,-1.1111,-1.1111,-1.1111,-1.1111,-1.1111,-1.1111,-1.1111,-1.1111,-1.1111,-1.1111,-1.1111,-1.1111,-1.1111,-1.1111,-1.1111,-1.1111,-1.1111,-1.1093,-1.0966,-1.0924,-1.0828,-1.0268,-1.0106,-1.0027,-0.9624,-0.9516,-0.9516,-0.9516,-0.9516,-0.9516,-0.9516,-0.93,-0.9023,-0.8764,-0.8403,-0.8063,-0.7925,-0.7901,-0.7901,-0.7901,-0.782,-0.7651,-0.7326,-0.7023,-0.6684,-0.6355,-0.6236,-0.6154,-0.6154,-0.5391,-0.4869,-0.4869,-0.5418,-0.5741,-0.5741,-0.6534,-0.6838,-0.6464,-0.6438,-0.6256,-0.5817,-0.5812,-0.5812,-0.5812,-0.5936,-0.5931,-0.5817,-0.6087,-0.613,-0.4358,-0.4467,-0.4447,-0.4217,-0.4085,-0.3869,-0.3366,-0.3165,0.0,-0.2761,-0.2696,-0.2696,-0.2696,-0.2805,-0.2986,0.0,-0.3482,-0.3846,-0.4409,-0.4785,-0.5013,0.0,-0.5397,0.0,-0.6138,-0.617,0.0,-0.6929,-0.7133,-0.7635,-0.8608,-0.9462,-1.0194,-1.0838,-1.085,-1.085,-1.085,-1.0999,-1.1111,-1.1111,-1.1111,-1.1111,-1.1111,-1.1111,-1.1111,-1.1111,-1.1111,-1.1111,-1.1111,-1.1111,-1.1111,-1.1111,-1.1111,-1.1111,-1.1111,-1.1111,-1.1111,-1.1111,-1.1111,-1.1111,-1.1111,-1.1111,-1.1111,-1.1015,-1.0454,-1.0292,-1.0184,-0.966,-0.9516,-0.9516,-0.9516,-0.9516,-0.9516,-0.9516,-0.93,-0.9041,-0.8836,-0.8542,-0.8231,-0.8027,-0.7937,-0.7901,-0.7901,-0.7815,-0.7505,-0.6889,-0.6707,-0.6386,-0.5629,-0.5256,-0.5062,-0.5062,-0.4714,-0.4491,-0.4491,-0.4979,-0.5304,-0.5304,-0.5878,-0.6154,-0.6018,-0.6014,-0.5964,-0.5828,-0.5828,-0.5828,-0.5828,-0.5828,-0.5828,-0.5828,-0.5828,-0.5828,-0.4102,-0.4362,-0.4423,-0.4111,-0.4004,-0.3842,-0.3256,0.0,-0.3017,-0.2761,-0.2696,-0.2696,-0.2696,-0.2805,-0.2986,-0.3259,0.0,-0.3959,-0.4423,-0.4532,-0.4698,-0.5046,0.0,0.0,-0.5463,-0.5491,-0.5524,-0.5591,-0.6255,-0.7404,-0.913,-0.8883,-0.909,-0.9986,-0.9992,-0.9992,-0.9992,-1.0738,-1.1111,-1.1111,-1.1111,-1.1111,-1.1111,-1.1111,-1.1111,-1.1111,-1.1111,-1.1111,0.0,-1.1111,-1.1111,-1.1111,-1.1111,-1.1111,-1.1111,-1.1111,-1.1111,-1.1111,-1.1111,-1.1111,-1.1111,-1.1111,-1.1111,-1.1015,-1.0454,-1.0292,-1.0184,-0.966,-0.9516,-0.9516,-0.9516,-0.9516,-0.9516,-0.9516,-0.93,-0.9089,-0.9065,-0.8668,-0.8285,-0.8255,-0.8063,-0.7901,-0.7901,-0.7494,-0.716,-0.7085,-0.606,-0.5291,-0.5321,-0.4729,-0.4293,-0.4293,-0.4412,-0.4491,-0.4491,-0.4979,-0.5304,-0.5304,-0.5878,-0.5959,-0.5418,-0.5386,-0.5144,-0.4653,-0.4653,-0.4653,-0.4653,-0.4653,-0.4653,-0.4653,-0.4653,-0.4653,-0.3577,-0.392,-0.4144,-0.3934,-0.3883,-0.3748,-0.3216,0.0,-0.3017,-0.2761,-0.2696,-0.2696,-0.2696,-0.2747,-0.2869,-0.3145,-0.329,-0.3544,-0.402,-0.4138,-0.4362,-0.4813,-0.4897,0.0,0.0,0.0,-0.5395,-0.5395,-0.5681,-0.6469,-0.784,-0.8228,-0.8625,-0.915,-0.9198,-0.9198,-0.9198,-0.949,-0.9642,-0.9642,-1.0137,-1.0137,-0.9679,-1.0175,-1.0368,-1.0368,-1.0368,-1.0663,0.0,-1.1111,-1.1111,-1.1111,-1.1111,-1.1111,-1.1037,-1.055,-1.0368,-1.0331,-0.9836,-0.9642,-0.9642,-0.9642,-0.9585,-0.9631,-1.0155,-1.0184,-0.9985,-0.9618,-0.9516,-0.9516,-0.9516,-0.9516,-0.9516,-0.9516,-0.9426,-0.9306,-0.9131,-0.8812,-0.8391,-0.792,-0.7604,-0.73,-0.6945,-0.6701,-0.6426,-0.6073,-0.5568,-0.508,-0.4683,-0.4493,-0.4345,-0.4204,-0.4375,-0.4453,-0.4341,-0.4627,-0.4818,-0.4818,-0.5034,-0.5062,-0.4818,-0.4818,-0.4708,-0.4519,-0.4491,-0.4491,-0.4491,-0.4491,-0.4491,-0.4491,-0.4491,-0.4491,-0.2961,-0.3414,-0.376,-0.3616,-0.3695,-0.3673,0.0,-0.3101,-0.3017,-0.2761,-0.2696,-0.2696,-0.2696,-0.2696,-0.2781,-0.2996,-0.3111,-0.3307,-0.3734,-0.3961,-0.421,0.0,0.0,-0.4969,0.0,-0.5368,-0.5395,-0.5395,-0.5436,-0.5809,-0.66,-0.7248,-0.7845,-0.8313,-0.836,-0.836,-0.836,-0.8589,-0.8703,-0.8703,-0.9273,-0.9236,-0.8703,-0.9273,-0.9539,-0.9539,-0.9539,-0.9873,0.0,-1.0395,-1.0395,-1.0395,-1.0395,-1.0395,-1.0319,-0.9765,-0.9539,-0.9463,-0.8894,-0.8703,-0.8689,-0.8666,-0.8541,-0.8543,-0.9308,-0.9429,-0.9236,-0.8961,-0.9022,-0.9247,-0.9452,-0.9516,-0.9516,-0.9516,-0.9516,-0.9462,-0.9263,-0.8859,-0.8327,-0.773,-0.7231,-0.6751,-0.6273,-0.6041,-0.5796,-0.5363,-0.5171,-0.4887,-0.4351,-0.4399,-0.4433,-0.421,-0.4375,-0.445,-0.4294,-0.4365,-0.4447,-0.4487,-0.4491,-0.4491,-0.4491,-0.4491,-0.4491,-0.4491,-0.4491,-0.4491,-0.4491,-0.4491,-0.4491,-0.4491,-0.4491,-0.4491,-0.2258,-0.2861,-0.3265,-0.314,-0.346,-0.3673,-0.3202,-0.3101,-0.3017,-0.2761,-0.2696,-0.2696,-0.2696,-0.2696,-0.2747,-0.2886,-0.3115,-0.3407,-0.3748,-0.4028,-0.4328,0.0,0.0,-0.4809,-0.5073,-0.527,-0.5395,-0.5395,-0.5535,0.0,-0.5793,-0.5945,-0.6471,-0.7476,-0.7522,-0.7522,-0.7522,-0.8322,-0.8703,-0.8703,-0.8703,-0.8703,-0.8703,-0.8703,-0.8703,-0.8703,-0.8703,-0.8703,0.0,-0.8737,-0.8737,-0.8737,-0.8737,-0.8737,-0.8737,-0.8703,-0.8703,-0.8703,-0.8703,-0.8703,-0.8666,-0.8527,-0.8322,-0.8077,-0.7893,-0.7826,-0.7783,-0.7508,-0.7939,-0.8657,-0.9318,-0.9516,-0.9516,-0.9516,-0.9516,-0.9484,-0.9478,-0.8754,-0.8065,-0.7911,-0.7094,-0.637,-0.6219,-0.5714,-0.5308,-0.5304,-0.4842,-0.4519,-0.4487,-0.4487,-0.4433,-0.421,-0.4375,-0.4491,-0.4487,-0.4304,-0.4284,-0.4481,-0.4491,-0.4491,-0.4491,-0.4491,-0.4491,-0.4491,-0.4491,-0.4491,-0.4491,-0.4491,-0.4491,-0.4491,-0.4491,-0.4491,-0.1617,-0.2049,-0.2466,-0.2424,-0.2522,-0.2635,-0.2629,-0.2618,-0.2643,-0.2686,-0.2696,-0.2696,-0.2696,-0.2696,-0.2781,-0.2993,-0.3114,0.0,0.0,0.0,0.0,-0.4657,-0.4993,-0.5218,0.0,0.0,-0.5395,-0.5395,-0.544,-0.5532,-0.5647,-0.5793,-0.6101,-0.6672,-0.6683,-0.6683,-0.6683,-0.6949,-0.7065,-0.7065,-0.7633,-0.7599,-0.7065,-0.7638,-0.7863,-0.7863,-0.7863,-0.8208,-0.8703,-0.8703,-0.8703,-0.8703,-0.8703,-0.8703,-0.8627,-0.8093,-0.7863,-0.7787,-0.7253,-0.7065,-0.7034,-0.6858,-0.6686,-0.6481,-0.6352,-0.6857,-0.7602,-0.8025,-0.8328,-0.8651,-0.9318,-0.9151,-0.892,-0.9382,-0.9151,-0.8952,-0.9414,-0.876,-0.7964,-0.7511,-0.6584,-0.5706,-0.525,-0.4947,-0.4763,-0.4763,-0.4598,-0.4491,-0.4491,-0.4491,-0.447,-0.4399,-0.4264,-0.4164,-0.4168,-0.4304,-0.4341,-0.4181,-0.4378,-0.4436,-0.4301,-0.4436,-0.4491,-0.4491,-0.4491,-0.4491,-0.4491,-0.4491,-0.4491,-0.4491,-0.4491,-0.4491,-0.1031,-0.1419,-0.1804,-0.179,-0.1952,-0.2121,-0.2166,-0.2285,-0.2413,-0.2458,-0.26,-0.2696,-0.2696,-0.2696,-0.2757,-0.2924,-0.303,-0.3239,0.0,0.0,0.0,-0.4735,0.0,0.0,0.0,-0.5361,-0.5395,-0.5395,-0.5395,-0.5463,-0.5583,-0.5674,-0.5861,-0.6166,-0.6269,-0.63,-0.63,-0.63,-0.63,-0.63,-0.6795,-0.6795,-0.63,-0.6834,-0.7065,-0.7065,-0.7065,-0.733,0.0,-0.7787,-0.7787,-0.7787,-0.7787,-0.7787,-0.7748,-0.7215,-0.7065,-0.6988,-0.6493,-0.63,-0.6265,-0.6013,-0.5803,-0.562,-0.5566,-0.623,-0.7186,-0.7869,-0.8096,-0.8231,-0.8952,-0.8592,-0.8199,-0.8598,-0.8398,-0.8199,-0.863,-0.8058,-0.7329,-0.6903,-0.603,-0.5196,-0.4788,-0.4593,-0.4491,-0.4491,-0.4491,-0.4463,-0.4408,-0.4384,-0.4356,-0.4325,-0.4138,-0.3976,-0.3936,-0.4111,-0.4177,-0.4039,-0.4246,-0.4333,-0.4198,-0.4381,-0.4436,-0.4324,-0.4351,-0.4382,-0.4382,-0.4464,-0.4491,-0.4487,-0.4433,-0.4382,0.0,-0.0907,-0.1251,-0.1228,-0.1612,-0.1934,-0.1771,-0.2029,0.0,-0.2127,-0.2391,-0.2666,-0.2713,-0.2703,-0.271,-0.274,-0.2957,-0.3229,0.0,-0.3981,0.0,0.0,-0.5029,0.0,-0.5113,-0.5277,-0.5395,-0.5395,-0.5395,-0.5457,-0.5566,-0.5586,-0.5715,-0.5952,-0.6149,-0.6276,-0.63,-0.63,-0.63,-0.63,-0.63,-0.63,-0.63,-0.63,-0.63,0.0,-0.63,-0.63,-0.63,-0.63,-0.63,-0.63,-0.63,-0.63,-0.63,-0.63,-0.63,-0.63,-0.63,-0.63,-0.6248,-0.5901,-0.5603,-0.5395,-0.5395,-0.5848,-0.6465,-0.7153,-0.7321,-0.7484,-0.8226,-0.7874,-0.7354,-0.7386,-0.7354,-0.7354,-0.7386,-0.6859,-0.6351,-0.6224,-0.5496,-0.4887,-0.4731,-0.4607,-0.4501,-0.4494,-0.4463,-0.4408,-0.4221,-0.4193,-0.4138,-0.4024,-0.3993,-0.3939,-0.3802,-0.379,-0.3869,-0.4046,-0.4118,-0.4158,-0.4134,-0.4362,-0.43,-0.3976,-0.4107,-0.418,-0.418,-0.4365,-0.4457,-0.4453,-0.4267,-0.4184,-0.0513,0.0,-0.0681,-0.0621,-0.0746,-0.0935,0.0,-0.1303,-0.1533,-0.2004,0.0,-0.2363,-0.2779,-0.2778,-0.2795,-0.3118,-0.3209,-0.34,-0.3832,0.0,0.0,-0.5022,-0.5213,-0.5341,-0.5341,-0.5375,-0.5395,-0.5395,-0.5395,-0.5412,-0.5446,-0.5562,-0.5623,-0.5691,-0.5833,-0.6061,-0.6296,-0.63,-0.63,-0.63,-0.63,-0.63,-0.63,-0.63,-0.63,-0.63,-0.63,-0.63,-0.63,-0.63,-0.63,-0.63,-0.63,-0.63,-0.63,-0.63,-0.63,-0.63,-0.63,-0.63,-0.6248,-0.5901,-0.5603,-0.5395,-0.5395,-0.5524,-0.5785,-0.6437,-0.6629,-0.6793,-0.7484,-0.7153,-0.6761,-0.7288,-0.7022,-0.6793,-0.7288,-0.6859,-0.6384,-0.6347,-0.5659,-0.5005,-0.4891,-0.4647,-0.4453,-0.4289,-0.419,-0.4104,-0.4052,-0.4052,-0.4024,-0.3996,-0.391,-0.3802,-0.3652,-0.374,-0.3721,-0.3574,-0.3773,-0.3802,-0.3597,-0.3926,-0.4018,-0.3776,-0.3855,-0.3944,-0.4048,-0.4082,-0.4124,-0.4121,-0.4062,-0.4109,-0.0436,-0.0503,-0.053,-0.0499,-0.0523,-0.0596,-0.0771,0.0,0.0,0.0,0.0,-0.2015,-0.2442,-0.2549,-0.2704,-0.3136,-0.334,0.0,0.0,0.0,-0.5012,-0.509,-0.5267,-0.5395,0.0,-0.5395,-0.5395,-0.5395,-0.5395,-0.5395,-0.5395,-0.5474,-0.5552,-0.5589,-0.5664,-0.585,-0.6152,-0.6156,-0.6228,-0.63,-0.6186,-0.6156,-0.6152,-0.6081,-0.6088,-0.6088,-0.6088,-0.6088,-0.6088,-0.6088,-0.6091,-0.6156,-0.6156,-0.6238,-0.63,-0.63,-0.63,-0.63,-0.63,-0.6207,-0.6061,-0.5857,-0.5603,-0.5395,-0.5395,-0.5395,-0.5524,-0.6207,-0.64,-0.6494,-0.6859,-0.6437,-0.6046,-0.6408,-0.621,-0.6046,-0.6408,-0.621,-0.5947,-0.5947,-0.5488,-0.5044,-0.4908,-0.4683,-0.4429,-0.4245,-0.4092,-0.3965,-0.391,-0.391,-0.3882,-0.383,-0.3747,-0.3691,-0.3601,-0.362,-0.358,-0.3488,-0.3744,-0.3802,-0.3587,-0.3789,-0.3805,-0.3559,-0.3602,-0.3647,-0.3723,-0.3816,-0.3881,-0.3913,-0.3852,-0.3897,-0.0356,-0.0476,-0.0586,-0.0568,-0.0583,-0.0586,-0.0564,0.0,0.0,0.0,0.0,0.0,0.0,-0.2315,0.0,0.0,0.0,0.0,-0.4447,-0.4843,-0.5073,-0.5096,-0.5267,0.0,-0.5395,-0.5395,-0.5395,-0.5395,-0.5395,-0.5395,-0.5395,-0.5395,-0.5453,-0.5552,-0.5555,-0.5688,-0.5922,-0.5946,-0.6061,-0.6228,-0.6057,-0.5956,-0.5952,-0.5861,-0.58,-0.58,-0.58,0.0,-0.58,-0.58,-0.5878,-0.5956,-0.5956,-0.6088,-0.6265,-0.6265,-0.6279,-0.6296,-0.6272,-0.604,-0.5796,-0.5776,-0.5586,-0.5395,-0.5395,-0.5395,-0.5524,-0.6075,-0.6235,-0.6235,-0.6235,-0.5815,-0.5395,-0.5395,-0.5395,-0.5395,-0.5395,-0.5395,-0.5395,-0.5359,-0.5221,-0.5063,-0.4887,-0.465,-0.4425,-0.4233,-0.4054,-0.394,-0.3825,-0.378,-0.3716,-0.361,-0.3613,-0.3613,-0.3613,-0.3515,-0.351,-0.3593,-0.3788,-0.3857,-0.3766,-0.3736,-0.3622,-0.3401,-0.3393,-0.3393,-0.3398,-0.3584,-0.3707,-0.376,-0.365,-0.3668,-0.0226,-0.0375,-0.0504,-0.045,-0.0473,-0.05,-0.0447,0.0,0.0,0.0,0.0,0.0,0.0,-0.2547,-0.2825,0.0,0.0,-0.4237,0.0,0.0,-0.4965,-0.5083,0.0,-0.5395,-0.5395,-0.5395,-0.5395,-0.5395,-0.5395,-0.5395,-0.5395,-0.5395,-0.5405,-0.5429,-0.5429,-0.5515,-0.5654,-0.5776,-0.5847,-0.5871,-0.5847,-0.5837,-0.5837,-0.5813,-0.58,-0.58,0.0,-0.58,-0.58,-0.58,-0.5817,-0.5837,-0.5837,-0.5928,-0.6027,-0.6027,-0.6149,-0.6279,-0.6112,-0.5949,-0.5783,-0.5661,-0.5539,-0.5395,-0.5395,-0.5395,-0.5428,-0.5524,-0.5557,-0.5557,-0.5557,-0.5495,-0.5395,-0.5395,-0.5395,-0.5395,-0.5395,-0.5395,-0.5359,-0.519,-0.5137,-0.5019,-0.4708,-0.4532,-0.4375,-0.4232,-0.3983,-0.3813,-0.3813,-0.3699,-0.361,-0.3613,-0.3613,-0.3613,-0.3613,-0.3674,-0.3688,-0.3611,-0.3539,-0.3524,-0.3632,-0.3425,-0.3331,-0.3401,-0.341,-0.3389,-0.3398,-0.3535,-0.3611,-0.3629,-0.3611,-0.3668,-0.0231,-0.0314,-0.0392,-0.0399,-0.0505,-0.0583,-0.0519,0.0,0.0,0.0,0.0,0.0,0.0,0.0,-0.267,-0.373,0.0,-0.4535,-0.467,-0.4887,-0.5026,0.0,0.0,-0.5395,-0.5395,-0.5395,-0.5395,-0.5395,-0.5395,-0.5395,-0.5395,-0.5395,-0.5395,-0.5395,-0.5395,-0.5429,-0.5498,-0.5566,-0.5644,-0.58,-0.5725,-0.5688,-0.5684,-0.5599,-0.5597,-0.5597,0.0,-0.5597,-0.5597,-0.5597,-0.5613,-0.5688,-0.5688,-0.5776,-0.5915,-0.5963,-0.6129,-0.6289,-0.6179,-0.6,-0.5789,-0.5725,-0.5583,-0.5395,-0.5395,-0.5395,-0.5395,-0.5395,-0.5395,-0.5395,-0.5395,-0.5395,-0.5362,-0.5259,-0.5223,-0.5193,-0.5096,-0.5063,-0.506,-0.496,-0.4924,-0.4872,-0.4647,-0.4484,-0.4356,-0.417,-0.3992,-0.3827,-0.3791,-0.3736,-0.3679,-0.3619,-0.3613,-0.3613,-0.3613,-0.3663,-0.3691,-0.3719,-0.3585,-0.3492,-0.3502,-0.337,-0.331,-0.3286,-0.329,-0.329,-0.3283,-0.3343,-0.3433,-0.3499,-0.3499,-0.3568,-0.0202,-0.0257,-0.0277,-0.0324,-0.0479,-0.0621,-0.062,-0.0609,0.0,0.0,0.0,0.0,0.0,-0.168,0.0,-0.3679,-0.4191,-0.4503,-0.4684,-0.4914,-0.5063,-0.5096,-0.5267,-0.5395,-0.5395,-0.5395,-0.5395,-0.5395,-0.5395,-0.5395,-0.5395,-0.5395,-0.5395,-0.5395,-0.5395,-0.5395,-0.5395,-0.5395,-0.5508,-0.5698,-0.5589,-0.5538,-0.5566,-0.5446,-0.5395,-0.5395,-0.5395,-0.5395,-0.5395,-0.5395,-0.5463,-0.5538,-0.5538,-0.5627,-0.5776,-0.5925,-0.6105,-0.6242,-0.6204,-0.6,-0.5789,-0.5722,-0.5579,-0.5395,-0.5395,-0.5395,-0.5395,-0.5395,-0.5395,-0.5395,-0.5395,-0.5395,-0.5359,-0.5156,-0.5087,-0.5057,-0.4831,-0.4797,-0.4797,-0.4761,-0.4761,-0.4694,-0.4561,-0.4451,-0.4326,-0.4159,-0.4024,-0.3944,-0.3879,-0.3843,-0.378,-0.3665,-0.3652,-0.3641,-0.3616,-0.3613,-0.3638,-0.3744,-0.3663,-0.3542,-0.3447,-0.3444,-0.3387,-0.3237,-0.3289,-0.3289,-0.3234,-0.3289,-0.3352,-0.3444,-0.3444,-0.3493,-0.0018,-0.0109,-0.0199,-0.0127,-0.0265,0.0,-0.0652,-0.0647,0.0,-0.0515,0.0,0.0,0.0,-0.1659,-0.2465,-0.3301,-0.3566,-0.3907,-0.4612,0.0,-0.4951,-0.5083,-0.5267,-0.5395,-0.5395,-0.5395,-0.5395,-0.5395,-0.5395,-0.5395,-0.5395,-0.5395,-0.5395,-0.5395,-0.5395,-0.5395,-0.5395,-0.5395,-0.5405,-0.5426,-0.5416,-0.5412,-0.5412,-0.5399,-0.5395,-0.5395,-0.5395,-0.5395,-0.5395,-0.5395,-0.5402,-0.5412,-0.5412,-0.5504,-0.564,-0.5888,-0.6,-0.599,-0.5884,-0.582,-0.5755,-0.5518,-0.5412,-0.5395,-0.5395,-0.5395,-0.5395,-0.5395,-0.5395,-0.5395,-0.5395,-0.5395,-0.5359,-0.5156,-0.5087,-0.5057,-0.4831,-0.4797,-0.4764,-0.4628,-0.4625,-0.4561,-0.4364,-0.4325,-0.4289,-0.4287,-0.4183,-0.407,-0.4094,-0.3962,-0.3873,-0.3783,-0.3798,-0.3728,-0.3621,-0.3613,-0.3613,-0.361,-0.3613,-0.3608,-0.3599,-0.3599,-0.3515,-0.339,-0.3498,-0.3501,-0.339,-0.3504,-0.3564,-0.3599,-0.3599,-0.3602,0.0,-0.0035,-0.0087,-0.0145,-0.0184,0.0,0.0,-0.0534,-0.0488,-0.0496,-0.0476,0.0,0.0,0.0,-0.186,-0.2547,-0.3082,-0.3584,-0.4085,-0.4177,-0.4288,-0.4463,-0.4566,-0.4665,-0.4716,-0.5126,-0.5395,-0.5395,-0.5395,-0.5395,-0.5395,-0.5395,-0.5395,-0.5395,-0.5395,-0.5395,-0.5395,-0.5395,-0.5395,-0.5395,-0.5395,-0.5395,-0.5395,-0.5395,-0.5395,-0.5395,-0.5395,-0.5395,-0.5395,-0.5395,-0.5395,-0.5395,-0.5395,-0.5487,-0.5603,-0.5715,-0.5813,-0.5878,-0.582,-0.5742,-0.565,-0.5573,-0.5474,-0.5395,-0.5395,-0.5326,-0.5223,-0.5223,-0.5126,-0.5096,-0.5329,-0.5395,-0.5329,-0.4994,-0.4927,-0.4827,-0.4564,-0.4498,-0.4464,-0.4431,-0.4398,-0.4398,-0.43,-0.43,-0.43,-0.43,-0.4262,-0.4202,-0.4094,-0.4046,-0.397,-0.3879,-0.3827,-0.3767,-0.3723,-0.3654,-0.3613,-0.3613,-0.3613,-0.3613,-0.3613,-0.3613,-0.3589,-0.3515,-0.3589,-0.3561,-0.3515,-0.3561,-0.3613,-0.3613,-0.3613,-0.3613,0.0016,0.0,-0.0017,-0.0108,0.0,0.0,-0.036,-0.0384,-0.0365,-0.0409,-0.0336,-0.0361,-0.0699,0.0,0.0,0.0,-0.2309,-0.2839,-0.3309,-0.3437,-0.3515,-0.3696,-0.3809,-0.3863,-0.3908,-0.4407,-0.4793,-0.499,-0.5034,-0.516,-0.5395,-0.5395,-0.5395,-0.5395,-0.5395,-0.5395,-0.5395,-0.5395,-0.5362,-0.5292,-0.5292,-0.5326,-0.5395,-0.5395,-0.5395,-0.5395,-0.5395,-0.5395,-0.5395,-0.5395,-0.5362,-0.5292,-0.5292,-0.5356,-0.5453,-0.5431,-0.558,-0.5735,-0.5661,-0.5597,-0.551,-0.5463,-0.5346,-0.5196,-0.5196,-0.5126,-0.499,-0.499,-0.4894,-0.4864,-0.513,-0.5196,-0.513,-0.4794,-0.4728,-0.4664,-0.4367,-0.43,-0.43,-0.43,-0.43,-0.43,-0.43,-0.43,-0.43,-0.43,-0.43,-0.427,-0.4186,-0.4175,-0.4097,-0.3973,-0.3884,-0.3824,-0.3815,-0.3712,-0.3652,-0.3616,-0.3613,-0.3613,-0.3613,-0.3613,-0.3613,-0.3613,-0.3613,-0.3613,-0.3613,-0.3613,-0.3613,-0.3613,-0.3613,-0.3613,0.0077,0.0,0.0,0.0,0.0,0.0,-0.0167,-0.024,-0.0276,-0.0223,-0.0104,0.0,0.0,-0.0112,0.0,-0.1006,-0.1202,-0.1564,-0.2373,-0.2613,-0.2728,-0.2876,-0.3017,-0.3077,-0.3077,-0.3155,-0.3464,-0.4134,-0.4249,-0.4619,-0.5326,-0.5392,-0.5392,-0.5395,-0.5395,-0.5395,-0.5395,-0.5395,-0.5292,-0.5087,-0.5087,-0.519,-0.5395,-0.5395,-0.5395,-0.5395,-0.5395,-0.5395,-0.5395,-0.5395,-0.5292,-0.5087,-0.5087,-0.5087,-0.5106,-0.5108,-0.5303,-0.5551,-0.5375,-0.5303,-0.528,-0.5135,-0.496,-0.4797,-0.4797,-0.4797,-0.4797,-0.4797,-0.4797,-0.4797,-0.4797,-0.4797,-0.4764,-0.4625,-0.4592,-0.4561,-0.4334,-0.43,-0.43,-0.43,-0.43,-0.43,-0.43,-0.43,-0.43,-0.43,-0.43,-0.43,-0.43,-0.43,-0.4254,-0.4132,-0.3978,-0.3887,-0.3797,-0.3812,-0.3734,-0.3621,-0.3613,-0.3613,-0.3613,-0.3613,-0.3613,-0.3613,-0.3613,-0.3613,-0.3613,-0.3613,-0.3613,-0.3613,-0.3613,-0.3613,0.0092,0.0,0.0,0.0,0.0,0.0,0.0,-0.0068,0.0,0.0,-0.0027,0.0,0.0,-0.0028,0.0,-0.042,-0.0867,-0.1285,-0.162,-0.169,-0.1744,-0.1844,-0.1954,-0.2044,-0.2058,-0.2542,-0.2927,-0.3144,-0.3172,-0.3278,-0.3503,-0.4,-0.427,-0.4289,-0.4728,-0.4964,-0.4964,-0.4964,-0.496,-0.4894,-0.4894,-0.4927,-0.4964,-0.4964,-0.4964,-0.4964,-0.4964,-0.4964,-0.4964,-0.4964,-0.4927,-0.4894,-0.4894,-0.4894,-0.49,-0.4873,-0.4956,-0.5026,-0.4956,-0.4956,-0.495,-0.4906,-0.4861,-0.4797,-0.4797,-0.4728,-0.4661,-0.4661,-0.4561,-0.4434,-0.4434,-0.4434,-0.4464,-0.4561,-0.4592,-0.4561,-0.4334,-0.43,-0.43,-0.43,-0.43,-0.43,-0.43,-0.43,-0.43,-0.43,-0.43,-0.43,-0.43,-0.43,-0.4287,-0.4249,-0.4137,-0.4047,-0.4012,-0.3882,-0.3798,-0.3734,-0.3657,-0.3613,-0.3613,-0.3613,-0.3613,-0.3613,-0.3613,-0.3613,-0.3613,-0.3613,-0.3613,-0.3613,-0.3613,-0.3613,0.0107,0.0,0.0,0.0,0.0,0.0,0.0,0.0,0.0,0.0,0.0,0.0,0.0,0.0,0.0,-0.0112,-0.042,-0.0699,-0.0839,-0.0868,-0.0902,-0.0978,-0.1067,-0.1134,-0.1127,-0.156,-0.1933,-0.2235,-0.226,-0.2386,-0.2678,-0.3126,-0.3496,-0.3793,-0.4201,-0.4528,-0.4797,-0.4797,-0.4764,-0.4728,-0.4728,-0.4694,-0.4597,-0.4731,-0.4797,-0.4797,-0.4797,-0.4797,-0.4797,-0.4797,-0.4764,-0.4728,-0.4728,-0.4728,-0.4694,-0.4631,-0.4697,-0.4797,-0.4728,-0.4728,-0.4728,-0.4728,-0.4664,-0.4597,-0.4597,-0.4531,-0.4495,-0.4495,-0.4398,-0.43,-0.43,-0.43,-0.4334,-0.4464,-0.4495,-0.4464,-0.4334,-0.43,-0.43,-0.43,-0.43,-0.43,-0.43,-0.43,-0.43,-0.43,-0.43,-0.43,-0.43,-0.43,-0.43,-0.43,-0.4235,-0.417,-0.4089,-0.3982,-0.3909,-0.3827,-0.3762,-0.3724,-0.3724,-0.3634,-0.3613,-0.3613,-0.3613,-0.3613,-0.3613,-0.3613,-0.3613,-0.3613,-0.3613,-0.3613,0.0168,0.0,0.0,0.0,0.0,0.0,0.0,0.0,0.0,0.0,0.0,0.0,0.0,0.0,0.0,0.0,0.0,-0.0056,-0.0168,-0.0168,-0.0224,-0.0336,-0.0364,-0.0364,-0.0364,-0.0432,-0.0733,-0.1404,-0.1442,-0.1742,-0.2419,-0.2511,-0.2868,-0.3521,-0.3621,-0.3977,-0.4646,-0.4589,-0.4561,-0.4561,-0.4492,-0.4428,-0.43,-0.4631,-0.4764,-0.4764,-0.4764,-0.4764,-0.4764,-0.4764,-0.4694,-0.4561,-0.4561,-0.4561,-0.4561,-0.4367,-0.4498,-0.4731,-0.4628,-0.4561,-0.4561,-0.4561,-0.4464,-0.43,-0.43,-0.43,-0.43,-0.43,-0.43,-0.43,-0.43,-0.43,-0.43,-0.43,-0.43,-0.43,-0.43,-0.43,-0.43,-0.43,-0.43,-0.43,-0.43,-0.43,-0.43,-0.43,-0.43,-0.43,-0.43,-0.43,-0.43,-0.43,-0.43,-0.4257,-0.4145,-0.4092,-0.4038,-0.3927,-0.3911,-0.3903,-0.3903,-0.3719,-0.3627,-0.3627,-0.3619,-0.3613,-0.3613,-0.3613,-0.3613,-0.3613,-0.3613,-0.3613,0.0471,0.0208,0.0,0.0,0.0,0.0,0.0,0.0,0.0,0.0,0.0,0.0,0.0,0.0,0.0,0.0,0.0,0.0,-0.0028,-0.0056,-0.0056,-0.0084,-0.0084,-0.0084,-0.0084,-0.0113,-0.017,-0.034,-0.0342,-0.0405,-0.0564,-0.1135,-0.1514,-0.1675,-0.2204,-0.2822,-0.354,-0.2986,-0.3253,-0.4367,-0.3789,-0.3789,-0.43,-0.4367,-0.44,-0.44,-0.44,-0.44,-0.44,-0.44,-0.44,-0.4367,-0.4367,-0.4367,-0.4367,-0.43,-0.4334,-0.44,-0.4367,-0.4367,-0.4367,-0.4367,-0.4334,-0.43,-0.43,-0.43,-0.43,-0.43,-0.43,-0.43,-0.43,-0.43,-0.43,-0.43,-0.43,-0.43,-0.43,-0.43,-0.43,-0.43,-0.43,-0.43,-0.43,-0.43,-0.43,-0.43,-0.43,-0.43,-0.43,-0.43,-0.43,-0.43,-0.43,-0.4289,-0.4265,-0.4172,-0.4075,-0.4048,-0.3957,-0.3903,-0.3903,-0.3795,-0.3745,-0.3745,-0.3657,-0.3613,-0.3613,-0.3613,-0.3613,-0.3613,-0.3613,-0.3613,0.0,0.0,0.0,0.0044,0.0,0.0,0.0,0.0,0.0,0.0,0.0,0.0,0.0,0.0,0.0,0.0,0.0,0.0,0.0,0.0,0.0,0.0,0.0,0.0,0.0,0.0,0.0,0.0,0.0,0.0,0.0,-0.035,-0.074,-0.1083,-0.1425,-0.1965,-0.2668,-0.2284,-0.2482,-0.3255,-0.285,-0.2883,-0.3255,-0.3961,-0.43,-0.43,-0.43,-0.43,-0.43,-0.43,-0.43,-0.43,-0.43,-0.43,-0.43,-0.43,-0.43,-0.43,-0.43,-0.43,-0.43,-0.43,-0.43,-0.43,-0.43,-0.43,-0.43,-0.43,-0.43,-0.43,-0.43,-0.43,-0.43,-0.43,-0.43,-0.43,-0.43,-0.43,-0.43,-0.43,-0.43,-0.43,-0.43,-0.43,-0.43,-0.43,-0.43,-0.43,-0.43,-0.43,-0.43,-0.43,-0.43,-0.43,-0.43,-0.424,-0.4205,-0.4205,-0.4145,-0.4078,-0.4078,-0.3993,-0.3901,-0.3841,-0.3781,-0.3751,-0.3751,-0.3723,-0.3693,-0.3693,-0.3638,-0.3613,0.0,0.0,0.0541,0.0283,0.0179,0.0,0.0112,0.007,0.0,0.0,0.0,0.0,0.0,0.0,0.0,0.0,0.0,0.0,0.0,0.0,0.0,0.0,0.0,0.0,0.0,0.0,0.0,0.0,0.0,0.0,0.0,0.0,-0.0292,-0.0903,-0.0902,-0.1236,-0.193,-0.1813,-0.1872,-0.2116,-0.2092,-0.2103,-0.2147,-0.3489,-0.4097,-0.4131,-0.4233,-0.43,-0.43,-0.43,-0.43,-0.43,-0.43,-0.43,-0.43,-0.43,-0.43,-0.43,-0.43,-0.43,-0.43,-0.43,-0.43,-0.43,-0.43,-0.43,-0.43,-0.43,-0.43,-0.43,-0.43,-0.43,-0.43,-0.43,-0.43,-0.43,-0.43,-0.43,-0.43,-0.43,-0.43,-0.43,-0.43,-0.43,-0.43,-0.43,-0.43,-0.43,-0.43,-0.43,-0.43,-0.43,-0.43,-0.43,-0.43,-0.43,-0.43,-0.43,-0.43,-0.43,-0.43,-0.4202,-0.407,-0.3967,-0.3924,-0.3903,-0.3903,-0.3835,-0.3813,-0.3813,-0.3717,-0.3645,0.0,0.0,0.1031,0.0,0.0871,0.0604,0.0,0.0,0.0,0.0,0.0,0.0,0.0,0.0,0.0,0.0,0.0,0.0,0.0,0.0,0.0,0.0,0.0,0.0,0.0,0.0,0.0,0.0,0.0,0.0,0.0,0.0,-0.0056,-0.0141,-0.0146,-0.0504,-0.1219,-0.0612,-0.09,-0.2115,-0.2106,-0.2095,-0.2114,-0.295,-0.3351,-0.3384,-0.4028,-0.43,-0.43,-0.43,-0.43,-0.43,-0.43,-0.43,-0.43,-0.43,-0.43,-0.43,-0.43,-0.43,-0.43,-0.43,-0.43,-0.43,-0.43,-0.43,-0.43,-0.43,-0.43,-0.43,-0.43,-0.43,-0.43,-0.43,-0.43,-0.43,-0.43,-0.43,-0.43,-0.43,-0.43,-0.43,-0.43,-0.43,-0.43,-0.43,-0.43,-0.43,-0.43,-0.43,-0.43,-0.43,-0.43,-0.43,-0.43,-0.43,-0.43,-0.43,-0.43,-0.43,-0.43,-0.4284,-0.4268,-0.4251,-0.4011,-0.3903,-0.3903,-0.3887,-0.3881,-0.3878,-0.3865,-0.3857,0.1376,0.1178,0.1035,0.0,0.1171,0.0978,0.0757,0.0,0.0323,0.0046,0.0,0.0,0.0,0.0,0.0,0.0,0.0,0.0,0.0,0.0,0.0,0.0,0.0,0.0,0.0,0.0,0.0,0.0,0.0,0.0,0.0,0.0,0.0,0.0,0.0,-0.0144,-0.047,-0.0149,-0.0303,-0.0924,-0.1341,-0.1339,-0.0952,-0.2064,-0.2805,-0.3249,-0.3995,-0.43,-0.43,-0.43,-0.43,-0.43,-0.43,-0.43,-0.43,-0.43,-0.43,-0.43,-0.43,-0.43,-0.43,-0.43,-0.43,-0.43,-0.43,-0.43,-0.43,-0.43,-0.43,-0.43,-0.43,-0.43,-0.43,-0.43,-0.43,-0.43,-0.43,-0.43,-0.43,-0.43,-0.43,-0.43,-0.43,-0.43,-0.43,-0.43,-0.43,-0.43,-0.43,-0.43,-0.43,-0.43,-0.43,-0.43,-0.43,-0.43,-0.43,-0.43,-0.43,-0.43,-0.43,-0.43,-0.43,-0.43,-0.4194,-0.414,-0.414,-0.404,-0.4005,-0.4005,-0.3935,-0.3903,0.0,0.0,0.1249,0.1534,0.1539,0.1401,0.0,0.0,0.0739,0.0,0.0184,0.0144,0.0026,0.0,0.0,0.0,0.0,0.0,0.0,0.0,0.0,0.0,0.0,0.0,0.0,0.0,0.0,0.0,0.0,0.0,0.0,0.0,0.0,0.0,0.0,0.0,0.0,0.0,0.0,0.0,-0.0548,-0.0526,-0.0032,-0.1283,-0.2137,-0.2725,-0.3635,-0.4028,-0.4028,-0.4233,-0.4197,-0.4028,-0.4233,-0.43,-0.43,-0.43,-0.43,-0.43,-0.43,-0.43,-0.43,-0.43,-0.43,-0.43,-0.43,-0.43,-0.43,-0.43,-0.43,-0.43,-0.43,-0.43,-0.43,-0.43,-0.43,-0.43,-0.43,-0.43,-0.43,-0.43,-0.43,-0.43,-0.43,-0.43,-0.43,-0.43,-0.43,-0.43,-0.43,-0.43,-0.43,-0.43,-0.43,-0.43,-0.43,-0.43,-0.43,-0.43,-0.43,-0.43,-0.43,-0.43,-0.43,-0.43,-0.43,-0.43,-0.43,-0.4208,-0.4164,-0.4162,-0.4038,-0.3997,0.0,0.1961,0.0,0.2347,0.0,0.0,0.0,0.0,0.1231,0.076,0.0672,0.0524,0.0072,0.0,0.0,0.0,0.0,0.0,0.0,0.0,0.0,0.0,0.0,0.0,0.0,0.0,0.0,0.0,0.0,0.0,0.0,0.0,0.0,0.0,0.0,0.0,0.0,0.0,0.0,0.0,-0.003,-0.003,-0.0031,-0.0795,-0.1174,-0.1271,-0.2652,-0.3251,-0.3318,-0.4028,-0.3892,-0.3318,-0.4028,-0.43,-0.43,-0.43,-0.43,-0.43,-0.43,-0.43,-0.43,-0.43,-0.43,-0.43,-0.43,-0.43,-0.43,-0.43,-0.43,-0.43,-0.43,-0.43,-0.43,-0.43,-0.43,-0.43,-0.43,-0.43,-0.43,-0.43,-0.43,-0.43,-0.43,-0.43,-0.43,-0.43,-0.43,-0.43,-0.43,-0.43,-0.43,-0.43,-0.43,-0.43,-0.43,-0.43,-0.43,-0.43,-0.43,-0.43,-0.43,-0.43,-0.43,-0.43,-0.43,-0.43,-0.43,-0.4295,-0.4289,-0.4289,-0.4284,-0.4281,0.0,0.0,0.0,0.2206,0.229,0.2276,0.2084,0.193,0.1722,0.1253,0.1141,0.1102,0.0937,0.0408,0.0,0.0,0.0,0.0,0.0,0.0,0.0,0.0,0.0,0.0,0.0,0.0,0.0,0.0,0.0,0.0,0.0,0.0,0.0,0.0,0.0,0.0,0.0,0.0,0.0,0.0,0.0,0.0,0.0,-0.0272,-0.0642,-0.114,-0.1635,-0.2085,-0.2515,-0.2762,-0.2716,-0.2581,-0.332,-0.332,-0.2952,-0.342,-0.3286,-0.2885,-0.2885,-0.2885,-0.2885,-0.2885,-0.2885,-0.2885,-0.2885,-0.2885,-0.2885,-0.2885,-0.2885,-0.2885,-0.2885,-0.3253,-0.3723,-0.4197,-0.43,-0.43,-0.43,-0.43,-0.43,-0.43,-0.43,-0.43,-0.43,-0.43,-0.43,-0.43,-0.43,-0.43,-0.43,-0.43,-0.43,-0.43,-0.43,-0.43,-0.43,-0.43,-0.43,-0.43,-0.43,-0.43,-0.43,-0.43,-0.43,-0.43,-0.43,-0.43,-0.43,-0.43,-0.43,-0.43,-0.43,-0.43,0.1624,0.0,0.0,0.0,0.0,0.2381,0.2311,0.0,0.2166,0.1688,0.1619,0.1588,0.1433,0.0895,0.0426,0.027,0.023,0.0183,0.0026,0.0,0.0,0.0,0.0,0.0,0.0,0.0,0.0,0.0,0.0,0.0,0.0,0.0,0.0,0.0,0.0,0.0,0.0,0.0,0.0,0.0,0.0,0.0,0.0,0.0,-0.0266,-0.0717,-0.0733,-0.1127,-0.1771,-0.2001,-0.1962,-0.1846,-0.2547,-0.2547,-0.2146,-0.2648,-0.2514,-0.2114,-0.2114,-0.2114,-0.2114,-0.2114,-0.2114,-0.2114,-0.2114,-0.2114,-0.2114,-0.2114,-0.2114,-0.2114,-0.2114,-0.2447,-0.295,-0.3456,-0.3558,-0.3558,-0.3558,-0.3964,-0.43,-0.43,-0.43,-0.43,-0.43,-0.43,-0.43,-0.43,-0.43,-0.43,-0.43,-0.43,-0.43,-0.43,-0.43,-0.43,-0.43,-0.43,-0.43,-0.43,-0.43,-0.43,-0.43,-0.43,-0.43,-0.43,-0.43,-0.43,-0.43,-0.43,-0.43,-0.43,-0.43,-0.43,0.0,0.0,0.0,0.0,0.0,0.0,0.2774,0.0,0.2573,0.212,0.2082,0.1986,0.1521,0.1433,0.1293,0.0826,0.0736,0.0554,0.0101,0.0025,0.0026,0.0026,0.0,0.0,0.0,0.0,0.0,0.0,0.0,0.0,0.0,0.0,0.0,0.0,0.0,0.0,0.0,0.0,0.0,0.0,0.0,0.0,0.0,0.0,0.0,0.0,0.0,-0.0407,-0.1124,-0.1767,-0.1667,-0.1141,-0.1812,-0.2045,-0.2047,-0.2045,-0.2045,-0.2047,-0.2047,-0.2047,-0.2047,-0.2047,-0.2047,-0.2047,-0.2047,-0.2047,-0.2047,-0.2047,-0.2047,-0.2047,-0.2079,-0.2079,-0.2079,-0.2079,-0.2114,-0.2114,-0.2114,-0.3222,-0.4233,-0.4233,-0.4233,-0.4233,-0.4233,-0.4267,-0.4267,-0.4267,-0.43,-0.43,-0.43,-0.43,-0.43,-0.43,-0.43,-0.43,-0.43,-0.43,-0.43,-0.43,-0.43,-0.43,-0.43,-0.43,-0.43,-0.43,-0.43,-0.43,-0.43,-0.43,-0.43,-0.43,-0.43,-0.43,0.1795,0.0,0.0,0.0,0.0,0.0,0.0,0.0,0.257,0.2568,0.2584,0.2588,0.2495,0.2486,0.2315,0.1792,0.1436,0.1162,0.1041,0.0718,0.0506,0.0511,0.0205,0.0,0.0,0.0,0.0,0.0,0.0,0.0,0.0,0.0,0.0,0.0,0.0,0.0,0.0,0.0,0.0,0.0,0.0,0.0,0.0,0.0,0.0,0.0,0.0,-0.0117,-0.0333,-0.0507,-0.0486,-0.036,-0.11,-0.1042,-0.0639,-0.1176,-0.1042,-0.0572,-0.0572,-0.0572,-0.0572,-0.0572,-0.0572,-0.0572,-0.0572,-0.0572,-0.0572,-0.0572,-0.0572,-0.0706,-0.1243,-0.1377,-0.1511,-0.198,-0.2114,-0.2114,-0.2114,-0.2415,-0.2716,-0.2716,-0.2716,-0.2716,-0.2716,-0.3153,-0.352,-0.352,-0.3961,-0.43,-0.43,-0.43,-0.43,-0.43,-0.43,-0.43,-0.43,-0.43,-0.43,-0.43,-0.43,-0.43,-0.43,-0.43,-0.43,-0.43,-0.43,-0.43,-0.43,-0.43,-0.43,-0.43,-0.43,-0.43,0.197,0.2134,0.0,0.0,0.0,0.0,0.2469,0.2519,0.2548,0.0,0.2699,0.2795,0.2734,0.2821,0.2782,0.2401,0.2168,0.188,0.1463,0.116,0.0991,0.0983,0.0566,0.0297,0.0303,0.0103,0.0,0.0,0.0,0.0,0.0,0.0,0.0,0.0,0.0,0.0,0.0,0.0,0.0,0.0,0.0,0.0,0.0,0.0,0.0,0.0,0.0,0.0,0.0,0.0,0.0,-0.0032,-0.0466,-0.0371,-0.0067,-0.0471,-0.0371,0.0,0.0,0.0,0.0,0.0,0.0,0.0,0.0,0.0,0.0,0.0,0.0,-0.0101,-0.0539,-0.0639,-0.074,-0.1143,-0.1209,-0.1209,-0.1209,-0.1209,-0.1411,-0.198,-0.2114,-0.2114,-0.2114,-0.2447,-0.2748,-0.2748,-0.3119,-0.3389,-0.3389,-0.3658,-0.3825,-0.3825,-0.4131,-0.43,-0.43,-0.43,-0.43,-0.43,-0.43,-0.43,-0.43,-0.43,-0.43,-0.43,-0.43,-0.43,-0.43,-0.43,-0.43,-0.43,-0.43,-0.43,0.2248,0.2287,0.0,0.2639,0.2534,0.0,0.2558,0.26,0.2561,0.0,0.2576,0.2739,0.2559,0.2722,0.2857,0.2725,0.281,0.2583,0.1701,0.1523,0.1476,0.1483,0.1064,0.0767,0.0695,0.0325,0.005,0.0,0.0,0.0,0.0,0.0,0.0,0.0,0.0,0.0,0.0,0.0,0.0,0.0,0.0,0.0,0.0,0.0,0.0,0.0,0.0,0.0,0.0,0.0,0.0,0.0,0.0,0.0,0.0,0.0,0.0,0.0,0.0,0.0,0.0,0.0,0.0,0.0,0.0,0.0,0.0,0.0,0.0,0.0,0.0,0.0,0.0,0.0,0.0,0.0,0.0,0.0,-0.037,-0.1612,-0.1879,-0.1879,-0.1879,-0.1946,-0.198,-0.198,-0.2045,-0.2114,-0.2114,-0.2681,-0.3082,-0.3082,-0.3656,-0.4097,-0.4164,-0.4164,-0.4197,-0.43,-0.43,-0.43,-0.43,-0.43,-0.43,-0.43,-0.43,-0.43,-0.43,-0.43,-0.43,-0.43,-0.43,-0.43,0.276,0.2847,0.2904,0.2734,0.2734,0.0,0.2565,0.2603,0.2672,0.0,0.2676,0.2719,0.2744,0.2784,0.2808,0.2784,0.2806,0.2775,0.263,0.2237,0.1971,0.1966,0.154,0.1114,0.0733,0.0614,0.041,0.0024,0.0,0.0,0.0,0.0,0.0,0.0,0.0,0.0,0.0,0.0,0.0,0.0,0.0,0.0,0.0,0.0,0.0,0.0,0.0,0.0,0.0,0.0,0.0,0.0,0.0,0.0,0.0,0.0,0.0,0.0,0.0,0.0,0.0,0.0,0.0,0.0,0.0,0.0,0.0,0.0,0.0,0.0,0.0,0.0,0.0,0.0,0.0,0.0,0.0,0.0,-0.0067,-0.0371,-0.0404,-0.0404,-0.0404,-0.0908,-0.131,-0.131,-0.1745,-0.2114,-0.2114,-0.2213,-0.2313,-0.2313,-0.2449,-0.2783,-0.3351,-0.3418,-0.3656,-0.4267,-0.43,-0.43,-0.43,-0.43,-0.43,-0.43,-0.43,-0.43,-0.43,-0.43,-0.43,-0.43,-0.43,-0.43,0.3035,0.3047,0.3067,0.2937,0.2903,0.0,0.0,0.2679,0.269,0.2659,0.2669,0.2709,0.2704,0.2755,0.2801,0.2801,0.2736,0.2762,0.2933,0.2695,0.2504,0.2504,0.2057,0.1654,0.1431,0.1186,0.0862,0.0381,0.0339,0.0247,0.0,0.0,0.0,0.0,0.0,0.0,0.0,0.0,0.0,0.0,0.0,0.0,0.0,0.0,0.0,0.0,0.0,0.0,0.0,0.0,0.0,0.0,0.0,0.0,0.0,0.0,0.0,0.0,0.0,0.0,0.0,0.0,0.0,0.0,0.0,0.0,0.0,0.0,0.0,0.0,0.0,0.0,0.0,0.0,0.0,0.0,0.0,0.0,0.0,0.0,0.0,0.0,0.0,-0.0303,-0.0539,-0.0539,-0.0841,-0.1042,-0.1042,-0.1377,-0.1612,-0.1612,-0.1913,-0.2248,-0.2614,-0.2648,-0.2817,-0.3188,-0.3188,-0.3355,-0.3723,-0.3756,-0.3928,-0.43,-0.43,-0.43,-0.43,-0.43,-0.43,-0.43,-0.43,-0.43,0.3327,0.3273,0.3253,0.3165,0.0,0.299,0.0,0.0,0.0,0.2628,0.2664,0.2682,0.0,0.0,0.0,0.2778,0.0,0.0,0.0,0.2914,0.0,0.284,0.2461,0.2185,0.2097,0.1658,0.1234,0.0835,0.0721,0.0497,0.0148,0.005,0.0,0.0,0.0,0.0,0.0,0.0,0.0,0.0,0.0,0.0,0.0,0.0,0.0,0.0,0.0,0.0,0.0,0.0,0.0,0.0,0.0,0.0,0.0,0.0,0.0,0.0,0.0,0.0,0.0,0.0,0.0,0.0,0.0,0.0,0.0,0.0,0.0,0.0,0.0,0.0,0.0,0.0,0.0,0.0,0.0,0.0,0.0,0.0,0.0,0.0,0.0,0.0,0.0,0.0,0.0,0.0,0.0,-0.0505,-0.0875,-0.0875,-0.1377,-0.1745,-0.1879,-0.1913,-0.198,-0.2079,-0.2114,-0.238,-0.2948,-0.2982,-0.3253,-0.3861,-0.3861,-0.3861,-0.3861,-0.3861,-0.403,-0.43,-0.43,-0.4267,0.0,0.0,0.0,0.0,0.3391,0.3385,0.2829,0.0,0.2849,0.2713,0.0,0.0,0.0,0.0,0.0,0.0,0.0,0.0,0.2731,0.278,0.2764,0.2646,0.2639,0.2474,0.2052,0.1587,0.1292,0.1235,0.079,0.0544,0.0611,0.0235,0.0,0.0,0.0,0.0,0.0,0.0,0.0,0.0,0.0,0.0,0.0,0.0,0.0,0.0,0.0,0.0,0.0,0.0,0.0,0.0,0.0,0.0,0.0,0.0,0.0,0.0,0.0,0.0,0.0,0.0,0.0,0.0,0.0,0.0,0.0,0.0,0.0,0.0,0.0,0.0,0.0,0.0,0.0,0.0,0.0,0.0,0.0,0.0,0.0,0.0,0.0,0.0,0.0,0.0,0.0,0.0,0.0,-0.0067,-0.0135,-0.0135,-0.0202,-0.0505,-0.1143,-0.121,-0.1478,-0.2045,-0.2114,-0.2147,-0.2213,-0.2213,-0.2281,-0.2348,-0.2348,-0.2348,-0.2348,-0.2348,-0.3019,-0.43,-0.43,-0.4197,0.0,0.0,0.0,0.0,0.0,0.3313,0.291,0.2795,0.2784,0.2808,0.0,0.0,0.0,0.0,0.0,0.0,0.2688,0.0,0.0,0.0,0.2603,0.2702,0.0,0.0,0.2428,0.2224,0.1992,0.1722,0.1493,0.1145,0.0604,0.0472,0.0279,0.0,0.0,0.0,0.0,0.0,0.0,0.0,0.0,0.0,0.0,0.0,0.0,0.0,0.0,0.0,0.0,0.0,0.0,0.0,0.0,0.0,0.0,0.0,0.0,0.0,0.0,0.0,0.0,0.0,0.0,0.0,0.0,0.0,0.0,0.0,0.0,0.0,0.0,0.0,0.0,0.0,0.0,0.0,0.0,0.0,0.0,0.0,0.0,0.0,0.0,0.0,0.0,0.0,0.0,0.0,0.0,0.0,0.0,0.0,0.0,-0.0135,-0.0438,-0.0471,-0.0572,-0.0875,-0.1276,-0.1511,-0.1511,-0.1879,-0.2114,-0.2114,-0.2114,-0.2114,-0.2114,-0.2114,-0.2415,-0.3019,-0.3019,-0.2986,0.4133,0.0,0.0,0.0,0.3652,0.347,0.2967,0.2822,0.2822,0.2896,0.0,0.0,0.0,0.0,0.0,0.0,0.0,0.2622,0.0,0.2577,0.0,0.0,0.0,0.0,0.0,0.2645,0.2505,0.2165,0.1984,0.1597,0.0945,0.0737,0.0516,0.0211,0.0071,0.0,0.0,0.0,0.0,0.0,0.0,0.0,0.0,0.0,0.0,0.0,0.0,0.0,0.0,0.0,0.0,0.0,0.0,0.0,0.0,0.0,0.0,0.0,0.0,0.0,0.0,0.0,0.0,0.0,0.0,0.0,0.0,0.0,0.0,0.0,0.0,0.0,0.0,0.0,0.0,0.0,0.0,0.0,0.0,0.0,0.0,0.0,0.0,0.0,0.0,0.0,0.0,0.0,0.0,0.0,0.0,0.0,0.0,0.0,0.0,0.0,0.0,0.0,-0.0505,-0.0807,-0.0807,-0.1276,-0.151,-0.151,-0.151,-0.151,-0.151,-0.151,-0.151,-0.1544,-0.1913,-0.2079,0.0,0.4871,0.4885,0.4157,0.4172,0.4069,0.2958,0.2907,0.305,0.2919,0.3095,0.3242,0.0,0.0,0.0,0.0,0.0,0.0,0.0,0.0,0.0,0.0,0.0,0.0,0.0,0.2552,0.2495,0.248,0.1933,0.1715,0.1944,0.1032,0.0559,0.0672,0.0234,0.0,0.0,0.0,0.0,0.0,0.0,0.0,0.0,0.0,0.0,0.0,0.0,0.0,0.0,0.0,0.0,0.0,0.0,0.0,0.0,0.0,0.0,0.0,0.0,0.0,0.0,0.0,0.0,0.0,0.0,0.0,0.0,0.0,0.0,0.0,0.0,0.0,0.0,0.0,0.0,0.0,0.0,0.0,0.0,0.0,0.0,0.0,0.0,0.0,0.0,0.0,0.0,0.0,0.0,0.0,0.0,0.0,0.0,0.0,0.0,0.0,0.0,0.0,-0.0034,-0.0034,-0.0034,-0.0067,-0.0067,-0.0067,-0.0067,-0.0067,-0.0067,-0.0067,-0.0067,-0.0101,-0.1478,-0.2045,0.4624,0.4829,0.4954,0.4924,0.4397,0.3809,0.3606,0.3328,0.3034,0.2808,0.3054,0.3232,0.0,0.0,0.0,0.0,0.0,0.0,0.0,0.0,0.0,0.0,0.0,0.0,0.0,0.0,0.2594,0.2684,0.2422,0.2197,0.2067,0.1746,0.1432,0.1164,0.1,0.1016,0.1181,0.1197,0.1083,0.0867,0.0867,0.0644,0.0252,0.0252,0.0252,0.0252,0.0252,0.0252,0.0252,0.0168,0.014,0.014,0.014,0.0088,0.0,0.0,0.0,0.0,0.0,0.0,0.0,0.0,0.0,0.0,0.0,0.0,0.0,0.0,0.0,0.0,0.0,0.0,0.0,0.0,0.0,0.0,0.0,0.0,0.0,0.0,0.0,0.0,0.0,0.0,0.0,0.0,0.0,0.0,0.0,0.0,0.0,0.0,0.0,0.0,0.0,0.0,0.0,0.0,0.0,0.0,0.0,0.0,0.0,0.0,0.0,0.0,0.0,0.0,0.0,0.0,-0.0505,-0.0673,0.4998,0.5253,0.549,0.554,0.4952,0.4341,0.42,0.381,0.3373,0.3075,0.3326,0.3507,0.3269,0.0,0.0,0.0,0.0,0.0,0.0,0.238,0.0,0.0,0.0,0.0,0.0,0.0,0.2583,0.2791,0.2624,0.2501,0.0,0.2257,0.2045,0.1789,0.1633,0.1652,0.1858,0.186,0.1669,0.1313,0.1313,0.098,0.0393,0.0393,0.0393,0.0393,0.0393,0.0393,0.0393,0.0308,0.028,0.028,0.028,0.0234,0.0154,0.0093,0.0032,0.0034,0.0303,0.0236,0.0,0.0,0.0,0.0034,0.0303,0.0202,0.0067,0.0303,0.0202,0.0,0.0,0.0,0.0,0.0,0.0,0.0,0.0,0.0,0.0,0.0,0.0,0.0,0.0,0.0,0.0,0.0,0.0,0.0,0.0,0.0,0.0,0.0,0.0,0.0,0.0,0.0,0.0,0.0,0.0,0.0,0.0,0.0,0.0,0.0,0.0,0.0,0.0,0.0,0.0,0.0,0.0,0.0]}]]